Wetterdaten: Samstag, 03.08.2019
Datum Zeit Temp. A. Feuchte A. Luftdruck Regen Wind Richtung Richtung Sonnenschein ET UV Solar Taupunkt Windchill Windböen
03.08.2019 00:00 12,1 °C 94 % 1013,5 hPa 0,0 mm 0,0 km/h (0 Bft) SW 219 ° 0 min 0,000 mm 0,0 UV-I 0 W/m² 11,2 °C 12,1 °C 0,0 km/h (0 Bft)
03.08.2019 00:01 12,1 °C 94 % 1013,5 hPa 0,0 mm 0,0 km/h (0 Bft) SW 219 ° 0 min 0,000 mm 0,0 UV-I 0 W/m² 11,2 °C 12,1 °C 0,0 km/h (0 Bft)
03.08.2019 00:02 12,1 °C 94 % 1013,4 hPa 0,0 mm 0,0 km/h (0 Bft) SW 219 ° 0 min 0,000 mm 0,0 UV-I 0 W/m² 11,2 °C 12,1 °C 0,0 km/h (0 Bft)
03.08.2019 00:03 12,1 °C 94 % 1013,5 hPa 0,0 mm 0,5 km/h (0 Bft) N 9 ° 0 min 0,000 mm 0,0 UV-I 0 W/m² 11,2 °C 12,1 °C 1,6 km/h (1 Bft)
03.08.2019 00:04 12,1 °C 94 % 1013,5 hPa 0,0 mm 1,5 km/h (1 Bft) O 100 ° 0 min 0,000 mm 0,0 UV-I 0 W/m² 11,2 °C 12,1 °C 4,8 km/h (1 Bft)
03.08.2019 00:05 12,1 °C 94 % 1013,5 hPa 0,0 mm 1,3 km/h (1 Bft) O 100 ° 0 min 0,000 mm 0,0 UV-I 0 W/m² 11,2 °C 12,1 °C 4,8 km/h (1 Bft)
03.08.2019 00:06 12,1 °C 94 % 1013,5 hPa 0,0 mm 0,0 km/h (0 Bft) O 100 ° 0 min 0,000 mm 0,0 UV-I 0 W/m² 11,2 °C 12,1 °C 0,0 km/h (0 Bft)
03.08.2019 00:07 12,1 °C 94 % 1013,5 hPa 0,0 mm 0,0 km/h (0 Bft) O 100 ° 0 min 0,000 mm 0,0 UV-I 0 W/m² 11,2 °C 12,1 °C 0,0 km/h (0 Bft)
03.08.2019 00:08 12,1 °C 94 % 1013,4 hPa 0,0 mm 1,0 km/h (0 Bft) O 100 ° 0 min 0,000 mm 0,0 UV-I 0 W/m² 11,2 °C 12,1 °C 4,8 km/h (1 Bft)
03.08.2019 00:09 12,1 °C 94 % 1013,5 hPa 0,0 mm 2,6 km/h (1 Bft) O 98 ° 0 min 0,000 mm 0,0 UV-I 0 W/m² 11,2 °C 12,1 °C 4,8 km/h (1 Bft)
03.08.2019 00:10 12,1 °C 94 % 1013,5 hPa 0,0 mm 0,5 km/h (0 Bft) O 98 ° 0 min 0,000 mm 0,0 UV-I 0 W/m² 11,2 °C 12,1 °C 3,2 km/h (1 Bft)
03.08.2019 00:11 12,1 °C 94 % 1013,5 hPa 0,0 mm 0,0 km/h (0 Bft) O 98 ° 0 min 0,000 mm 0,0 UV-I 0 W/m² 11,2 °C 12,1 °C 0,0 km/h (0 Bft)
03.08.2019 00:12 12,1 °C 94 % 1013,6 hPa 0,0 mm 0,0 km/h (0 Bft) O 98 ° 0 min 0,000 mm 0,0 UV-I 0 W/m² 11,2 °C 12,1 °C 0,0 km/h (0 Bft)
03.08.2019 00:13 12,1 °C 94 % 1013,6 hPa 0,0 mm 0,6 km/h (0 Bft) O 97 ° 0 min 0,000 mm 0,0 UV-I 0 W/m² 11,2 °C 12,1 °C 3,2 km/h (1 Bft)
03.08.2019 00:14 12,0 °C 94 % 1013,6 hPa 0,0 mm 0,9 km/h (0 Bft) N-NO 30 ° 0 min 0,000 mm 0,0 UV-I 0 W/m² 11,1 °C 12,0 °C 3,2 km/h (1 Bft)
03.08.2019 00:15 12,1 °C 94 % 1013,6 hPa 0,0 mm 0,0 km/h (0 Bft) N-NO 30 ° 0 min 0,000 mm 0,0 UV-I 0 W/m² 11,2 °C 12,1 °C 0,0 km/h (0 Bft)
03.08.2019 00:16 12,1 °C 94 % 1013,5 hPa 0,0 mm 0,0 km/h (0 Bft) N-NO 30 ° 0 min 0,000 mm 0,0 UV-I 0 W/m² 11,2 °C 12,1 °C 0,0 km/h (0 Bft)
03.08.2019 00:17 12,1 °C 94 % 1013,5 hPa 0,0 mm 0,0 km/h (0 Bft) N-NO 30 ° 0 min 0,000 mm 0,0 UV-I 0 W/m² 11,2 °C 12,1 °C 0,0 km/h (0 Bft)
03.08.2019 00:18 12,1 °C 94 % 1013,5 hPa 0,0 mm 0,0 km/h (0 Bft) N-NO 30 ° 0 min 0,000 mm 0,0 UV-I 0 W/m² 11,2 °C 12,1 °C 0,0 km/h (0 Bft)
03.08.2019 00:19 12,1 °C 94 % 1013,5 hPa 0,0 mm 0,0 km/h (0 Bft) N-NO 30 ° 0 min 0,000 mm 0,0 UV-I 0 W/m² 11,2 °C 12,1 °C 0,0 km/h (0 Bft)
03.08.2019 00:20 12,0 °C 94 % 1013,5 hPa 0,0 mm 0,0 km/h (0 Bft) N-NO 30 ° 0 min 0,000 mm 0,0 UV-I 0 W/m² 11,1 °C 12,0 °C 0,0 km/h (0 Bft)
03.08.2019 00:21 12,1 °C 94 % 1013,5 hPa 0,0 mm 0,0 km/h (0 Bft) N-NO 30 ° 0 min 0,000 mm 0,0 UV-I 0 W/m² 11,2 °C 12,1 °C 0,0 km/h (0 Bft)
03.08.2019 00:22 12,1 °C 94 % 1013,5 hPa 0,0 mm 0,0 km/h (0 Bft) N-NO 30 ° 0 min 0,000 mm 0,0 UV-I 0 W/m² 11,2 °C 12,1 °C 0,0 km/h (0 Bft)
03.08.2019 00:23 12,1 °C 94 % 1013,6 hPa 0,0 mm 0,0 km/h (0 Bft) N-NO 30 ° 0 min 0,000 mm 0,0 UV-I 0 W/m² 11,2 °C 12,1 °C 0,0 km/h (0 Bft)
03.08.2019 00:24 12,1 °C 94 % 1013,5 hPa 0,0 mm 0,0 km/h (0 Bft) N-NO 30 ° 0 min 0,000 mm 0,0 UV-I 0 W/m² 11,2 °C 12,1 °C 0,0 km/h (0 Bft)
03.08.2019 00:25 12,1 °C 94 % 1013,5 hPa 0,0 mm 0,0 km/h (0 Bft) N-NO 30 ° 0 min 0,000 mm 0,0 UV-I 0 W/m² 11,2 °C 12,1 °C 0,0 km/h (0 Bft)
03.08.2019 00:26 12,1 °C 94 % 1013,5 hPa 0,0 mm 0,0 km/h (0 Bft) N-NO 30 ° 0 min 0,000 mm 0,0 UV-I 0 W/m² 11,2 °C 12,1 °C 0,0 km/h (0 Bft)
03.08.2019 00:27 12,1 °C 94 % 1013,5 hPa 0,0 mm 0,9 km/h (0 Bft) N-NO 30 ° 0 min 0,000 mm 0,0 UV-I 0 W/m² 11,2 °C 12,1 °C 3,2 km/h (1 Bft)
03.08.2019 00:28 12,1 °C 94 % 1013,5 hPa 0,0 mm 0,8 km/h (0 Bft) N-NO 30 ° 0 min 0,000 mm 0,0 UV-I 0 W/m² 11,2 °C 12,1 °C 1,6 km/h (1 Bft)
03.08.2019 00:29 12,1 °C 94 % 1013,5 hPa 0,0 mm 0,0 km/h (0 Bft) N-NO 30 ° 0 min 0,000 mm 0,0 UV-I 0 W/m² 11,2 °C 12,1 °C 0,0 km/h (0 Bft)
03.08.2019 00:30 12,1 °C 94 % 1013,5 hPa 0,0 mm 0,0 km/h (0 Bft) N-NO 30 ° 0 min 0,000 mm 0,0 UV-I 0 W/m² 11,2 °C 12,1 °C 0,0 km/h (0 Bft)
03.08.2019 00:31 12,1 °C 94 % 1013,5 hPa 0,0 mm 0,0 km/h (0 Bft) N-NO 30 ° 0 min 0,000 mm 0,0 UV-I 0 W/m² 11,2 °C 12,1 °C 0,0 km/h (0 Bft)
03.08.2019 00:32 12,1 °C 94 % 1013,5 hPa 0,0 mm 0,0 km/h (0 Bft) N-NO 30 ° 0 min 0,000 mm 0,0 UV-I 0 W/m² 11,2 °C 12,1 °C 0,0 km/h (0 Bft)
03.08.2019 00:33 12,1 °C 94 % 1013,5 hPa 0,0 mm 0,0 km/h (0 Bft) N-NO 30 ° 0 min 0,000 mm 0,0 UV-I 0 W/m² 11,2 °C 12,1 °C 0,0 km/h (0 Bft)
03.08.2019 00:34 12,1 °C 94 % 1013,4 hPa 0,0 mm 0,0 km/h (0 Bft) N-NO 30 ° 0 min 0,000 mm 0,0 UV-I 0 W/m² 11,2 °C 12,1 °C 0,0 km/h (0 Bft)
03.08.2019 00:35 12,1 °C 94 % 1013,4 hPa 0,0 mm 0,0 km/h (0 Bft) N-NO 30 ° 0 min 0,000 mm 0,0 UV-I 0 W/m² 11,2 °C 12,1 °C 0,0 km/h (0 Bft)
03.08.2019 00:36 12,0 °C 94 % 1013,3 hPa 0,0 mm 0,0 km/h (0 Bft) N-NO 30 ° 0 min 0,000 mm 0,0 UV-I 0 W/m² 11,1 °C 12,0 °C 0,0 km/h (0 Bft)
03.08.2019 00:37 12,0 °C 94 % 1013,3 hPa 0,0 mm 0,0 km/h (0 Bft) N-NO 30 ° 0 min 0,000 mm 0,0 UV-I 0 W/m² 11,1 °C 12,0 °C 0,0 km/h (0 Bft)
03.08.2019 00:38 12,0 °C 94 % 1013,3 hPa 0,0 mm 0,0 km/h (0 Bft) N-NO 30 ° 0 min 0,000 mm 0,0 UV-I 0 W/m² 11,1 °C 12,0 °C 0,0 km/h (0 Bft)
03.08.2019 00:39 12,0 °C 94 % 1013,3 hPa 0,0 mm 0,6 km/h (0 Bft) N-NO 30 ° 0 min 0,000 mm 0,0 UV-I 0 W/m² 11,1 °C 12,0 °C 3,2 km/h (1 Bft)
03.08.2019 00:40 12,0 °C 94 % 1013,3 hPa 0,0 mm 0,0 km/h (0 Bft) N-NO 30 ° 0 min 0,000 mm 0,0 UV-I 0 W/m² 11,1 °C 12,0 °C 0,0 km/h (0 Bft)
03.08.2019 00:41 12,0 °C 94 % 1013,3 hPa 0,0 mm 0,0 km/h (0 Bft) N-NO 30 ° 0 min 0,000 mm 0,0 UV-I 0 W/m² 11,1 °C 12,0 °C 0,0 km/h (0 Bft)
03.08.2019 00:42 12,0 °C 94 % 1013,3 hPa 0,0 mm 0,0 km/h (0 Bft) N-NO 30 ° 0 min 0,000 mm 0,0 UV-I 0 W/m² 11,1 °C 12,0 °C 0,0 km/h (0 Bft)
03.08.2019 00:43 12,1 °C 94 % 1013,3 hPa 0,0 mm 0,0 km/h (0 Bft) N-NO 30 ° 0 min 0,000 mm 0,0 UV-I 0 W/m² 11,2 °C 12,1 °C 0,0 km/h (0 Bft)
03.08.2019 00:44 12,1 °C 94 % 1013,3 hPa 0,0 mm 0,0 km/h (0 Bft) N-NO 30 ° 0 min 0,000 mm 0,0 UV-I 0 W/m² 11,2 °C 12,1 °C 0,0 km/h (0 Bft)
03.08.2019 00:45 12,1 °C 94 % 1013,3 hPa 0,0 mm 0,0 km/h (0 Bft) N-NO 30 ° 0 min 0,000 mm 0,0 UV-I 0 W/m² 11,2 °C 12,1 °C 0,0 km/h (0 Bft)
03.08.2019 00:46 12,2 °C 94 % 1013,3 hPa 0,0 mm 0,0 km/h (0 Bft) N-NO 30 ° 0 min 0,000 mm 0,0 UV-I 0 W/m² 11,3 °C 12,2 °C 0,0 km/h (0 Bft)
03.08.2019 00:47 12,2 °C 94 % 1013,3 hPa 0,0 mm 0,0 km/h (0 Bft) N-NO 30 ° 0 min 0,000 mm 0,0 UV-I 0 W/m² 11,3 °C 12,2 °C 0,0 km/h (0 Bft)
03.08.2019 00:48 12,3 °C 94 % 1013,3 hPa 0,0 mm 0,0 km/h (0 Bft) N-NO 30 ° 0 min 0,000 mm 0,0 UV-I 0 W/m² 11,4 °C 12,3 °C 0,0 km/h (0 Bft)
03.08.2019 00:49 12,3 °C 94 % 1013,3 hPa 0,0 mm 0,0 km/h (0 Bft) N-NO 30 ° 0 min 0,000 mm 0,0 UV-I 0 W/m² 11,4 °C 12,3 °C 0,0 km/h (0 Bft)
03.08.2019 00:50 12,3 °C 94 % 1013,4 hPa 0,0 mm 0,0 km/h (0 Bft) N-NO 30 ° 0 min 0,000 mm 0,0 UV-I 0 W/m² 11,4 °C 12,3 °C 0,0 km/h (0 Bft)
03.08.2019 00:51 12,3 °C 94 % 1013,4 hPa 0,0 mm 0,0 km/h (0 Bft) N-NO 30 ° 0 min 0,000 mm 0,0 UV-I 0 W/m² 11,4 °C 12,3 °C 0,0 km/h (0 Bft)
03.08.2019 00:52 12,3 °C 94 % 1013,4 hPa 0,0 mm 0,0 km/h (0 Bft) N-NO 30 ° 0 min 0,000 mm 0,0 UV-I 0 W/m² 11,4 °C 12,3 °C 0,0 km/h (0 Bft)
03.08.2019 00:53 12,3 °C 94 % 1013,4 hPa 0,0 mm 0,0 km/h (0 Bft) N-NO 30 ° 0 min 0,000 mm 0,0 UV-I 0 W/m² 11,4 °C 12,3 °C 0,0 km/h (0 Bft)
03.08.2019 00:54 12,3 °C 94 % 1013,4 hPa 0,0 mm 0,0 km/h (0 Bft) N-NO 30 ° 0 min 0,000 mm 0,0 UV-I 0 W/m² 11,4 °C 12,3 °C 0,0 km/h (0 Bft)
03.08.2019 00:55 12,4 °C 94 % 1013,4 hPa 0,0 mm 0,0 km/h (0 Bft) N-NO 30 ° 0 min 0,000 mm 0,0 UV-I 0 W/m² 11,5 °C 12,4 °C 0,0 km/h (0 Bft)
03.08.2019 00:56 12,4 °C 94 % 1013,4 hPa 0,0 mm 0,0 km/h (0 Bft) N-NO 30 ° 0 min 0,000 mm 0,0 UV-I 0 W/m² 11,5 °C 12,4 °C 0,0 km/h (0 Bft)
03.08.2019 00:57 12,4 °C 94 % 1013,4 hPa 0,0 mm 0,0 km/h (0 Bft) N-NO 30 ° 0 min 0,000 mm 0,0 UV-I 0 W/m² 11,5 °C 12,4 °C 0,0 km/h (0 Bft)
03.08.2019 00:58 12,5 °C 94 % 1013,4 hPa 0,0 mm 0,0 km/h (0 Bft) N-NO 30 ° 0 min 0,000 mm 0,0 UV-I 0 W/m² 11,6 °C 12,5 °C 0,0 km/h (0 Bft)
03.08.2019 00:59 12,5 °C 94 % 1013,4 hPa 0,0 mm 0,0 km/h (0 Bft) N-NO 30 ° 0 min 0,000 mm 0,0 UV-I 0 W/m² 11,6 °C 12,5 °C 0,0 km/h (0 Bft)
03.08.2019 01:00 12,5 °C 94 % 1013,4 hPa 0,0 mm 0,0 km/h (0 Bft) N-NO 30 ° 0 min 0,000 mm 0,0 UV-I 0 W/m² 11,6 °C 12,5 °C 0,0 km/h (0 Bft)
03.08.2019 01:01 12,6 °C 94 % 1013,4 hPa 0,0 mm 0,0 km/h (0 Bft) N-NO 30 ° 0 min 0,000 mm 0,0 UV-I 0 W/m² 11,7 °C 12,6 °C 0,0 km/h (0 Bft)
03.08.2019 01:02 12,6 °C 94 % 1013,4 hPa 0,0 mm 0,1 km/h (0 Bft) N-NO 30 ° 0 min 0,000 mm 0,0 UV-I 0 W/m² 11,7 °C 12,6 °C 1,6 km/h (1 Bft)
03.08.2019 01:03 12,6 °C 94 % 1013,4 hPa 0,0 mm 0,4 km/h (0 Bft) N-NO 30 ° 0 min 0,000 mm 0,0 UV-I 0 W/m² 11,7 °C 12,6 °C 1,6 km/h (1 Bft)
03.08.2019 01:04 12,5 °C 94 % 1013,4 hPa 0,0 mm 0,1 km/h (0 Bft) N-NO 30 ° 0 min 0,000 mm 0,0 UV-I 0 W/m² 11,6 °C 12,5 °C 1,6 km/h (1 Bft)
03.08.2019 01:05 12,5 °C 94 % 1013,4 hPa 0,0 mm 0,0 km/h (0 Bft) N-NO 30 ° 0 min 0,000 mm 0,0 UV-I 0 W/m² 11,6 °C 12,5 °C 0,0 km/h (0 Bft)
03.08.2019 01:06 12,6 °C 94 % 1013,4 hPa 0,0 mm 0,0 km/h (0 Bft) N-NO 30 ° 0 min 0,000 mm 0,0 UV-I 0 W/m² 11,7 °C 12,6 °C 0,0 km/h (0 Bft)
03.08.2019 01:07 12,5 °C 94 % 1013,4 hPa 0,0 mm 0,0 km/h (0 Bft) N-NO 30 ° 0 min 0,000 mm 0,0 UV-I 0 W/m² 11,6 °C 12,5 °C 0,0 km/h (0 Bft)
03.08.2019 01:08 12,6 °C 94 % 1013,3 hPa 0,0 mm 0,0 km/h (0 Bft) N-NO 30 ° 0 min 0,000 mm 0,0 UV-I 0 W/m² 11,7 °C 12,6 °C 0,0 km/h (0 Bft)
03.08.2019 01:09 12,6 °C 94 % 1013,4 hPa 0,0 mm 0,0 km/h (0 Bft) N-NO 30 ° 0 min 0,000 mm 0,0 UV-I 0 W/m² 11,7 °C 12,6 °C 0,0 km/h (0 Bft)
03.08.2019 01:10 12,6 °C 94 % 1013,3 hPa 0,0 mm 0,0 km/h (0 Bft) N-NO 30 ° 0 min 0,000 mm 0,0 UV-I 0 W/m² 11,7 °C 12,6 °C 0,0 km/h (0 Bft)
03.08.2019 01:11 12,6 °C 94 % 1013,3 hPa 0,0 mm 0,0 km/h (0 Bft) N-NO 30 ° 0 min 0,000 mm 0,0 UV-I 0 W/m² 11,7 °C 12,6 °C 0,0 km/h (0 Bft)
03.08.2019 01:12 12,6 °C 94 % 1013,3 hPa 0,0 mm 0,1 km/h (0 Bft) N-NO 30 ° 0 min 0,000 mm 0,0 UV-I 0 W/m² 11,7 °C 12,6 °C 1,6 km/h (1 Bft)
03.08.2019 01:13 12,6 °C 94 % 1013,3 hPa 0,0 mm 0,1 km/h (0 Bft) N-NO 30 ° 0 min 0,000 mm 0,0 UV-I 0 W/m² 11,7 °C 12,6 °C 1,6 km/h (1 Bft)
03.08.2019 01:14 12,6 °C 94 % 1013,3 hPa 0,0 mm 0,0 km/h (0 Bft) N-NO 30 ° 0 min 0,000 mm 0,0 UV-I 0 W/m² 11,7 °C 12,6 °C 0,0 km/h (0 Bft)
03.08.2019 01:15 12,6 °C 94 % 1013,4 hPa 0,0 mm 0,0 km/h (0 Bft) N-NO 30 ° 0 min 0,000 mm 0,0 UV-I 0 W/m² 11,7 °C 12,6 °C 0,0 km/h (0 Bft)
03.08.2019 01:16 12,6 °C 94 % 1013,3 hPa 0,0 mm 0,0 km/h (0 Bft) N-NO 30 ° 0 min 0,000 mm 0,0 UV-I 0 W/m² 11,7 °C 12,6 °C 0,0 km/h (0 Bft)
03.08.2019 01:17 12,6 °C 94 % 1013,3 hPa 0,0 mm 0,0 km/h (0 Bft) N-NO 30 ° 0 min 0,000 mm 0,0 UV-I 0 W/m² 11,7 °C 12,6 °C 0,0 km/h (0 Bft)
03.08.2019 01:18 12,6 °C 94 % 1013,3 hPa 0,0 mm 0,0 km/h (0 Bft) N-NO 30 ° 0 min 0,000 mm 0,0 UV-I 0 W/m² 11,7 °C 12,6 °C 0,0 km/h (0 Bft)
03.08.2019 01:19 12,6 °C 94 % 1013,3 hPa 0,0 mm 0,0 km/h (0 Bft) N-NO 30 ° 0 min 0,000 mm 0,0 UV-I 0 W/m² 11,7 °C 12,6 °C 0,0 km/h (0 Bft)
03.08.2019 01:20 12,6 °C 94 % 1013,3 hPa 0,0 mm 0,0 km/h (0 Bft) N-NO 30 ° 0 min 0,000 mm 0,0 UV-I 0 W/m² 11,7 °C 12,6 °C 0,0 km/h (0 Bft)
03.08.2019 01:21 12,6 °C 94 % 1013,3 hPa 0,0 mm 0,0 km/h (0 Bft) N-NO 30 ° 0 min 0,000 mm 0,0 UV-I 0 W/m² 11,7 °C 12,6 °C 0,0 km/h (0 Bft)
03.08.2019 01:22 12,6 °C 94 % 1013,3 hPa 0,0 mm 0,0 km/h (0 Bft) N-NO 30 ° 0 min 0,000 mm 0,0 UV-I 0 W/m² 11,7 °C 12,6 °C 0,0 km/h (0 Bft)
03.08.2019 01:23 12,6 °C 94 % 1013,3 hPa 0,0 mm 0,2 km/h (0 Bft) NW 317 ° 0 min 0,000 mm 0,0 UV-I 0 W/m² 11,7 °C 12,6 °C 3,2 km/h (1 Bft)
03.08.2019 01:24 12,6 °C 94 % 1013,2 hPa 0,0 mm 1,1 km/h (1 Bft) NW 309 ° 0 min 0,000 mm 0,0 UV-I 0 W/m² 11,7 °C 12,6 °C 3,2 km/h (1 Bft)
03.08.2019 01:25 12,6 °C 94 % 1013,2 hPa 0,0 mm 0,6 km/h (0 Bft) NW 309 ° 0 min 0,000 mm 0,0 UV-I 0 W/m² 11,7 °C 12,6 °C 3,2 km/h (1 Bft)
03.08.2019 01:26 12,6 °C 94 % 1013,2 hPa 0,0 mm 0,0 km/h (0 Bft) NW 309 ° 0 min 0,000 mm 0,0 UV-I 0 W/m² 11,7 °C 12,6 °C 0,0 km/h (0 Bft)
03.08.2019 01:27 12,6 °C 94 % 1013,2 hPa 0,0 mm 0,0 km/h (0 Bft) NW 309 ° 0 min 0,000 mm 0,0 UV-I 0 W/m² 11,7 °C 12,6 °C 0,0 km/h (0 Bft)
03.08.2019 01:28 12,6 °C 94 % 1013,2 hPa 0,0 mm 0,0 km/h (0 Bft) NW 309 ° 0 min 0,000 mm 0,0 UV-I 0 W/m² 11,7 °C 12,6 °C 0,0 km/h (0 Bft)
03.08.2019 01:29 12,6 °C 94 % 1013,1 hPa 0,0 mm 0,0 km/h (0 Bft) NW 309 ° 0 min 0,000 mm 0,0 UV-I 0 W/m² 11,7 °C 12,6 °C 0,0 km/h (0 Bft)
03.08.2019 01:30 12,6 °C 94 % 1013,1 hPa 0,0 mm 0,0 km/h (0 Bft) NW 309 ° 0 min 0,000 mm 0,0 UV-I 0 W/m² 11,7 °C 12,6 °C 0,0 km/h (0 Bft)
03.08.2019 01:31 12,6 °C 94 % 1013,1 hPa 0,0 mm 0,0 km/h (0 Bft) NW 309 ° 0 min 0,000 mm 0,0 UV-I 0 W/m² 11,7 °C 12,6 °C 0,0 km/h (0 Bft)
03.08.2019 01:32 12,6 °C 94 % 1013,1 hPa 0,0 mm 0,0 km/h (0 Bft) NW 309 ° 0 min 0,000 mm 0,0 UV-I 0 W/m² 11,7 °C 12,6 °C 0,0 km/h (0 Bft)
03.08.2019 01:33 12,6 °C 94 % 1013,2 hPa 0,0 mm 0,0 km/h (0 Bft) NW 309 ° 0 min 0,000 mm 0,0 UV-I 0 W/m² 11,7 °C 12,6 °C 0,0 km/h (0 Bft)
03.08.2019 01:34 12,6 °C 94 % 1013,1 hPa 0,0 mm 0,0 km/h (0 Bft) NW 309 ° 0 min 0,000 mm 0,0 UV-I 0 W/m² 11,7 °C 12,6 °C 0,0 km/h (0 Bft)
03.08.2019 01:35 12,6 °C 94 % 1013,2 hPa 0,0 mm 0,0 km/h (0 Bft) NW 309 ° 0 min 0,000 mm 0,0 UV-I 0 W/m² 11,7 °C 12,6 °C 0,0 km/h (0 Bft)
03.08.2019 01:36 12,6 °C 94 % 1013,1 hPa 0,0 mm 0,0 km/h (0 Bft) NW 309 ° 0 min 0,000 mm 0,0 UV-I 0 W/m² 11,7 °C 12,6 °C 0,0 km/h (0 Bft)
03.08.2019 01:37 12,6 °C 94 % 1013,2 hPa 0,0 mm 0,0 km/h (0 Bft) NW 309 ° 0 min 0,000 mm 0,0 UV-I 0 W/m² 11,7 °C 12,6 °C 0,0 km/h (0 Bft)
03.08.2019 01:38 12,6 °C 94 % 1013,2 hPa 0,0 mm 0,0 km/h (0 Bft) NW 309 ° 0 min 0,000 mm 0,0 UV-I 0 W/m² 11,7 °C 12,6 °C 0,0 km/h (0 Bft)
03.08.2019 01:39 12,6 °C 94 % 1013,3 hPa 0,0 mm 0,0 km/h (0 Bft) NW 309 ° 0 min 0,000 mm 0,0 UV-I 0 W/m² 11,7 °C 12,6 °C 0,0 km/h (0 Bft)
03.08.2019 01:40 12,6 °C 94 % 1013,3 hPa 0,0 mm 0,0 km/h (0 Bft) NW 309 ° 0 min 0,000 mm 0,0 UV-I 0 W/m² 11,7 °C 12,6 °C 0,0 km/h (0 Bft)
03.08.2019 01:41 12,6 °C 94 % 1013,2 hPa 0,0 mm 0,0 km/h (0 Bft) NW 309 ° 0 min 0,000 mm 0,0 UV-I 0 W/m² 11,7 °C 12,6 °C 0,0 km/h (0 Bft)
03.08.2019 01:42 12,6 °C 94 % 1013,2 hPa 0,0 mm 0,0 km/h (0 Bft) NW 309 ° 0 min 0,000 mm 0,0 UV-I 0 W/m² 11,7 °C 12,6 °C 0,0 km/h (0 Bft)
03.08.2019 01:43 12,6 °C 94 % 1013,3 hPa 0,0 mm 0,0 km/h (0 Bft) NW 309 ° 0 min 0,000 mm 0,0 UV-I 0 W/m² 11,7 °C 12,6 °C 0,0 km/h (0 Bft)
03.08.2019 01:44 12,6 °C 94 % 1013,3 hPa 0,0 mm 0,0 km/h (0 Bft) NW 309 ° 0 min 0,000 mm 0,0 UV-I 0 W/m² 11,7 °C 12,6 °C 0,0 km/h (0 Bft)
03.08.2019 01:45 12,6 °C 94 % 1013,2 hPa 0,0 mm 0,0 km/h (0 Bft) NW 309 ° 0 min 0,000 mm 0,0 UV-I 0 W/m² 11,7 °C 12,6 °C 0,0 km/h (0 Bft)
03.08.2019 01:46 12,6 °C 94 % 1013,2 hPa 0,0 mm 0,0 km/h (0 Bft) NW 309 ° 0 min 0,000 mm 0,0 UV-I 0 W/m² 11,7 °C 12,6 °C 0,0 km/h (0 Bft)
03.08.2019 01:47 12,5 °C 94 % 1013,2 hPa 0,0 mm 0,0 km/h (0 Bft) NW 309 ° 0 min 0,000 mm 0,0 UV-I 0 W/m² 11,6 °C 12,5 °C 0,0 km/h (0 Bft)
03.08.2019 01:48 12,5 °C 94 % 1013,2 hPa 0,0 mm 0,0 km/h (0 Bft) NW 309 ° 0 min 0,000 mm 0,0 UV-I 0 W/m² 11,6 °C 12,5 °C 0,0 km/h (0 Bft)
03.08.2019 01:49 12,5 °C 94 % 1013,2 hPa 0,0 mm 0,0 km/h (0 Bft) NW 309 ° 0 min 0,000 mm 0,0 UV-I 0 W/m² 11,6 °C 12,5 °C 0,0 km/h (0 Bft)
03.08.2019 01:50 12,5 °C 94 % 1013,2 hPa 0,0 mm 0,0 km/h (0 Bft) NW 309 ° 0 min 0,000 mm 0,0 UV-I 0 W/m² 11,6 °C 12,5 °C 0,0 km/h (0 Bft)
03.08.2019 01:51 12,5 °C 94 % 1013,2 hPa 0,0 mm 0,0 km/h (0 Bft) NW 309 ° 0 min 0,000 mm 0,0 UV-I 0 W/m² 11,6 °C 12,5 °C 0,0 km/h (0 Bft)
03.08.2019 01:52 12,5 °C 94 % 1013,2 hPa 0,0 mm 0,0 km/h (0 Bft) NW 309 ° 0 min 0,000 mm 0,0 UV-I 0 W/m² 11,6 °C 12,5 °C 0,0 km/h (0 Bft)
03.08.2019 01:53 12,5 °C 94 % 1013,2 hPa 0,0 mm 1,1 km/h (1 Bft) NW 309 ° 0 min 0,000 mm 0,0 UV-I 0 W/m² 11,6 °C 12,5 °C 3,2 km/h (1 Bft)
03.08.2019 01:54 12,5 °C 94 % 1013,2 hPa 0,0 mm 0,0 km/h (0 Bft) NW 309 ° 0 min 0,000 mm 0,0 UV-I 0 W/m² 11,6 °C 12,5 °C 0,0 km/h (0 Bft)
03.08.2019 01:55 12,5 °C 94 % 1013,2 hPa 0,0 mm 0,0 km/h (0 Bft) NW 309 ° 0 min 0,000 mm 0,0 UV-I 0 W/m² 11,6 °C 12,5 °C 0,0 km/h (0 Bft)
03.08.2019 01:56 12,5 °C 94 % 1013,1 hPa 0,0 mm 1,7 km/h (1 Bft) NW 309 ° 0 min 0,000 mm 0,0 UV-I 0 W/m² 11,6 °C 12,5 °C 3,2 km/h (1 Bft)
03.08.2019 01:57 12,6 °C 94 % 1013,1 hPa 0,0 mm 0,5 km/h (0 Bft) NW 309 ° 0 min 0,000 mm 0,0 UV-I 0 W/m² 11,7 °C 12,6 °C 1,6 km/h (1 Bft)
03.08.2019 01:58 12,6 °C 94 % 1013,1 hPa 0,0 mm 0,0 km/h (0 Bft) NW 309 ° 0 min 0,000 mm 0,0 UV-I 0 W/m² 11,7 °C 12,6 °C 0,0 km/h (0 Bft)
03.08.2019 01:59 12,6 °C 94 % 1013,2 hPa 0,0 mm 0,0 km/h (0 Bft) NW 309 ° 0 min 0,000 mm 0,0 UV-I 0 W/m² 11,7 °C 12,6 °C 0,0 km/h (0 Bft)
03.08.2019 02:00 12,6 °C 94 % 1013,2 hPa 0,0 mm 0,0 km/h (0 Bft) NW 309 ° 0 min 0,000 mm 0,0 UV-I 0 W/m² 11,7 °C 12,6 °C 0,0 km/h (0 Bft)
03.08.2019 02:01 12,6 °C 94 % 1013,2 hPa 0,0 mm 0,0 km/h (0 Bft) NW 309 ° 0 min 0,000 mm 0,0 UV-I 0 W/m² 11,7 °C 12,6 °C 0,0 km/h (0 Bft)
03.08.2019 02:02 12,6 °C 94 % 1013,1 hPa 0,0 mm 0,0 km/h (0 Bft) NW 309 ° 0 min 0,000 mm 0,0 UV-I 0 W/m² 11,7 °C 12,6 °C 0,0 km/h (0 Bft)
03.08.2019 02:03 12,6 °C 94 % 1013,2 hPa 0,0 mm 0,0 km/h (0 Bft) NW 309 ° 0 min 0,000 mm 0,0 UV-I 0 W/m² 11,7 °C 12,6 °C 0,0 km/h (0 Bft)
03.08.2019 02:04 12,6 °C 94 % 1013,2 hPa 0,0 mm 0,0 km/h (0 Bft) NW 309 ° 0 min 0,000 mm 0,0 UV-I 0 W/m² 11,7 °C 12,6 °C 0,0 km/h (0 Bft)
03.08.2019 02:05 12,6 °C 94 % 1013,2 hPa 0,0 mm 0,0 km/h (0 Bft) NW 309 ° 0 min 0,000 mm 0,0 UV-I 0 W/m² 11,7 °C 12,6 °C 0,0 km/h (0 Bft)
03.08.2019 02:06 12,6 °C 94 % 1013,2 hPa 0,0 mm 0,0 km/h (0 Bft) NW 309 ° 0 min 0,000 mm 0,0 UV-I 0 W/m² 11,7 °C 12,6 °C 0,0 km/h (0 Bft)
03.08.2019 02:07 12,6 °C 94 % 1013,2 hPa 0,0 mm 0,0 km/h (0 Bft) NW 309 ° 0 min 0,000 mm 0,0 UV-I 0 W/m² 11,7 °C 12,6 °C 0,0 km/h (0 Bft)
03.08.2019 02:08 12,6 °C 94 % 1013,2 hPa 0,0 mm 0,0 km/h (0 Bft) NW 309 ° 0 min 0,000 mm 0,0 UV-I 0 W/m² 11,7 °C 12,6 °C 0,0 km/h (0 Bft)
03.08.2019 02:09 12,6 °C 94 % 1013,1 hPa 0,0 mm 0,0 km/h (0 Bft) NW 309 ° 0 min 0,000 mm 0,0 UV-I 0 W/m² 11,7 °C 12,6 °C 0,0 km/h (0 Bft)
03.08.2019 02:10 12,5 °C 94 % 1013,1 hPa 0,0 mm 0,0 km/h (0 Bft) NW 309 ° 0 min 0,000 mm 0,0 UV-I 0 W/m² 11,6 °C 12,5 °C 0,0 km/h (0 Bft)
03.08.2019 02:11 12,5 °C 94 % 1013,1 hPa 0,0 mm 0,0 km/h (0 Bft) NW 309 ° 0 min 0,000 mm 0,0 UV-I 0 W/m² 11,6 °C 12,5 °C 0,0 km/h (0 Bft)
03.08.2019 02:12 12,4 °C 94 % 1013,1 hPa 0,0 mm 0,0 km/h (0 Bft) NW 309 ° 0 min 0,000 mm 0,0 UV-I 0 W/m² 11,5 °C 12,4 °C 0,0 km/h (0 Bft)
03.08.2019 02:13 12,5 °C 94 % 1013,1 hPa 0,0 mm 0,0 km/h (0 Bft) NW 309 ° 0 min 0,000 mm 0,0 UV-I 0 W/m² 11,6 °C 12,5 °C 0,0 km/h (0 Bft)
03.08.2019 02:14 12,4 °C 94 % 1013,1 hPa 0,0 mm 0,0 km/h (0 Bft) NW 309 ° 0 min 0,000 mm 0,0 UV-I 0 W/m² 11,5 °C 12,4 °C 0,0 km/h (0 Bft)
03.08.2019 02:15 12,4 °C 94 % 1013,1 hPa 0,0 mm 0,0 km/h (0 Bft) NW 309 ° 0 min 0,000 mm 0,0 UV-I 0 W/m² 11,5 °C 12,4 °C 0,0 km/h (0 Bft)
03.08.2019 02:16 12,4 °C 94 % 1013,1 hPa 0,0 mm 0,0 km/h (0 Bft) NW 309 ° 0 min 0,000 mm 0,0 UV-I 0 W/m² 11,5 °C 12,4 °C 0,0 km/h (0 Bft)
03.08.2019 02:17 12,4 °C 94 % 1013,1 hPa 0,0 mm 0,0 km/h (0 Bft) NW 309 ° 0 min 0,000 mm 0,0 UV-I 0 W/m² 11,5 °C 12,4 °C 0,0 km/h (0 Bft)
03.08.2019 02:18 12,4 °C 94 % 1013,1 hPa 0,0 mm 0,0 km/h (0 Bft) NW 309 ° 0 min 0,000 mm 0,0 UV-I 0 W/m² 11,5 °C 12,4 °C 0,0 km/h (0 Bft)
03.08.2019 02:19 12,4 °C 94 % 1013,1 hPa 0,0 mm 0,0 km/h (0 Bft) NW 309 ° 0 min 0,000 mm 0,0 UV-I 0 W/m² 11,5 °C 12,4 °C 0,0 km/h (0 Bft)
03.08.2019 02:20 12,4 °C 94 % 1013,1 hPa 0,0 mm 0,0 km/h (0 Bft) NW 309 ° 0 min 0,000 mm 0,0 UV-I 0 W/m² 11,5 °C 12,4 °C 0,0 km/h (0 Bft)
03.08.2019 02:21 12,4 °C 94 % 1013,1 hPa 0,0 mm 0,0 km/h (0 Bft) NW 309 ° 0 min 0,000 mm 0,0 UV-I 0 W/m² 11,5 °C 12,4 °C 0,0 km/h (0 Bft)
03.08.2019 02:22 12,4 °C 94 % 1013,1 hPa 0,0 mm 0,0 km/h (0 Bft) NW 309 ° 0 min 0,000 mm 0,0 UV-I 0 W/m² 11,5 °C 12,4 °C 0,0 km/h (0 Bft)
03.08.2019 02:23 12,4 °C 94 % 1013,1 hPa 0,0 mm 0,0 km/h (0 Bft) NW 309 ° 0 min 0,000 mm 0,0 UV-I 0 W/m² 11,5 °C 12,4 °C 0,0 km/h (0 Bft)
03.08.2019 02:24 12,4 °C 94 % 1013,1 hPa 0,0 mm 0,0 km/h (0 Bft) NW 309 ° 0 min 0,000 mm 0,0 UV-I 0 W/m² 11,5 °C 12,4 °C 0,0 km/h (0 Bft)
03.08.2019 02:25 12,4 °C 94 % 1013,1 hPa 0,0 mm 0,0 km/h (0 Bft) NW 309 ° 0 min 0,000 mm 0,0 UV-I 0 W/m² 11,5 °C 12,4 °C 0,0 km/h (0 Bft)
03.08.2019 02:26 12,4 °C 94 % 1013,0 hPa 0,0 mm 0,0 km/h (0 Bft) NW 309 ° 0 min 0,000 mm 0,0 UV-I 0 W/m² 11,5 °C 12,4 °C 0,0 km/h (0 Bft)
03.08.2019 02:27 12,4 °C 94 % 1013,0 hPa 0,0 mm 0,0 km/h (0 Bft) NW 309 ° 0 min 0,000 mm 0,0 UV-I 0 W/m² 11,5 °C 12,4 °C 0,0 km/h (0 Bft)
03.08.2019 02:28 12,4 °C 94 % 1013,0 hPa 0,0 mm 0,0 km/h (0 Bft) NW 309 ° 0 min 0,000 mm 0,0 UV-I 0 W/m² 11,5 °C 12,4 °C 0,0 km/h (0 Bft)
03.08.2019 02:29 12,4 °C 94 % 1013,0 hPa 0,0 mm 0,0 km/h (0 Bft) NW 309 ° 0 min 0,000 mm 0,0 UV-I 0 W/m² 11,5 °C 12,4 °C 0,0 km/h (0 Bft)
03.08.2019 02:30 12,3 °C 94 % 1013,0 hPa 0,0 mm 0,0 km/h (0 Bft) NW 309 ° 0 min 0,000 mm 0,0 UV-I 0 W/m² 11,4 °C 12,3 °C 0,0 km/h (0 Bft)
03.08.2019 02:31 12,3 °C 94 % 1013,0 hPa 0,0 mm 0,0 km/h (0 Bft) NW 309 ° 0 min 0,000 mm 0,0 UV-I 0 W/m² 11,4 °C 12,3 °C 0,0 km/h (0 Bft)
03.08.2019 02:32 12,3 °C 94 % 1013,0 hPa 0,0 mm 0,0 km/h (0 Bft) NW 309 ° 0 min 0,000 mm 0,0 UV-I 0 W/m² 11,4 °C 12,3 °C 0,0 km/h (0 Bft)
03.08.2019 02:33 12,3 °C 94 % 1012,9 hPa 0,0 mm 0,0 km/h (0 Bft) NW 309 ° 0 min 0,000 mm 0,0 UV-I 0 W/m² 11,4 °C 12,3 °C 0,0 km/h (0 Bft)
03.08.2019 02:34 12,3 °C 94 % 1012,9 hPa 0,0 mm 0,0 km/h (0 Bft) NW 309 ° 0 min 0,000 mm 0,0 UV-I 0 W/m² 11,4 °C 12,3 °C 0,0 km/h (0 Bft)
03.08.2019 02:35 12,3 °C 94 % 1012,9 hPa 0,0 mm 0,0 km/h (0 Bft) NW 309 ° 0 min 0,000 mm 0,0 UV-I 0 W/m² 11,4 °C 12,3 °C 0,0 km/h (0 Bft)
03.08.2019 02:36 12,3 °C 94 % 1012,9 hPa 0,0 mm 0,0 km/h (0 Bft) NW 309 ° 0 min 0,000 mm 0,0 UV-I 0 W/m² 11,4 °C 12,3 °C 0,0 km/h (0 Bft)
03.08.2019 02:37 12,3 °C 94 % 1012,9 hPa 0,0 mm 0,0 km/h (0 Bft) NW 309 ° 0 min 0,000 mm 0,0 UV-I 0 W/m² 11,4 °C 12,3 °C 0,0 km/h (0 Bft)
03.08.2019 02:38 12,3 °C 94 % 1012,9 hPa 0,0 mm 0,0 km/h (0 Bft) NW 309 ° 0 min 0,000 mm 0,0 UV-I 0 W/m² 11,4 °C 12,3 °C 0,0 km/h (0 Bft)
03.08.2019 02:39 12,2 °C 94 % 1012,9 hPa 0,0 mm 0,0 km/h (0 Bft) NW 309 ° 0 min 0,000 mm 0,0 UV-I 0 W/m² 11,3 °C 12,2 °C 0,0 km/h (0 Bft)
03.08.2019 02:40 12,2 °C 94 % 1012,9 hPa 0,0 mm 0,0 km/h (0 Bft) NW 309 ° 0 min 0,000 mm 0,0 UV-I 0 W/m² 11,3 °C 12,2 °C 0,0 km/h (0 Bft)
03.08.2019 02:41 12,2 °C 94 % 1012,9 hPa 0,0 mm 0,0 km/h (0 Bft) NW 309 ° 0 min 0,000 mm 0,0 UV-I 0 W/m² 11,3 °C 12,2 °C 0,0 km/h (0 Bft)
03.08.2019 02:42 12,2 °C 94 % 1012,9 hPa 0,0 mm 0,0 km/h (0 Bft) NW 309 ° 0 min 0,000 mm 0,0 UV-I 0 W/m² 11,3 °C 12,2 °C 0,0 km/h (0 Bft)
03.08.2019 02:43 12,2 °C 94 % 1012,9 hPa 0,0 mm 0,0 km/h (0 Bft) NW 309 ° 0 min 0,000 mm 0,0 UV-I 0 W/m² 11,3 °C 12,2 °C 0,0 km/h (0 Bft)
03.08.2019 02:44 12,1 °C 94 % 1012,9 hPa 0,0 mm 0,0 km/h (0 Bft) NW 309 ° 0 min 0,000 mm 0,0 UV-I 0 W/m² 11,2 °C 12,1 °C 0,0 km/h (0 Bft)
03.08.2019 02:45 12,1 °C 94 % 1013,0 hPa 0,0 mm 0,0 km/h (0 Bft) NW 309 ° 0 min 0,000 mm 0,0 UV-I 0 W/m² 11,2 °C 12,1 °C 0,0 km/h (0 Bft)
03.08.2019 02:46 12,2 °C 94 % 1013,0 hPa 0,0 mm 0,0 km/h (0 Bft) NW 309 ° 0 min 0,000 mm 0,0 UV-I 0 W/m² 11,3 °C 12,2 °C 0,0 km/h (0 Bft)
03.08.2019 02:47 12,2 °C 94 % 1012,9 hPa 0,0 mm 0,0 km/h (0 Bft) NW 309 ° 0 min 0,000 mm 0,0 UV-I 0 W/m² 11,3 °C 12,2 °C 0,0 km/h (0 Bft)
03.08.2019 02:48 12,1 °C 94 % 1013,0 hPa 0,0 mm 0,0 km/h (0 Bft) NW 309 ° 0 min 0,000 mm 0,0 UV-I 0 W/m² 11,2 °C 12,1 °C 0,0 km/h (0 Bft)
03.08.2019 02:49 12,1 °C 94 % 1013,0 hPa 0,0 mm 0,0 km/h (0 Bft) NW 309 ° 0 min 0,000 mm 0,0 UV-I 0 W/m² 11,2 °C 12,1 °C 0,0 km/h (0 Bft)
03.08.2019 02:50 12,1 °C 94 % 1012,9 hPa 0,0 mm 0,0 km/h (0 Bft) NW 309 ° 0 min 0,000 mm 0,0 UV-I 0 W/m² 11,2 °C 12,1 °C 0,0 km/h (0 Bft)
03.08.2019 02:51 12,1 °C 94 % 1012,9 hPa 0,0 mm 0,0 km/h (0 Bft) NW 309 ° 0 min 0,000 mm 0,0 UV-I 0 W/m² 11,2 °C 12,1 °C 0,0 km/h (0 Bft)
03.08.2019 02:52 12,1 °C 94 % 1013,0 hPa 0,0 mm 0,0 km/h (0 Bft) NW 309 ° 0 min 0,000 mm 0,0 UV-I 0 W/m² 11,2 °C 12,1 °C 0,0 km/h (0 Bft)
03.08.2019 02:53 12,1 °C 94 % 1012,9 hPa 0,0 mm 0,0 km/h (0 Bft) NW 309 ° 0 min 0,000 mm 0,0 UV-I 0 W/m² 11,2 °C 12,1 °C 0,0 km/h (0 Bft)
03.08.2019 02:54 12,1 °C 94 % 1012,9 hPa 0,0 mm 0,0 km/h (0 Bft) NW 309 ° 0 min 0,000 mm 0,0 UV-I 0 W/m² 11,2 °C 12,1 °C 0,0 km/h (0 Bft)
03.08.2019 02:55 12,1 °C 94 % 1012,9 hPa 0,0 mm 0,0 km/h (0 Bft) NW 309 ° 0 min 0,000 mm 0,0 UV-I 0 W/m² 11,2 °C 12,1 °C 0,0 km/h (0 Bft)
03.08.2019 02:56 12,1 °C 94 % 1012,9 hPa 0,0 mm 0,0 km/h (0 Bft) NW 309 ° 0 min 0,000 mm 0,0 UV-I 0 W/m² 11,2 °C 12,1 °C 0,0 km/h (0 Bft)
03.08.2019 02:57 12,1 °C 94 % 1012,9 hPa 0,0 mm 0,0 km/h (0 Bft) NW 309 ° 0 min 0,000 mm 0,0 UV-I 0 W/m² 11,2 °C 12,1 °C 0,0 km/h (0 Bft)
03.08.2019 02:58 12,1 °C 94 % 1012,9 hPa 0,0 mm 0,0 km/h (0 Bft) NW 309 ° 0 min 0,000 mm 0,0 UV-I 0 W/m² 11,2 °C 12,1 °C 0,0 km/h (0 Bft)
03.08.2019 02:59 12,1 °C 94 % 1012,9 hPa 0,0 mm 0,0 km/h (0 Bft) NW 309 ° 0 min 0,000 mm 0,0 UV-I 0 W/m² 11,2 °C 12,1 °C 0,0 km/h (0 Bft)
03.08.2019 03:00 11,9 °C 94 % 1012,9 hPa 0,0 mm 0,0 km/h (0 Bft) NW 309 ° 0 min 0,000 mm 0,0 UV-I 0 W/m² 11,0 °C 11,9 °C 0,0 km/h (0 Bft)
03.08.2019 03:01 11,9 °C 94 % 1012,9 hPa 0,0 mm 0,0 km/h (0 Bft) NW 309 ° 0 min 0,000 mm 0,0 UV-I 0 W/m² 11,0 °C 11,9 °C 0,0 km/h (0 Bft)
03.08.2019 03:02 11,9 °C 94 % 1012,9 hPa 0,0 mm 0,0 km/h (0 Bft) NW 309 ° 0 min 0,000 mm 0,0 UV-I 0 W/m² 11,0 °C 11,9 °C 0,0 km/h (0 Bft)
03.08.2019 03:03 11,9 °C 94 % 1012,9 hPa 0,0 mm 0,0 km/h (0 Bft) NW 309 ° 0 min 0,000 mm 0,0 UV-I 0 W/m² 11,0 °C 11,9 °C 0,0 km/h (0 Bft)
03.08.2019 03:04 11,8 °C 94 % 1012,9 hPa 0,0 mm 0,0 km/h (0 Bft) NW 309 ° 0 min 0,000 mm 0,0 UV-I 0 W/m² 10,9 °C 11,8 °C 0,0 km/h (0 Bft)
03.08.2019 03:05 11,8 °C 94 % 1012,9 hPa 0,0 mm 0,0 km/h (0 Bft) NW 309 ° 0 min 0,000 mm 0,0 UV-I 0 W/m² 10,9 °C 11,8 °C 0,0 km/h (0 Bft)
03.08.2019 03:06 11,7 °C 94 % 1012,9 hPa 0,0 mm 0,0 km/h (0 Bft) NW 309 ° 0 min 0,000 mm 0,0 UV-I 0 W/m² 10,8 °C 11,7 °C 0,0 km/h (0 Bft)
03.08.2019 03:07 11,8 °C 94 % 1012,9 hPa 0,0 mm 0,0 km/h (0 Bft) NW 309 ° 0 min 0,000 mm 0,0 UV-I 0 W/m² 10,9 °C 11,8 °C 0,0 km/h (0 Bft)
03.08.2019 03:08 11,7 °C 94 % 1012,9 hPa 0,0 mm 0,0 km/h (0 Bft) NW 309 ° 0 min 0,000 mm 0,0 UV-I 0 W/m² 10,8 °C 11,7 °C 0,0 km/h (0 Bft)
03.08.2019 03:09 11,8 °C 94 % 1012,9 hPa 0,0 mm 0,0 km/h (0 Bft) NW 309 ° 0 min 0,000 mm 0,0 UV-I 0 W/m² 10,9 °C 11,8 °C 0,0 km/h (0 Bft)
03.08.2019 03:10 11,8 °C 94 % 1012,8 hPa 0,0 mm 0,0 km/h (0 Bft) NW 309 ° 0 min 0,000 mm 0,0 UV-I 0 W/m² 10,9 °C 11,8 °C 0,0 km/h (0 Bft)
03.08.2019 03:11 11,8 °C 94 % 1012,8 hPa 0,0 mm 0,0 km/h (0 Bft) NW 309 ° 0 min 0,000 mm 0,0 UV-I 0 W/m² 10,9 °C 11,8 °C 0,0 km/h (0 Bft)
03.08.2019 03:12 11,8 °C 94 % 1012,8 hPa 0,0 mm 0,0 km/h (0 Bft) NW 309 ° 0 min 0,000 mm 0,0 UV-I 0 W/m² 10,9 °C 11,8 °C 0,0 km/h (0 Bft)
03.08.2019 03:13 11,8 °C 94 % 1012,8 hPa 0,0 mm 0,0 km/h (0 Bft) NW 309 ° 0 min 0,000 mm 0,0 UV-I 0 W/m² 10,9 °C 11,8 °C 0,0 km/h (0 Bft)
03.08.2019 03:14 11,8 °C 94 % 1012,8 hPa 0,0 mm 0,0 km/h (0 Bft) NW 309 ° 0 min 0,000 mm 0,0 UV-I 0 W/m² 10,9 °C 11,8 °C 0,0 km/h (0 Bft)
03.08.2019 03:15 11,8 °C 94 % 1012,8 hPa 0,0 mm 0,0 km/h (0 Bft) NW 309 ° 0 min 0,000 mm 0,0 UV-I 0 W/m² 10,9 °C 11,8 °C 0,0 km/h (0 Bft)
03.08.2019 03:16 11,8 °C 94 % 1012,8 hPa 0,0 mm 0,0 km/h (0 Bft) NW 309 ° 0 min 0,000 mm 0,0 UV-I 0 W/m² 10,9 °C 11,8 °C 0,0 km/h (0 Bft)
03.08.2019 03:17 11,8 °C 94 % 1012,8 hPa 0,0 mm 0,0 km/h (0 Bft) NW 309 ° 0 min 0,000 mm 0,0 UV-I 0 W/m² 10,9 °C 11,8 °C 0,0 km/h (0 Bft)
03.08.2019 03:18 11,8 °C 94 % 1012,8 hPa 0,0 mm 0,0 km/h (0 Bft) NW 309 ° 0 min 0,000 mm 0,0 UV-I 0 W/m² 10,9 °C 11,8 °C 0,0 km/h (0 Bft)
03.08.2019 03:19 11,8 °C 94 % 1012,8 hPa 0,0 mm 0,0 km/h (0 Bft) NW 309 ° 0 min 0,000 mm 0,0 UV-I 0 W/m² 10,9 °C 11,8 °C 0,0 km/h (0 Bft)
03.08.2019 03:20 11,7 °C 94 % 1012,8 hPa 0,0 mm 0,0 km/h (0 Bft) NW 309 ° 0 min 0,000 mm 0,0 UV-I 0 W/m² 10,8 °C 11,7 °C 0,0 km/h (0 Bft)
03.08.2019 03:21 11,7 °C 94 % 1012,7 hPa 0,0 mm 0,0 km/h (0 Bft) NW 309 ° 0 min 0,000 mm 0,0 UV-I 0 W/m² 10,8 °C 11,7 °C 0,0 km/h (0 Bft)
03.08.2019 03:22 11,7 °C 94 % 1012,8 hPa 0,0 mm 0,0 km/h (0 Bft) NW 309 ° 0 min 0,000 mm 0,0 UV-I 0 W/m² 10,8 °C 11,7 °C 0,0 km/h (0 Bft)
03.08.2019 03:23 11,7 °C 94 % 1012,8 hPa 0,0 mm 0,0 km/h (0 Bft) NW 309 ° 0 min 0,000 mm 0,0 UV-I 0 W/m² 10,8 °C 11,7 °C 0,0 km/h (0 Bft)
03.08.2019 03:24 11,7 °C 94 % 1012,8 hPa 0,0 mm 0,0 km/h (0 Bft) NW 309 ° 0 min 0,000 mm 0,0 UV-I 0 W/m² 10,8 °C 11,7 °C 0,0 km/h (0 Bft)
03.08.2019 03:25 11,7 °C 94 % 1012,8 hPa 0,0 mm 0,0 km/h (0 Bft) NW 309 ° 0 min 0,000 mm 0,0 UV-I 0 W/m² 10,8 °C 11,7 °C 0,0 km/h (0 Bft)
03.08.2019 03:26 11,7 °C 94 % 1012,7 hPa 0,0 mm 0,0 km/h (0 Bft) NW 309 ° 0 min 0,000 mm 0,0 UV-I 0 W/m² 10,8 °C 11,7 °C 0,0 km/h (0 Bft)
03.08.2019 03:27 11,7 °C 95 % 1012,8 hPa 0,0 mm 0,0 km/h (0 Bft) NW 309 ° 0 min 0,000 mm 0,0 UV-I 0 W/m² 10,9 °C 11,7 °C 0,0 km/h (0 Bft)
03.08.2019 03:28 11,7 °C 95 % 1012,7 hPa 0,0 mm 0,0 km/h (0 Bft) NW 309 ° 0 min 0,000 mm 0,0 UV-I 0 W/m² 10,9 °C 11,7 °C 0,0 km/h (0 Bft)
03.08.2019 03:29 11,7 °C 95 % 1012,7 hPa 0,0 mm 0,0 km/h (0 Bft) NW 309 ° 0 min 0,000 mm 0,0 UV-I 0 W/m² 10,9 °C 11,7 °C 0,0 km/h (0 Bft)
03.08.2019 03:30 11,7 °C 94 % 1012,7 hPa 0,0 mm 0,0 km/h (0 Bft) NW 309 ° 0 min 0,000 mm 0,0 UV-I 0 W/m² 10,8 °C 11,7 °C 0,0 km/h (0 Bft)
03.08.2019 03:31 11,7 °C 94 % 1012,7 hPa 0,0 mm 0,0 km/h (0 Bft) NW 309 ° 0 min 0,000 mm 0,0 UV-I 0 W/m² 10,8 °C 11,7 °C 0,0 km/h (0 Bft)
03.08.2019 03:32 11,8 °C 95 % 1012,7 hPa 0,0 mm 0,0 km/h (0 Bft) NW 309 ° 0 min 0,000 mm 0,0 UV-I 0 W/m² 11,0 °C 11,8 °C 0,0 km/h (0 Bft)
03.08.2019 03:33 11,8 °C 95 % 1012,7 hPa 0,0 mm 0,0 km/h (0 Bft) NW 309 ° 0 min 0,000 mm 0,0 UV-I 0 W/m² 11,0 °C 11,8 °C 0,0 km/h (0 Bft)
03.08.2019 03:34 11,8 °C 95 % 1012,7 hPa 0,0 mm 0,0 km/h (0 Bft) NW 309 ° 0 min 0,000 mm 0,0 UV-I 0 W/m² 11,0 °C 11,8 °C 0,0 km/h (0 Bft)
03.08.2019 03:35 11,8 °C 95 % 1012,7 hPa 0,0 mm 0,0 km/h (0 Bft) NW 309 ° 0 min 0,000 mm 0,0 UV-I 0 W/m² 11,0 °C 11,8 °C 0,0 km/h (0 Bft)
03.08.2019 03:36 11,8 °C 94 % 1012,7 hPa 0,0 mm 0,0 km/h (0 Bft) NW 309 ° 0 min 0,000 mm 0,0 UV-I 0 W/m² 10,9 °C 11,8 °C 0,0 km/h (0 Bft)
03.08.2019 03:37 11,8 °C 94 % 1012,7 hPa 0,0 mm 0,0 km/h (0 Bft) NW 309 ° 0 min 0,000 mm 0,0 UV-I 0 W/m² 10,9 °C 11,8 °C 0,0 km/h (0 Bft)
03.08.2019 03:38 11,7 °C 94 % 1012,7 hPa 0,0 mm 0,0 km/h (0 Bft) NW 309 ° 0 min 0,000 mm 0,0 UV-I 0 W/m² 10,8 °C 11,7 °C 0,0 km/h (0 Bft)
03.08.2019 03:39 11,7 °C 94 % 1012,7 hPa 0,0 mm 0,0 km/h (0 Bft) NW 309 ° 0 min 0,000 mm 0,0 UV-I 0 W/m² 10,8 °C 11,7 °C 0,0 km/h (0 Bft)
03.08.2019 03:40 11,7 °C 94 % 1012,7 hPa 0,0 mm 0,0 km/h (0 Bft) NW 309 ° 0 min 0,000 mm 0,0 UV-I 0 W/m² 10,8 °C 11,7 °C 0,0 km/h (0 Bft)
03.08.2019 03:41 11,7 °C 95 % 1012,7 hPa 0,0 mm 0,0 km/h (0 Bft) NW 309 ° 0 min 0,000 mm 0,0 UV-I 0 W/m² 10,9 °C 11,7 °C 0,0 km/h (0 Bft)
03.08.2019 03:42 11,7 °C 95 % 1012,7 hPa 0,0 mm 0,0 km/h (0 Bft) NW 309 ° 0 min 0,000 mm 0,0 UV-I 0 W/m² 10,9 °C 11,7 °C 0,0 km/h (0 Bft)
03.08.2019 03:43 11,8 °C 95 % 1012,7 hPa 0,0 mm 0,0 km/h (0 Bft) NW 309 ° 0 min 0,000 mm 0,0 UV-I 0 W/m² 11,0 °C 11,8 °C 0,0 km/h (0 Bft)
03.08.2019 03:44 11,8 °C 95 % 1012,7 hPa 0,0 mm 0,0 km/h (0 Bft) NW 309 ° 0 min 0,000 mm 0,0 UV-I 0 W/m² 11,0 °C 11,8 °C 0,0 km/h (0 Bft)
03.08.2019 03:45 11,8 °C 95 % 1012,7 hPa 0,0 mm 0,0 km/h (0 Bft) NW 309 ° 0 min 0,000 mm 0,0 UV-I 0 W/m² 11,0 °C 11,8 °C 0,0 km/h (0 Bft)
03.08.2019 03:46 11,8 °C 95 % 1012,7 hPa 0,0 mm 0,0 km/h (0 Bft) NW 309 ° 0 min 0,000 mm 0,0 UV-I 0 W/m² 11,0 °C 11,8 °C 0,0 km/h (0 Bft)
03.08.2019 03:47 11,8 °C 95 % 1012,7 hPa 0,0 mm 0,0 km/h (0 Bft) NW 309 ° 0 min 0,000 mm 0,0 UV-I 0 W/m² 11,0 °C 11,8 °C 0,0 km/h (0 Bft)
03.08.2019 03:48 11,8 °C 95 % 1012,7 hPa 0,0 mm 0,0 km/h (0 Bft) NW 309 ° 0 min 0,000 mm 0,0 UV-I 0 W/m² 11,0 °C 11,8 °C 0,0 km/h (0 Bft)
03.08.2019 03:49 11,8 °C 95 % 1012,7 hPa 0,0 mm 0,0 km/h (0 Bft) NW 309 ° 0 min 0,000 mm 0,0 UV-I 0 W/m² 11,0 °C 11,8 °C 0,0 km/h (0 Bft)
03.08.2019 03:50 11,9 °C 95 % 1012,7 hPa 0,0 mm 0,0 km/h (0 Bft) NW 309 ° 0 min 0,000 mm 0,0 UV-I 0 W/m² 11,1 °C 11,9 °C 0,0 km/h (0 Bft)
03.08.2019 03:51 11,9 °C 95 % 1012,6 hPa 0,0 mm 0,0 km/h (0 Bft) NW 309 ° 0 min 0,000 mm 0,0 UV-I 0 W/m² 11,1 °C 11,9 °C 0,0 km/h (0 Bft)
03.08.2019 03:52 11,9 °C 95 % 1012,7 hPa 0,0 mm 0,0 km/h (0 Bft) NW 309 ° 0 min 0,000 mm 0,0 UV-I 0 W/m² 11,1 °C 11,9 °C 0,0 km/h (0 Bft)
03.08.2019 03:53 11,9 °C 95 % 1012,7 hPa 0,0 mm 0,0 km/h (0 Bft) NW 309 ° 0 min 0,000 mm 0,0 UV-I 0 W/m² 11,1 °C 11,9 °C 0,0 km/h (0 Bft)
03.08.2019 03:54 11,9 °C 95 % 1012,7 hPa 0,0 mm 0,0 km/h (0 Bft) NW 309 ° 0 min 0,000 mm 0,0 UV-I 0 W/m² 11,1 °C 11,9 °C 0,0 km/h (0 Bft)
03.08.2019 03:55 11,9 °C 95 % 1012,6 hPa 0,0 mm 0,0 km/h (0 Bft) NW 309 ° 0 min 0,000 mm 0,0 UV-I 0 W/m² 11,1 °C 11,9 °C 0,0 km/h (0 Bft)
03.08.2019 03:56 11,9 °C 95 % 1012,6 hPa 0,0 mm 0,0 km/h (0 Bft) NW 309 ° 0 min 0,000 mm 0,0 UV-I 0 W/m² 11,1 °C 11,9 °C 0,0 km/h (0 Bft)
03.08.2019 03:57 11,9 °C 95 % 1012,6 hPa 0,0 mm 0,0 km/h (0 Bft) NW 309 ° 0 min 0,000 mm 0,0 UV-I 0 W/m² 11,1 °C 11,9 °C 0,0 km/h (0 Bft)
03.08.2019 03:58 11,9 °C 95 % 1012,6 hPa 0,0 mm 0,0 km/h (0 Bft) NW 309 ° 0 min 0,000 mm 0,0 UV-I 0 W/m² 11,1 °C 11,9 °C 0,0 km/h (0 Bft)
03.08.2019 03:59 12,1 °C 95 % 1012,6 hPa 0,0 mm 0,0 km/h (0 Bft) NW 309 ° 0 min 0,000 mm 0,0 UV-I 0 W/m² 11,3 °C 12,1 °C 0,0 km/h (0 Bft)
03.08.2019 04:00 12,0 °C 95 % 1012,6 hPa 0,0 mm 0,0 km/h (0 Bft) NW 309 ° 0 min 0,000 mm 0,0 UV-I 0 W/m² 11,2 °C 12,0 °C 0,0 km/h (0 Bft)
03.08.2019 04:01 12,1 °C 95 % 1012,6 hPa 0,0 mm 0,0 km/h (0 Bft) NW 309 ° 0 min 0,000 mm 0,0 UV-I 0 W/m² 11,3 °C 12,1 °C 0,0 km/h (0 Bft)
03.08.2019 04:02 12,0 °C 95 % 1012,7 hPa 0,0 mm 0,0 km/h (0 Bft) NW 309 ° 0 min 0,000 mm 0,0 UV-I 0 W/m² 11,2 °C 12,0 °C 0,0 km/h (0 Bft)
03.08.2019 04:03 11,9 °C 95 % 1012,6 hPa 0,0 mm 0,0 km/h (0 Bft) NW 309 ° 0 min 0,000 mm 0,0 UV-I 0 W/m² 11,1 °C 11,9 °C 0,0 km/h (0 Bft)
03.08.2019 04:04 11,9 °C 95 % 1012,6 hPa 0,0 mm 0,0 km/h (0 Bft) NW 309 ° 0 min 0,000 mm 0,0 UV-I 0 W/m² 11,1 °C 11,9 °C 0,0 km/h (0 Bft)
03.08.2019 04:05 11,9 °C 95 % 1012,7 hPa 0,0 mm 0,0 km/h (0 Bft) NW 309 ° 0 min 0,000 mm 0,0 UV-I 0 W/m² 11,1 °C 11,9 °C 0,0 km/h (0 Bft)
03.08.2019 04:06 11,9 °C 95 % 1012,7 hPa 0,0 mm 0,0 km/h (0 Bft) NW 309 ° 0 min 0,000 mm 0,0 UV-I 0 W/m² 11,1 °C 11,9 °C 0,0 km/h (0 Bft)
03.08.2019 04:07 11,9 °C 95 % 1012,7 hPa 0,0 mm 0,0 km/h (0 Bft) NW 309 ° 0 min 0,000 mm 0,0 UV-I 0 W/m² 11,1 °C 11,9 °C 0,0 km/h (0 Bft)
03.08.2019 04:08 11,9 °C 94 % 1012,6 hPa 0,0 mm 0,0 km/h (0 Bft) NW 309 ° 0 min 0,000 mm 0,0 UV-I 0 W/m² 11,0 °C 11,9 °C 0,0 km/h (0 Bft)
03.08.2019 04:09 11,9 °C 95 % 1012,6 hPa 0,0 mm 0,0 km/h (0 Bft) NW 309 ° 0 min 0,000 mm 0,0 UV-I 0 W/m² 11,1 °C 11,9 °C 0,0 km/h (0 Bft)
03.08.2019 04:10 11,8 °C 94 % 1012,7 hPa 0,0 mm 0,0 km/h (0 Bft) NW 309 ° 0 min 0,000 mm 0,0 UV-I 0 W/m² 10,9 °C 11,8 °C 0,0 km/h (0 Bft)
03.08.2019 04:11 11,9 °C 95 % 1012,6 hPa 0,0 mm 0,0 km/h (0 Bft) NW 309 ° 0 min 0,000 mm 0,0 UV-I 0 W/m² 11,1 °C 11,9 °C 0,0 km/h (0 Bft)
03.08.2019 04:12 11,9 °C 95 % 1012,6 hPa 0,0 mm 0,0 km/h (0 Bft) NW 309 ° 0 min 0,000 mm 0,0 UV-I 0 W/m² 11,1 °C 11,9 °C 0,0 km/h (0 Bft)
03.08.2019 04:13 11,9 °C 95 % 1012,6 hPa 0,0 mm 0,0 km/h (0 Bft) NW 309 ° 0 min 0,000 mm 0,0 UV-I 0 W/m² 11,1 °C 11,9 °C 0,0 km/h (0 Bft)
03.08.2019 04:14 11,9 °C 95 % 1012,6 hPa 0,0 mm 0,0 km/h (0 Bft) NW 309 ° 0 min 0,000 mm 0,0 UV-I 0 W/m² 11,1 °C 11,9 °C 0,0 km/h (0 Bft)
03.08.2019 04:15 11,9 °C 95 % 1012,6 hPa 0,0 mm 0,0 km/h (0 Bft) NW 309 ° 0 min 0,000 mm 0,0 UV-I 0 W/m² 11,1 °C 11,9 °C 0,0 km/h (0 Bft)
03.08.2019 04:16 11,9 °C 95 % 1012,6 hPa 0,0 mm 0,0 km/h (0 Bft) NW 309 ° 0 min 0,000 mm 0,0 UV-I 0 W/m² 11,1 °C 11,9 °C 0,0 km/h (0 Bft)
03.08.2019 04:17 11,8 °C 95 % 1012,6 hPa 0,0 mm 0,0 km/h (0 Bft) NW 309 ° 0 min 0,000 mm 0,0 UV-I 0 W/m² 11,0 °C 11,8 °C 0,0 km/h (0 Bft)
03.08.2019 04:18 11,8 °C 95 % 1012,7 hPa 0,0 mm 0,0 km/h (0 Bft) NW 309 ° 0 min 0,000 mm 0,0 UV-I 0 W/m² 11,0 °C 11,8 °C 0,0 km/h (0 Bft)
03.08.2019 04:19 11,8 °C 95 % 1012,6 hPa 0,0 mm 0,0 km/h (0 Bft) NW 309 ° 0 min 0,000 mm 0,0 UV-I 0 W/m² 11,0 °C 11,8 °C 0,0 km/h (0 Bft)
03.08.2019 04:20 11,8 °C 95 % 1012,6 hPa 0,0 mm 0,0 km/h (0 Bft) NW 309 ° 0 min 0,000 mm 0,0 UV-I 0 W/m² 11,0 °C 11,8 °C 0,0 km/h (0 Bft)
03.08.2019 04:21 11,8 °C 95 % 1012,6 hPa 0,0 mm 0,0 km/h (0 Bft) NW 309 ° 0 min 0,000 mm 0,0 UV-I 0 W/m² 11,0 °C 11,8 °C 0,0 km/h (0 Bft)
03.08.2019 04:22 11,8 °C 95 % 1012,6 hPa 0,0 mm 0,0 km/h (0 Bft) NW 309 ° 0 min 0,000 mm 0,0 UV-I 0 W/m² 11,0 °C 11,8 °C 0,0 km/h (0 Bft)
03.08.2019 04:23 11,8 °C 95 % 1012,6 hPa 0,0 mm 0,0 km/h (0 Bft) NW 309 ° 0 min 0,000 mm 0,0 UV-I 0 W/m² 11,0 °C 11,8 °C 0,0 km/h (0 Bft)
03.08.2019 04:24 11,7 °C 95 % 1012,6 hPa 0,0 mm 0,0 km/h (0 Bft) NW 309 ° 0 min 0,000 mm 0,0 UV-I 0 W/m² 10,9 °C 11,7 °C 0,0 km/h (0 Bft)
03.08.2019 04:25 11,7 °C 95 % 1012,6 hPa 0,0 mm 0,0 km/h (0 Bft) NW 309 ° 0 min 0,000 mm 0,0 UV-I 0 W/m² 10,9 °C 11,7 °C 0,0 km/h (0 Bft)
03.08.2019 04:26 11,7 °C 95 % 1012,6 hPa 0,0 mm 0,0 km/h (0 Bft) NW 309 ° 0 min 0,000 mm 0,0 UV-I 0 W/m² 10,9 °C 11,7 °C 0,0 km/h (0 Bft)
03.08.2019 04:27 11,7 °C 95 % 1012,6 hPa 0,0 mm 0,0 km/h (0 Bft) NW 309 ° 0 min 0,000 mm 0,0 UV-I 0 W/m² 10,9 °C 11,7 °C 0,0 km/h (0 Bft)
03.08.2019 04:28 11,7 °C 95 % 1012,6 hPa 0,0 mm 0,0 km/h (0 Bft) NW 309 ° 0 min 0,000 mm 0,0 UV-I 0 W/m² 10,9 °C 11,7 °C 0,0 km/h (0 Bft)
03.08.2019 04:29 11,7 °C 95 % 1012,6 hPa 0,0 mm 1,3 km/h (1 Bft) S-SO 168 ° 0 min 0,000 mm 0,0 UV-I 0 W/m² 10,9 °C 11,7 °C 6,4 km/h (2 Bft)
03.08.2019 04:30 11,8 °C 95 % 1012,6 hPa 0,0 mm 0,2 km/h (0 Bft) S 175 ° 0 min 0,000 mm 0,0 UV-I 0 W/m² 11,0 °C 11,8 °C 1,6 km/h (1 Bft)
03.08.2019 04:31 11,8 °C 95 % 1012,6 hPa 0,0 mm 0,9 km/h (0 Bft) S 183 ° 0 min 0,000 mm 0,0 UV-I 0 W/m² 11,0 °C 11,8 °C 3,2 km/h (1 Bft)
03.08.2019 04:32 11,9 °C 95 % 1012,6 hPa 0,0 mm 0,0 km/h (0 Bft) S 183 ° 0 min 0,000 mm 0,0 UV-I 0 W/m² 11,1 °C 11,9 °C 0,0 km/h (0 Bft)
03.08.2019 04:33 11,9 °C 95 % 1012,6 hPa 0,0 mm 0,0 km/h (0 Bft) S 183 ° 0 min 0,000 mm 0,0 UV-I 0 W/m² 11,1 °C 11,9 °C 0,0 km/h (0 Bft)
03.08.2019 04:34 11,9 °C 95 % 1012,6 hPa 0,0 mm 4,9 km/h (1 Bft) S-SO 167 ° 0 min 0,000 mm 0,0 UV-I 0 W/m² 11,1 °C 11,9 °C 9,7 km/h (2 Bft)
03.08.2019 04:35 11,9 °C 95 % 1012,6 hPa 0,0 mm 1,4 km/h (1 Bft) S 188 ° 0 min 0,000 mm 0,0 UV-I 0 W/m² 11,1 °C 11,9 °C 1,6 km/h (1 Bft)
03.08.2019 04:36 11,9 °C 95 % 1012,6 hPa 0,0 mm 4,6 km/h (1 Bft) SW 221 ° 0 min 0,000 mm 0,0 UV-I 0 W/m² 11,1 °C 11,9 °C 6,4 km/h (2 Bft)
03.08.2019 04:37 12,0 °C 95 % 1012,6 hPa 0,0 mm 0,3 km/h (0 Bft) SW 221 ° 0 min 0,000 mm 0,0 UV-I 0 W/m² 11,2 °C 12,0 °C 1,6 km/h (1 Bft)
03.08.2019 04:38 12,1 °C 95 % 1012,6 hPa 0,0 mm 3,2 km/h (1 Bft) S-SW 204 ° 0 min 0,000 mm 0,0 UV-I 0 W/m² 11,3 °C 12,1 °C 4,8 km/h (1 Bft)
03.08.2019 04:39 12,1 °C 95 % 1012,6 hPa 0,0 mm 0,3 km/h (0 Bft) S-SW 205 ° 0 min 0,000 mm 0,0 UV-I 0 W/m² 11,3 °C 12,1 °C 1,6 km/h (1 Bft)
03.08.2019 04:40 12,2 °C 95 % 1012,6 hPa 0,0 mm 1,8 km/h (1 Bft) S-SW 201 ° 0 min 0,000 mm 0,0 UV-I 0 W/m² 11,4 °C 12,2 °C 6,4 km/h (2 Bft)
03.08.2019 04:41 12,2 °C 94 % 1012,6 hPa 0,0 mm 0,4 km/h (0 Bft) S-SW 201 ° 0 min 0,000 mm 0,0 UV-I 0 W/m² 11,3 °C 12,2 °C 1,6 km/h (1 Bft)
03.08.2019 04:42 12,3 °C 94 % 1012,6 hPa 0,0 mm 0,1 km/h (0 Bft) S-SW 201 ° 0 min 0,000 mm 0,0 UV-I 0 W/m² 11,4 °C 12,3 °C 1,6 km/h (1 Bft)
03.08.2019 04:43 12,3 °C 94 % 1012,6 hPa 0,0 mm 3,0 km/h (1 Bft) S-SW 201 ° 0 min 0,000 mm 0,0 UV-I 0 W/m² 11,4 °C 12,3 °C 6,4 km/h (2 Bft)
03.08.2019 04:44 12,3 °C 94 % 1012,6 hPa 0,0 mm 0,6 km/h (0 Bft) S-SW 201 ° 0 min 0,000 mm 0,0 UV-I 0 W/m² 11,4 °C 12,3 °C 1,6 km/h (1 Bft)
03.08.2019 04:45 12,3 °C 94 % 1012,6 hPa 0,0 mm 0,2 km/h (0 Bft) S-SW 201 ° 0 min 0,000 mm 0,0 UV-I 0 W/m² 11,4 °C 12,3 °C 1,6 km/h (1 Bft)
03.08.2019 04:46 12,3 °C 94 % 1012,5 hPa 0,0 mm 2,1 km/h (1 Bft) S 191 ° 0 min 0,000 mm 0,0 UV-I 0 W/m² 11,4 °C 12,3 °C 4,8 km/h (1 Bft)
03.08.2019 04:47 12,4 °C 94 % 1012,6 hPa 0,0 mm 1,0 km/h (0 Bft) S 190 ° 0 min 0,000 mm 0,0 UV-I 0 W/m² 11,5 °C 12,4 °C 6,4 km/h (2 Bft)
03.08.2019 04:48 12,5 °C 94 % 1012,6 hPa 0,0 mm 3,6 km/h (1 Bft) S 188 ° 0 min 0,000 mm 0,0 UV-I 0 W/m² 11,6 °C 12,5 °C 8,0 km/h (2 Bft)
03.08.2019 04:49 12,6 °C 93 % 1012,5 hPa 0,0 mm 1,4 km/h (1 Bft) W-SW 250 ° 0 min 0,000 mm 0,0 UV-I 0 W/m² 11,5 °C 12,6 °C 4,8 km/h (1 Bft)
03.08.2019 04:50 12,7 °C 94 % 1012,6 hPa 0,0 mm 2,3 km/h (1 Bft) W-SW 241 ° 0 min 0,000 mm 0,0 UV-I 0 W/m² 11,8 °C 12,7 °C 4,8 km/h (1 Bft)
03.08.2019 04:51 12,7 °C 93 % 1012,6 hPa 0,0 mm 4,6 km/h (1 Bft) S-SW 211 ° 0 min 0,000 mm 0,0 UV-I 0 W/m² 11,6 °C 12,7 °C 9,7 km/h (2 Bft)
03.08.2019 04:52 12,8 °C 93 % 1012,7 hPa 0,0 mm 3,4 km/h (1 Bft) S 188 ° 0 min 0,000 mm 0,0 UV-I 0 W/m² 11,7 °C 12,8 °C 6,4 km/h (2 Bft)
03.08.2019 04:53 12,8 °C 93 % 1012,7 hPa 0,0 mm 5,1 km/h (1 Bft) S-SW 194 ° 0 min 0,000 mm 0,0 UV-I 0 W/m² 11,7 °C 12,8 °C 8,0 km/h (2 Bft)
03.08.2019 04:54 12,8 °C 93 % 1012,6 hPa 0,0 mm 3,2 km/h (1 Bft) S-SW 202 ° 0 min 0,000 mm 0,0 UV-I 0 W/m² 11,7 °C 12,8 °C 4,8 km/h (1 Bft)
03.08.2019 04:55 12,9 °C 93 % 1012,7 hPa 0,0 mm 1,7 km/h (1 Bft) S 186 ° 0 min 0,000 mm 0,0 UV-I 0 W/m² 11,8 °C 12,9 °C 6,4 km/h (2 Bft)
03.08.2019 04:56 12,9 °C 93 % 1012,7 hPa 0,0 mm 2,9 km/h (1 Bft) S-SW 196 ° 0 min 0,000 mm 0,0 UV-I 0 W/m² 11,8 °C 12,9 °C 6,4 km/h (2 Bft)
03.08.2019 04:57 13,0 °C 92 % 1012,7 hPa 0,0 mm 3,8 km/h (1 Bft) S-SW 209 ° 0 min 0,000 mm 0,0 UV-I 0 W/m² 11,7 °C 13,0 °C 6,4 km/h (2 Bft)
03.08.2019 04:58 13,0 °C 92 % 1012,7 hPa 0,0 mm 4,4 km/h (1 Bft) S-SW 194 ° 0 min 0,000 mm 0,0 UV-I 0 W/m² 11,7 °C 13,0 °C 8,0 km/h (2 Bft)
03.08.2019 04:59 13,0 °C 92 % 1012,7 hPa 0,0 mm 1,6 km/h (1 Bft) S-SW 195 ° 0 min 0,000 mm 0,0 UV-I 0 W/m² 11,7 °C 13,0 °C 3,2 km/h (1 Bft)
03.08.2019 05:00 13,0 °C 92 % 1012,7 hPa 0,0 mm 3,0 km/h (1 Bft) S-SW 196 ° 0 min 0,000 mm 0,0 UV-I 0 W/m² 11,7 °C 13,0 °C 6,4 km/h (2 Bft)
03.08.2019 05:01 13,0 °C 91 % 1012,7 hPa 0,0 mm 1,4 km/h (1 Bft) S-SW 197 ° 0 min 0,000 mm 0,0 UV-I 0 W/m² 11,6 °C 13,0 °C 4,8 km/h (1 Bft)
03.08.2019 05:02 13,0 °C 91 % 1012,7 hPa 0,0 mm 1,7 km/h (1 Bft) S-SW 197 ° 0 min 0,000 mm 0,0 UV-I 0 W/m² 11,6 °C 13,0 °C 6,4 km/h (2 Bft)
03.08.2019 05:03 12,9 °C 91 % 1012,7 hPa 0,0 mm 1,3 km/h (1 Bft) S-SW 197 ° 0 min 0,000 mm 0,0 UV-I 0 W/m² 11,5 °C 12,9 °C 3,2 km/h (1 Bft)
03.08.2019 05:04 12,9 °C 91 % 1012,7 hPa 0,0 mm 0,3 km/h (0 Bft) S-SW 197 ° 0 min 0,000 mm 0,0 UV-I 0 W/m² 11,5 °C 12,9 °C 1,6 km/h (1 Bft)
03.08.2019 05:05 12,8 °C 92 % 1012,6 hPa 0,0 mm 0,0 km/h (0 Bft) S-SW 197 ° 0 min 0,000 mm 0,0 UV-I 0 W/m² 11,5 °C 12,8 °C 0,0 km/h (0 Bft)
03.08.2019 05:06 12,8 °C 92 % 1012,6 hPa 0,0 mm 1,3 km/h (1 Bft) S-SW 200 ° 0 min 0,000 mm 0,0 UV-I 0 W/m² 11,5 °C 12,8 °C 3,2 km/h (1 Bft)
03.08.2019 05:07 12,8 °C 92 % 1012,7 hPa 0,0 mm 2,7 km/h (1 Bft) S-SW 192 ° 0 min 0,000 mm 0,0 UV-I 0 W/m² 11,5 °C 12,8 °C 4,8 km/h (1 Bft)
03.08.2019 05:08 12,8 °C 92 % 1012,6 hPa 0,0 mm 4,5 km/h (1 Bft) S 178 ° 0 min 0,000 mm 0,0 UV-I 0 W/m² 11,5 °C 12,8 °C 8,0 km/h (2 Bft)
03.08.2019 05:09 12,8 °C 92 % 1012,6 hPa 0,0 mm 4,1 km/h (1 Bft) S-SW 196 ° 0 min 0,000 mm 0,0 UV-I 0 W/m² 11,5 °C 12,8 °C 9,7 km/h (2 Bft)
03.08.2019 05:10 12,9 °C 92 % 1012,6 hPa 0,0 mm 6,2 km/h (2 Bft) S-SW 192 ° 0 min 0,000 mm 0,0 UV-I 0 W/m² 11,6 °C 12,9 °C 8,0 km/h (2 Bft)
03.08.2019 05:11 12,9 °C 92 % 1012,7 hPa 0,0 mm 8,0 km/h (2 Bft) S-SW 200 ° 0 min 0,000 mm 0,0 UV-I 0 W/m² 11,6 °C 12,9 °C 12,9 km/h (3 Bft)
03.08.2019 05:12 13,0 °C 92 % 1012,6 hPa 0,0 mm 3,3 km/h (1 Bft) SO 143 ° 0 min 0,000 mm 0,0 UV-I 0 W/m² 11,7 °C 13,0 °C 6,4 km/h (2 Bft)
03.08.2019 05:13 13,1 °C 92 % 1012,7 hPa 0,0 mm 1,5 km/h (1 Bft) S-SO 157 ° 0 min 0,000 mm 0,0 UV-I 0 W/m² 11,8 °C 13,1 °C 4,8 km/h (1 Bft)
03.08.2019 05:14 13,1 °C 91 % 1012,7 hPa 0,0 mm 4,1 km/h (1 Bft) S-SO 150 ° 0 min 0,000 mm 0,0 UV-I 0 W/m² 11,7 °C 13,1 °C 6,4 km/h (2 Bft)
03.08.2019 05:15 13,2 °C 91 % 1012,7 hPa 0,0 mm 4,4 km/h (1 Bft) S 188 ° 0 min 0,000 mm 0,0 UV-I 0 W/m² 11,8 °C 13,2 °C 6,4 km/h (2 Bft)
03.08.2019 05:16 13,2 °C 91 % 1012,7 hPa 0,0 mm 6,8 km/h (2 Bft) S-SW 194 ° 0 min 0,000 mm 0,0 UV-I 0 W/m² 11,8 °C 13,2 °C 9,7 km/h (2 Bft)
03.08.2019 05:17 13,3 °C 91 % 1012,7 hPa 0,0 mm 3,9 km/h (1 Bft) S 190 ° 0 min 0,000 mm 0,0 UV-I 0 W/m² 11,9 °C 13,3 °C 6,4 km/h (2 Bft)
03.08.2019 05:18 13,3 °C 91 % 1012,6 hPa 0,0 mm 3,8 km/h (1 Bft) S-SW 200 ° 0 min 0,000 mm 0,0 UV-I 0 W/m² 11,9 °C 13,3 °C 6,4 km/h (2 Bft)
03.08.2019 05:19 13,3 °C 91 % 1012,6 hPa 0,0 mm 4,3 km/h (1 Bft) S-SW 207 ° 0 min 0,000 mm 0,0 UV-I 0 W/m² 11,9 °C 13,3 °C 6,4 km/h (2 Bft)
03.08.2019 05:20 13,3 °C 91 % 1012,6 hPa 0,0 mm 2,7 km/h (1 Bft) S-SW 201 ° 0 min 0,000 mm 0,0 UV-I 0 W/m² 11,9 °C 13,3 °C 8,0 km/h (2 Bft)
03.08.2019 05:21 13,3 °C 91 % 1012,6 hPa 0,0 mm 4,4 km/h (1 Bft) S 191 ° 0 min 0,000 mm 0,0 UV-I 0 W/m² 11,9 °C 13,3 °C 11,3 km/h (2 Bft)
03.08.2019 05:22 13,4 °C 90 % 1012,6 hPa 0,0 mm 4,3 km/h (1 Bft) SW 221 ° 0 min 0,000 mm 0,0 UV-I 0 W/m² 11,8 °C 13,4 °C 9,7 km/h (2 Bft)
03.08.2019 05:23 13,5 °C 90 % 1012,6 hPa 0,0 mm 1,5 km/h (1 Bft) S 179 ° 0 min 0,000 mm 0,0 UV-I 0 W/m² 11,9 °C 13,5 °C 3,2 km/h (1 Bft)
03.08.2019 05:24 13,6 °C 90 % 1012,6 hPa 0,0 mm 4,5 km/h (1 Bft) S 178 ° 0 min 0,000 mm 0,0 UV-I 0 W/m² 12,0 °C 13,6 °C 8,0 km/h (2 Bft)
03.08.2019 05:25 13,7 °C 89 % 1012,6 hPa 0,0 mm 3,3 km/h (1 Bft) W-SW 257 ° 0 min 0,000 mm 0,0 UV-I 0 W/m² 11,9 °C 13,7 °C 4,8 km/h (1 Bft)
03.08.2019 05:26 13,8 °C 89 % 1012,6 hPa 0,0 mm 2,5 km/h (1 Bft) S 186 ° 0 min 0,000 mm 0,0 UV-I 0 W/m² 12,0 °C 13,8 °C 4,8 km/h (1 Bft)
03.08.2019 05:27 13,9 °C 88 % 1012,7 hPa 0,0 mm 3,2 km/h (1 Bft) S-SW 197 ° 0 min 0,000 mm 0,0 UV-I 0 W/m² 11,9 °C 13,9 °C 4,8 km/h (1 Bft)
03.08.2019 05:28 13,9 °C 88 % 1012,6 hPa 0,0 mm 4,3 km/h (1 Bft) S 190 ° 0 min 0,000 mm 0,0 UV-I 0 W/m² 11,9 °C 13,9 °C 8,0 km/h (2 Bft)
03.08.2019 05:29 14,0 °C 88 % 1012,6 hPa 0,0 mm 3,9 km/h (1 Bft) S 181 ° 0 min 0,000 mm 0,0 UV-I 0 W/m² 12,0 °C 14,0 °C 6,4 km/h (2 Bft)
03.08.2019 05:30 14,0 °C 88 % 1012,6 hPa 0,0 mm 3,2 km/h (1 Bft) S-SW 205 ° 0 min 0,000 mm 0,0 UV-I 0 W/m² 12,0 °C 14,0 °C 4,8 km/h (1 Bft)
03.08.2019 05:31 14,0 °C 88 % 1012,6 hPa 0,0 mm 5,5 km/h (1 Bft) S 184 ° 0 min 0,000 mm 0,0 UV-I 0 W/m² 12,0 °C 14,0 °C 6,4 km/h (2 Bft)
03.08.2019 05:32 14,1 °C 87 % 1012,6 hPa 0,0 mm 0,4 km/h (0 Bft) SW 219 ° 0 min 0,000 mm 0,0 UV-I 0 W/m² 12,0 °C 14,1 °C 3,2 km/h (1 Bft)
03.08.2019 05:33 14,1 °C 87 % 1012,6 hPa 0,0 mm 3,3 km/h (1 Bft) S-SW 199 ° 0 min 0,000 mm 0,0 UV-I 0 W/m² 12,0 °C 14,1 °C 4,8 km/h (1 Bft)
03.08.2019 05:34 14,1 °C 87 % 1012,6 hPa 0,0 mm 0,1 km/h (0 Bft) S-SW 199 ° 0 min 0,000 mm 0,0 UV-I 0 W/m² 12,0 °C 14,1 °C 1,6 km/h (1 Bft)
03.08.2019 05:35 14,1 °C 87 % 1012,6 hPa 0,0 mm 4,5 km/h (1 Bft) S-SW 213 ° 0 min 0,000 mm 0,0 UV-I 0 W/m² 12,0 °C 14,1 °C 8,0 km/h (2 Bft)
03.08.2019 05:36 14,0 °C 87 % 1012,6 hPa 0,0 mm 3,6 km/h (1 Bft) S-SW 205 ° 0 min 0,000 mm 0,0 UV-I 0 W/m² 11,9 °C 14,0 °C 4,8 km/h (1 Bft)
03.08.2019 05:37 13,9 °C 88 % 1012,6 hPa 0,0 mm 4,4 km/h (1 Bft) S 187 ° 0 min 0,000 mm 0,0 UV-I 0 W/m² 11,9 °C 13,9 °C 6,4 km/h (2 Bft)
03.08.2019 05:38 13,9 °C 88 % 1012,6 hPa 0,0 mm 0,9 km/h (0 Bft) S 188 ° 0 min 0,000 mm 0,0 UV-I 0 W/m² 11,9 °C 13,9 °C 3,2 km/h (1 Bft)
03.08.2019 05:39 13,8 °C 88 % 1012,6 hPa 0,0 mm 1,7 km/h (1 Bft) S-SO 167 ° 0 min 0,000 mm 0,0 UV-I 0 W/m² 11,8 °C 13,8 °C 6,4 km/h (2 Bft)
03.08.2019 05:40 13,8 °C 88 % 1012,6 hPa 0,0 mm 0,6 km/h (0 Bft) S-SO 167 ° 0 min 0,000 mm 0,0 UV-I 0 W/m² 11,8 °C 13,8 °C 4,8 km/h (1 Bft)
03.08.2019 05:41 13,8 °C 88 % 1012,6 hPa 0,0 mm 1,0 km/h (0 Bft) S-SO 167 ° 0 min 0,000 mm 0,0 UV-I 0 W/m² 11,8 °C 13,8 °C 4,8 km/h (1 Bft)
03.08.2019 05:42 13,8 °C 88 % 1012,5 hPa 0,0 mm 0,2 km/h (0 Bft) S-SO 167 ° 0 min 0,000 mm 0,0 UV-I 0 W/m² 11,8 °C 13,8 °C 1,6 km/h (1 Bft)
03.08.2019 05:43 13,8 °C 88 % 1012,5 hPa 0,0 mm 0,0 km/h (0 Bft) S-SO 167 ° 0 min 0,000 mm 0,0 UV-I 0 W/m² 11,8 °C 13,8 °C 0,0 km/h (0 Bft)
03.08.2019 05:44 13,7 °C 88 % 1012,6 hPa 0,0 mm 0,5 km/h (0 Bft) S-SO 167 ° 0 min 0,000 mm 0,0 UV-I 0 W/m² 11,7 °C 13,7 °C 1,6 km/h (1 Bft)
03.08.2019 05:45 13,7 °C 88 % 1012,6 hPa 0,0 mm 0,0 km/h (0 Bft) S-SO 167 ° 0 min 0,000 mm 0,0 UV-I 0 W/m² 11,7 °C 13,7 °C 0,0 km/h (0 Bft)
03.08.2019 05:46 13,7 °C 89 % 1012,6 hPa 0,0 mm 0,0 km/h (0 Bft) S-SO 167 ° 0 min 0,000 mm 0,0 UV-I 0 W/m² 11,9 °C 13,7 °C 0,0 km/h (0 Bft)
03.08.2019 05:47 13,6 °C 89 % 1012,6 hPa 0,0 mm 0,0 km/h (0 Bft) S-SO 167 ° 0 min 0,000 mm 0,0 UV-I 0 W/m² 11,8 °C 13,6 °C 0,0 km/h (0 Bft)
03.08.2019 05:48 13,5 °C 89 % 1012,6 hPa 0,0 mm 0,0 km/h (0 Bft) S-SO 167 ° 0 min 0,000 mm 0,0 UV-I 0 W/m² 11,7 °C 13,5 °C 0,0 km/h (0 Bft)
03.08.2019 05:49 13,4 °C 90 % 1012,6 hPa 0,0 mm 0,0 km/h (0 Bft) S-SO 167 ° 0 min 0,000 mm 0,0 UV-I 0 W/m² 11,8 °C 13,4 °C 0,0 km/h (0 Bft)
03.08.2019 05:50 13,3 °C 90 % 1012,6 hPa 0,0 mm 0,0 km/h (0 Bft) S-SO 167 ° 0 min 0,000 mm 0,0 UV-I 0 W/m² 11,7 °C 13,3 °C 0,0 km/h (0 Bft)
03.08.2019 05:51 13,2 °C 90 % 1012,6 hPa 0,0 mm 0,0 km/h (0 Bft) S-SO 167 ° 0 min 0,000 mm 0,0 UV-I 0 W/m² 11,6 °C 13,2 °C 0,0 km/h (0 Bft)
03.08.2019 05:52 13,2 °C 90 % 1012,6 hPa 0,0 mm 0,0 km/h (0 Bft) S-SO 167 ° 0 min 0,000 mm 0,0 UV-I 0 W/m² 11,6 °C 13,2 °C 0,0 km/h (0 Bft)
03.08.2019 05:53 13,1 °C 90 % 1012,6 hPa 0,0 mm 0,0 km/h (0 Bft) S-SO 167 ° 0 min 0,000 mm 0,0 UV-I 0 W/m² 11,5 °C 13,1 °C 0,0 km/h (0 Bft)
03.08.2019 05:54 13,0 °C 91 % 1012,6 hPa 0,0 mm 0,0 km/h (0 Bft) S-SO 167 ° 0 min 0,000 mm 0,0 UV-I 0 W/m² 11,6 °C 13,0 °C 0,0 km/h (0 Bft)
03.08.2019 05:55 12,9 °C 91 % 1012,6 hPa 0,0 mm 0,0 km/h (0 Bft) S-SO 165 ° 0 min 0,000 mm 0,0 UV-I 0 W/m² 11,5 °C 12,9 °C 0,0 km/h (0 Bft)
03.08.2019 05:56 12,9 °C 91 % 1012,6 hPa 0,0 mm 0,0 km/h (0 Bft) S-SO 165 ° 0 min 0,000 mm 0,0 UV-I 0 W/m² 11,5 °C 12,9 °C 0,0 km/h (0 Bft)
03.08.2019 05:57 12,8 °C 91 % 1012,6 hPa 0,0 mm 0,0 km/h (0 Bft) S-SO 165 ° 0 min 0,000 mm 0,0 UV-I 0 W/m² 11,4 °C 12,8 °C 0,0 km/h (0 Bft)
03.08.2019 05:58 12,8 °C 91 % 1012,6 hPa 0,0 mm 0,0 km/h (0 Bft) S-SO 165 ° 0 min 0,000 mm 0,0 UV-I 0 W/m² 11,4 °C 12,8 °C 0,0 km/h (0 Bft)
03.08.2019 05:59 12,8 °C 91 % 1012,6 hPa 0,0 mm 0,0 km/h (0 Bft) S-SO 165 ° 0 min 0,000 mm 0,0 UV-I 0 W/m² 11,4 °C 12,8 °C 0,0 km/h (0 Bft)
03.08.2019 06:00 12,7 °C 91 % 1012,6 hPa 0,0 mm 0,0 km/h (0 Bft) S-SO 165 ° 0 min 0,000 mm 0,0 UV-I 0 W/m² 11,3 °C 12,7 °C 0,0 km/h (0 Bft)
03.08.2019 06:01 12,7 °C 92 % 1012,6 hPa 0,0 mm 0,0 km/h (0 Bft) S-SO 165 ° 0 min 0,000 mm 0,0 UV-I 0 W/m² 11,4 °C 12,7 °C 0,0 km/h (0 Bft)
03.08.2019 06:02 12,6 °C 92 % 1012,6 hPa 0,0 mm 0,0 km/h (0 Bft) S-SO 165 ° 0 min 0,000 mm 0,0 UV-I 0 W/m² 11,3 °C 12,6 °C 0,0 km/h (0 Bft)
03.08.2019 06:03 12,6 °C 92 % 1012,7 hPa 0,0 mm 0,0 km/h (0 Bft) S-SO 165 ° 0 min 0,000 mm 0,0 UV-I 5 W/m² 11,3 °C 12,6 °C 0,0 km/h (0 Bft)
03.08.2019 06:04 12,6 °C 92 % 1012,7 hPa 0,0 mm 0,0 km/h (0 Bft) S-SO 165 ° 0 min 0,000 mm 0,0 UV-I 5 W/m² 11,3 °C 12,6 °C 0,0 km/h (0 Bft)
03.08.2019 06:05 12,6 °C 92 % 1012,7 hPa 0,0 mm 0,0 km/h (0 Bft) S-SO 165 ° 0 min 0,000 mm 0,0 UV-I 5 W/m² 11,3 °C 12,6 °C 0,0 km/h (0 Bft)
03.08.2019 06:06 12,5 °C 92 % 1012,6 hPa 0,0 mm 0,0 km/h (0 Bft) S-SO 165 ° 0 min 0,000 mm 0,0 UV-I 5 W/m² 11,2 °C 12,5 °C 0,0 km/h (0 Bft)
03.08.2019 06:07 12,4 °C 92 % 1012,6 hPa 0,0 mm 0,0 km/h (0 Bft) S-SO 165 ° 0 min 0,000 mm 0,0 UV-I 7 W/m² 11,1 °C 12,4 °C 0,0 km/h (0 Bft)
03.08.2019 06:08 12,4 °C 92 % 1012,6 hPa 0,0 mm 0,0 km/h (0 Bft) S-SO 165 ° 0 min 0,000 mm 0,0 UV-I 7 W/m² 11,1 °C 12,4 °C 0,0 km/h (0 Bft)
03.08.2019 06:09 12,4 °C 92 % 1012,6 hPa 0,0 mm 0,0 km/h (0 Bft) S-SO 165 ° 0 min 0,000 mm 0,0 UV-I 7 W/m² 11,1 °C 12,4 °C 0,0 km/h (0 Bft)
03.08.2019 06:10 12,4 °C 92 % 1012,6 hPa 0,0 mm 0,0 km/h (0 Bft) S-SO 165 ° 0 min 0,000 mm 0,0 UV-I 7 W/m² 11,1 °C 12,4 °C 0,0 km/h (0 Bft)
03.08.2019 06:11 12,4 °C 93 % 1012,6 hPa 0,0 mm 0,0 km/h (0 Bft) S-SO 165 ° 0 min 0,000 mm 0,0 UV-I 7 W/m² 11,3 °C 12,4 °C 0,0 km/h (0 Bft)
03.08.2019 06:12 12,4 °C 92 % 1012,6 hPa 0,0 mm 0,0 km/h (0 Bft) S-SO 165 ° 0 min 0,000 mm 0,0 UV-I 7 W/m² 11,1 °C 12,4 °C 0,0 km/h (0 Bft)
03.08.2019 06:13 12,3 °C 93 % 1012,6 hPa 0,0 mm 0,0 km/h (0 Bft) S-SO 165 ° 0 min 0,000 mm 0,0 UV-I 9 W/m² 11,2 °C 12,3 °C 0,0 km/h (0 Bft)
03.08.2019 06:14 12,4 °C 93 % 1012,6 hPa 0,0 mm 0,0 km/h (0 Bft) S-SO 165 ° 0 min 0,000 mm 0,0 UV-I 9 W/m² 11,3 °C 12,4 °C 0,0 km/h (0 Bft)
03.08.2019 06:15 12,3 °C 93 % 1012,6 hPa 0,0 mm 0,0 km/h (0 Bft) S-SO 165 ° 0 min 0,000 mm 0,0 UV-I 9 W/m² 11,2 °C 12,3 °C 0,0 km/h (0 Bft)
03.08.2019 06:16 12,3 °C 93 % 1012,6 hPa 0,0 mm 0,0 km/h (0 Bft) S-SO 165 ° 0 min 0,000 mm 0,0 UV-I 9 W/m² 11,2 °C 12,3 °C 0,0 km/h (0 Bft)
03.08.2019 06:17 12,3 °C 93 % 1012,6 hPa 0,0 mm 0,0 km/h (0 Bft) S-SO 165 ° 0 min 0,000 mm 0,0 UV-I 9 W/m² 11,2 °C 12,3 °C 0,0 km/h (0 Bft)
03.08.2019 06:18 12,3 °C 93 % 1012,6 hPa 0,0 mm 0,0 km/h (0 Bft) S-SO 165 ° 0 min 0,000 mm 0,0 UV-I 9 W/m² 11,2 °C 12,3 °C 0,0 km/h (0 Bft)
03.08.2019 06:19 12,3 °C 93 % 1012,7 hPa 0,0 mm 0,0 km/h (0 Bft) S-SO 165 ° 0 min 0,000 mm 0,0 UV-I 9 W/m² 11,2 °C 12,3 °C 0,0 km/h (0 Bft)
03.08.2019 06:20 12,3 °C 93 % 1012,7 hPa 0,0 mm 0,0 km/h (0 Bft) S-SO 165 ° 0 min 0,000 mm 0,0 UV-I 11 W/m² 11,2 °C 12,3 °C 0,0 km/h (0 Bft)
03.08.2019 06:21 12,3 °C 93 % 1012,6 hPa 0,0 mm 0,0 km/h (0 Bft) S-SO 167 ° 0 min 0,000 mm 0,0 UV-I 11 W/m² 11,2 °C 12,3 °C 0,0 km/h (0 Bft)
03.08.2019 06:22 12,4 °C 93 % 1012,7 hPa 0,0 mm 1,4 km/h (1 Bft) S 185 ° 0 min 0,000 mm 0,0 UV-I 11 W/m² 11,3 °C 12,4 °C 4,8 km/h (1 Bft)
03.08.2019 06:23 12,4 °C 93 % 1012,7 hPa 0,0 mm 0,0 km/h (0 Bft) S 185 ° 0 min 0,000 mm 0,0 UV-I 11 W/m² 11,3 °C 12,4 °C 0,0 km/h (0 Bft)
03.08.2019 06:24 12,5 °C 93 % 1012,6 hPa 0,0 mm 0,0 km/h (0 Bft) S 185 ° 0 min 0,000 mm 0,0 UV-I 11 W/m² 11,4 °C 12,5 °C 0,0 km/h (0 Bft)
03.08.2019 06:25 12,6 °C 93 % 1012,6 hPa 0,0 mm 0,0 km/h (0 Bft) S 185 ° 0 min 0,000 mm 0,0 UV-I 11 W/m² 11,5 °C 12,6 °C 0,0 km/h (0 Bft)
03.08.2019 06:26 12,6 °C 93 % 1012,6 hPa 0,0 mm 0,3 km/h (0 Bft) S 182 ° 0 min 0,000 mm 0,0 UV-I 11 W/m² 11,5 °C 12,6 °C 1,6 km/h (1 Bft)
03.08.2019 06:27 12,7 °C 93 % 1012,6 hPa 0,0 mm 0,0 km/h (0 Bft) S 182 ° 0 min 0,000 mm 0,0 UV-I 11 W/m² 11,6 °C 12,7 °C 0,0 km/h (0 Bft)
03.08.2019 06:28 12,8 °C 93 % 1012,6 hPa 0,0 mm 0,0 km/h (0 Bft) S 182 ° 0 min 0,000 mm 0,0 UV-I 11 W/m² 11,7 °C 12,8 °C 0,0 km/h (0 Bft)
03.08.2019 06:29 12,8 °C 93 % 1012,6 hPa 0,0 mm 0,0 km/h (0 Bft) S 182 ° 0 min 0,000 mm 0,0 UV-I 11 W/m² 11,7 °C 12,8 °C 0,0 km/h (0 Bft)
03.08.2019 06:30 12,8 °C 93 % 1012,6 hPa 0,0 mm 0,0 km/h (0 Bft) S 182 ° 0 min 0,000 mm 0,0 UV-I 11 W/m² 11,7 °C 12,8 °C 0,0 km/h (0 Bft)
03.08.2019 06:31 12,8 °C 93 % 1012,6 hPa 0,0 mm 0,0 km/h (0 Bft) S 182 ° 0 min 0,000 mm 0,0 UV-I 12 W/m² 11,7 °C 12,8 °C 0,0 km/h (0 Bft)
03.08.2019 06:32 12,7 °C 93 % 1012,6 hPa 0,0 mm 0,0 km/h (0 Bft) S 182 ° 0 min 0,000 mm 0,0 UV-I 12 W/m² 11,6 °C 12,7 °C 0,0 km/h (0 Bft)
03.08.2019 06:33 12,7 °C 93 % 1012,6 hPa 0,0 mm 0,0 km/h (0 Bft) S 182 ° 0 min 0,000 mm 0,0 UV-I 14 W/m² 11,6 °C 12,7 °C 0,0 km/h (0 Bft)
03.08.2019 06:34 12,6 °C 93 % 1012,7 hPa 0,0 mm 0,0 km/h (0 Bft) S 182 ° 0 min 0,000 mm 0,0 UV-I 16 W/m² 11,5 °C 12,6 °C 0,0 km/h (0 Bft)
03.08.2019 06:35 12,6 °C 93 % 1012,7 hPa 0,0 mm 0,3 km/h (0 Bft) S 182 ° 0 min 0,000 mm 0,0 UV-I 18 W/m² 11,5 °C 12,6 °C 1,6 km/h (1 Bft)
03.08.2019 06:36 12,6 °C 93 % 1012,6 hPa 0,0 mm 0,0 km/h (0 Bft) S 182 ° 0 min 0,000 mm 0,0 UV-I 23 W/m² 11,5 °C 12,6 °C 0,0 km/h (0 Bft)
03.08.2019 06:37 12,5 °C 93 % 1012,6 hPa 0,0 mm 0,0 km/h (0 Bft) S 182 ° 0 min 0,000 mm 0,0 UV-I 26 W/m² 11,4 °C 12,5 °C 0,0 km/h (0 Bft)
03.08.2019 06:38 12,5 °C 93 % 1012,6 hPa 0,0 mm 0,0 km/h (0 Bft) S 182 ° 0 min 0,000 mm 0,0 UV-I 28 W/m² 11,4 °C 12,5 °C 0,0 km/h (0 Bft)
03.08.2019 06:39 12,4 °C 93 % 1012,6 hPa 0,0 mm 0,0 km/h (0 Bft) S 182 ° 0 min 0,000 mm 0,0 UV-I 32 W/m² 11,3 °C 12,4 °C 0,0 km/h (0 Bft)
03.08.2019 06:40 12,4 °C 93 % 1012,6 hPa 0,0 mm 0,0 km/h (0 Bft) S 182 ° 0 min 0,000 mm 0,0 UV-I 35 W/m² 11,3 °C 12,4 °C 0,0 km/h (0 Bft)
03.08.2019 06:41 12,4 °C 93 % 1012,5 hPa 0,0 mm 0,0 km/h (0 Bft) S 182 ° 0 min 0,000 mm 0,0 UV-I 42 W/m² 11,3 °C 12,4 °C 0,0 km/h (0 Bft)
03.08.2019 06:42 12,4 °C 93 % 1012,5 hPa 0,0 mm 0,0 km/h (0 Bft) S 182 ° 0 min 0,000 mm 0,0 UV-I 44 W/m² 11,3 °C 12,4 °C 0,0 km/h (0 Bft)
03.08.2019 06:43 12,5 °C 93 % 1012,6 hPa 0,0 mm 0,0 km/h (0 Bft) S 182 ° 0 min 0,000 mm 0,0 UV-I 44 W/m² 11,4 °C 12,5 °C 0,0 km/h (0 Bft)
03.08.2019 06:44 12,5 °C 93 % 1012,6 hPa 0,0 mm 0,1 km/h (0 Bft) S 182 ° 0 min 0,000 mm 0,0 UV-I 44 W/m² 11,4 °C 12,5 °C 1,6 km/h (1 Bft)
03.08.2019 06:45 12,6 °C 93 % 1012,6 hPa 0,0 mm 0,1 km/h (0 Bft) S 182 ° 0 min 0,000 mm 0,0 UV-I 44 W/m² 11,5 °C 12,6 °C 1,6 km/h (1 Bft)
03.08.2019 06:46 12,5 °C 93 % 1012,5 hPa 0,0 mm 0,0 km/h (0 Bft) S 182 ° 0 min 0,000 mm 0,0 UV-I 44 W/m² 11,4 °C 12,5 °C 0,0 km/h (0 Bft)
03.08.2019 06:47 12,5 °C 93 % 1012,5 hPa 0,0 mm 0,0 km/h (0 Bft) S 182 ° 0 min 0,000 mm 0,0 UV-I 39 W/m² 11,4 °C 12,5 °C 0,0 km/h (0 Bft)
03.08.2019 06:48 12,5 °C 93 % 1012,5 hPa 0,0 mm 0,1 km/h (0 Bft) S 182 ° 0 min 0,000 mm 0,0 UV-I 39 W/m² 11,4 °C 12,5 °C 1,6 km/h (1 Bft)
03.08.2019 06:49 12,5 °C 93 % 1012,5 hPa 0,0 mm 0,1 km/h (0 Bft) S 182 ° 0 min 0,000 mm 0,0 UV-I 40 W/m² 11,4 °C 12,5 °C 1,6 km/h (1 Bft)
03.08.2019 06:50 12,5 °C 93 % 1012,5 hPa 0,0 mm 0,0 km/h (0 Bft) S 182 ° 0 min 0,000 mm 0,0 UV-I 42 W/m² 11,4 °C 12,5 °C 0,0 km/h (0 Bft)
03.08.2019 06:51 12,5 °C 93 % 1012,6 hPa 0,0 mm 0,0 km/h (0 Bft) S 182 ° 0 min 0,000 mm 0,0 UV-I 46 W/m² 11,4 °C 12,5 °C 0,0 km/h (0 Bft)
03.08.2019 06:52 12,5 °C 93 % 1012,6 hPa 0,0 mm 0,0 km/h (0 Bft) S 182 ° 0 min 0,000 mm 0,0 UV-I 49 W/m² 11,4 °C 12,5 °C 0,0 km/h (0 Bft)
03.08.2019 06:53 12,5 °C 93 % 1012,6 hPa 0,0 mm 0,0 km/h (0 Bft) S 182 ° 0 min 0,000 mm 0,0 UV-I 56 W/m² 11,4 °C 12,5 °C 0,0 km/h (0 Bft)
03.08.2019 06:54 12,5 °C 93 % 1012,6 hPa 0,0 mm 0,0 km/h (0 Bft) S 182 ° 0 min 0,000 mm 0,0 UV-I 58 W/m² 11,4 °C 12,5 °C 0,0 km/h (0 Bft)
03.08.2019 06:55 12,5 °C 93 % 1012,6 hPa 0,0 mm 0,0 km/h (0 Bft) S 182 ° 0 min 0,000 mm 0,0 UV-I 58 W/m² 11,4 °C 12,5 °C 0,0 km/h (0 Bft)
03.08.2019 06:56 12,6 °C 93 % 1012,6 hPa 0,0 mm 0,0 km/h (0 Bft) S 182 ° 0 min 0,000 mm 0,0 UV-I 62 W/m² 11,5 °C 12,6 °C 0,0 km/h (0 Bft)
03.08.2019 06:57 12,5 °C 93 % 1012,6 hPa 0,0 mm 0,0 km/h (0 Bft) S 182 ° 0 min 0,000 mm 0,0 UV-I 67 W/m² 11,4 °C 12,5 °C 0,0 km/h (0 Bft)
03.08.2019 06:58 12,5 °C 93 % 1012,6 hPa 0,0 mm 0,0 km/h (0 Bft) S 182 ° 0 min 0,000 mm 0,0 UV-I 72 W/m² 11,4 °C 12,5 °C 0,0 km/h (0 Bft)
03.08.2019 06:59 12,6 °C 93 % 1012,6 hPa 0,0 mm 0,0 km/h (0 Bft) S 182 ° 0 min 0,000 mm 0,0 UV-I 86 W/m² 11,5 °C 12,6 °C 0,0 km/h (0 Bft)
03.08.2019 07:00 12,6 °C 93 % 1012,6 hPa 0,0 mm 0,0 km/h (0 Bft) S 182 ° 0 min 0,000 mm 0,0 UV-I 79 W/m² 11,5 °C 12,6 °C 0,0 km/h (0 Bft)
03.08.2019 07:01 12,6 °C 94 % 1012,6 hPa 0,0 mm 0,0 km/h (0 Bft) S 182 ° 0 min 0,025 mm 0,0 UV-I 53 W/m² 11,7 °C 12,6 °C 0,0 km/h (0 Bft)
03.08.2019 07:02 12,6 °C 94 % 1012,6 hPa 0,0 mm 0,0 km/h (0 Bft) S 182 ° 0 min 0,000 mm 0,0 UV-I 53 W/m² 11,7 °C 12,6 °C 0,0 km/h (0 Bft)
03.08.2019 07:03 12,6 °C 94 % 1012,6 hPa 0,0 mm 0,0 km/h (0 Bft) S 182 ° 0 min 0,000 mm 0,0 UV-I 67 W/m² 11,7 °C 12,6 °C 0,0 km/h (0 Bft)
03.08.2019 07:04 12,6 °C 94 % 1012,6 hPa 0,0 mm 0,0 km/h (0 Bft) S 182 ° 0 min 0,000 mm 0,0 UV-I 49 W/m² 11,7 °C 12,6 °C 0,0 km/h (0 Bft)
03.08.2019 07:05 12,6 °C 94 % 1012,6 hPa 0,0 mm 0,0 km/h (0 Bft) S 182 ° 0 min 0,000 mm 0,0 UV-I 86 W/m² 11,7 °C 12,6 °C 0,0 km/h (0 Bft)
03.08.2019 07:06 12,7 °C 94 % 1012,6 hPa 0,0 mm 0,0 km/h (0 Bft) S 182 ° 0 min 0,000 mm 0,0 UV-I 86 W/m² 11,8 °C 12,7 °C 0,0 km/h (0 Bft)
03.08.2019 07:07 12,7 °C 94 % 1012,6 hPa 0,0 mm 0,0 km/h (0 Bft) S 182 ° 0 min 0,000 mm 0,0 UV-I 83 W/m² 11,8 °C 12,7 °C 0,0 km/h (0 Bft)
03.08.2019 07:08 12,7 °C 94 % 1012,6 hPa 0,0 mm 0,0 km/h (0 Bft) S 182 ° 0 min 0,000 mm 0,0 UV-I 83 W/m² 11,8 °C 12,7 °C 0,0 km/h (0 Bft)
03.08.2019 07:09 12,8 °C 94 % 1012,6 hPa 0,0 mm 2,5 km/h (1 Bft) S 182 ° 0 min 0,000 mm 0,0 UV-I 53 W/m² 11,9 °C 12,8 °C 4,8 km/h (1 Bft)
03.08.2019 07:10 12,8 °C 94 % 1012,6 hPa 0,0 mm 0,2 km/h (0 Bft) S 182 ° 0 min 0,000 mm 0,0 UV-I 53 W/m² 11,9 °C 12,8 °C 1,6 km/h (1 Bft)
03.08.2019 07:11 12,8 °C 94 % 1012,6 hPa 0,0 mm 0,0 km/h (0 Bft) S 182 ° 0 min 0,000 mm 0,0 UV-I 54 W/m² 11,9 °C 12,8 °C 0,0 km/h (0 Bft)
03.08.2019 07:12 12,9 °C 93 % 1012,6 hPa 0,0 mm 0,0 km/h (0 Bft) S 182 ° 0 min 0,000 mm 0,0 UV-I 93 W/m² 11,8 °C 12,9 °C 0,0 km/h (0 Bft)
03.08.2019 07:13 13,1 °C 93 % 1012,6 hPa 0,0 mm 2,3 km/h (1 Bft) S 188 ° 0 min 0,000 mm 0,0 UV-I 102 W/m² 12,0 °C 13,1 °C 6,4 km/h (2 Bft)
03.08.2019 07:14 13,3 °C 93 % 1012,6 hPa 0,0 mm 0,7 km/h (0 Bft) S 188 ° 0 min 0,000 mm 0,0 UV-I 104 W/m² 12,2 °C 13,3 °C 3,2 km/h (1 Bft)
03.08.2019 07:15 13,4 °C 92 % 1012,6 hPa 0,0 mm 0,2 km/h (0 Bft) S 189 ° 0 min 0,000 mm 0,0 UV-I 104 W/m² 12,1 °C 13,4 °C 1,6 km/h (1 Bft)
03.08.2019 07:16 13,4 °C 92 % 1012,7 hPa 0,0 mm 0,0 km/h (0 Bft) S 189 ° 0 min 0,000 mm 0,5 UV-I 102 W/m² 12,1 °C 13,4 °C 0,0 km/h (0 Bft)
03.08.2019 07:17 13,4 °C 92 % 1012,7 hPa 0,0 mm 0,3 km/h (0 Bft) S 191 ° 0 min 0,000 mm 0,5 UV-I 104 W/m² 12,1 °C 13,4 °C 3,2 km/h (1 Bft)
03.08.2019 07:18 13,3 °C 92 % 1012,7 hPa 0,0 mm 1,9 km/h (1 Bft) S 191 ° 0 min 0,000 mm 0,5 UV-I 105 W/m² 12,0 °C 13,3 °C 3,2 km/h (1 Bft)
03.08.2019 07:19 13,3 °C 92 % 1012,7 hPa 0,0 mm 0,0 km/h (0 Bft) S 191 ° 0 min 0,000 mm 0,5 UV-I 107 W/m² 12,0 °C 13,3 °C 0,0 km/h (0 Bft)
03.08.2019 07:20 13,2 °C 92 % 1012,6 hPa 0,0 mm 0,0 km/h (0 Bft) S 191 ° 0 min 0,000 mm 0,5 UV-I 100 W/m² 11,9 °C 13,2 °C 0,0 km/h (0 Bft)
03.08.2019 07:21 13,2 °C 92 % 1012,7 hPa 0,0 mm 0,1 km/h (0 Bft) S 190 ° 0 min 0,000 mm 0,5 UV-I 102 W/m² 11,9 °C 13,2 °C 1,6 km/h (1 Bft)
03.08.2019 07:22 13,2 °C 92 % 1012,7 hPa 0,0 mm 0,0 km/h (0 Bft) S 190 ° 0 min 0,000 mm 0,5 UV-I 76 W/m² 11,9 °C 13,2 °C 0,0 km/h (0 Bft)
03.08.2019 07:23 13,1 °C 92 % 1012,7 hPa 0,0 mm 0,7 km/h (0 Bft) S 173 ° 0 min 0,000 mm 0,5 UV-I 81 W/m² 11,8 °C 13,1 °C 3,2 km/h (1 Bft)
03.08.2019 07:24 13,2 °C 93 % 1012,7 hPa 0,0 mm 0,0 km/h (0 Bft) S 173 ° 0 min 0,000 mm 0,5 UV-I 79 W/m² 12,1 °C 13,2 °C 0,0 km/h (0 Bft)
03.08.2019 07:25 13,3 °C 93 % 1012,7 hPa 0,0 mm 0,0 km/h (0 Bft) S 173 ° 0 min 0,000 mm 0,5 UV-I 70 W/m² 12,2 °C 13,3 °C 0,0 km/h (0 Bft)
03.08.2019 07:26 13,3 °C 92 % 1012,7 hPa 0,0 mm 0,2 km/h (0 Bft) S 177 ° 0 min 0,000 mm 0,5 UV-I 67 W/m² 12,0 °C 13,3 °C 4,8 km/h (1 Bft)
03.08.2019 07:27 13,4 °C 92 % 1012,7 hPa 0,0 mm 2,0 km/h (1 Bft) S 182 ° 0 min 0,000 mm 0,5 UV-I 67 W/m² 12,1 °C 13,4 °C 6,4 km/h (2 Bft)
03.08.2019 07:28 13,5 °C 92 % 1012,6 hPa 0,0 mm 0,0 km/h (0 Bft) S 182 ° 0 min 0,000 mm 0,5 UV-I 69 W/m² 12,2 °C 13,5 °C 0,0 km/h (0 Bft)
03.08.2019 07:29 13,6 °C 92 % 1012,7 hPa 0,0 mm 0,0 km/h (0 Bft) S 184 ° 0 min 0,000 mm 0,6 UV-I 76 W/m² 12,3 °C 13,6 °C 0,0 km/h (0 Bft)
03.08.2019 07:30 13,7 °C 91 % 1012,7 hPa 0,0 mm 0,0 km/h (0 Bft) S 184 ° 0 min 0,000 mm 0,6 UV-I 81 W/m² 12,3 °C 13,7 °C 0,0 km/h (0 Bft)
03.08.2019 07:31 13,8 °C 91 % 1012,7 hPa 0,0 mm 0,0 km/h (0 Bft) S 184 ° 0 min 0,000 mm 0,6 UV-I 86 W/m² 12,4 °C 13,8 °C 0,0 km/h (0 Bft)
03.08.2019 07:32 13,8 °C 91 % 1012,7 hPa 0,0 mm 0,0 km/h (0 Bft) S 184 ° 0 min 0,000 mm 0,6 UV-I 88 W/m² 12,4 °C 13,8 °C 0,0 km/h (0 Bft)
03.08.2019 07:33 13,8 °C 91 % 1012,7 hPa 0,0 mm 0,0 km/h (0 Bft) S 184 ° 0 min 0,000 mm 0,6 UV-I 90 W/m² 12,4 °C 13,8 °C 0,0 km/h (0 Bft)
03.08.2019 07:34 13,9 °C 90 % 1012,7 hPa 0,0 mm 0,0 km/h (0 Bft) S 184 ° 0 min 0,000 mm 0,6 UV-I 93 W/m² 12,3 °C 13,9 °C 0,0 km/h (0 Bft)
03.08.2019 07:35 13,9 °C 91 % 1012,7 hPa 0,0 mm 0,0 km/h (0 Bft) S 184 ° 0 min 0,000 mm 0,6 UV-I 102 W/m² 12,5 °C 13,9 °C 0,0 km/h (0 Bft)
03.08.2019 07:36 13,9 °C 91 % 1012,7 hPa 0,0 mm 0,0 km/h (0 Bft) S 184 ° 0 min 0,000 mm 0,6 UV-I 118 W/m² 12,5 °C 13,9 °C 0,0 km/h (0 Bft)
03.08.2019 07:37 13,9 °C 91 % 1012,7 hPa 0,0 mm 0,0 km/h (0 Bft) S 184 ° 0 min 0,000 mm 0,6 UV-I 120 W/m² 12,5 °C 13,9 °C 0,0 km/h (0 Bft)
03.08.2019 07:38 13,9 °C 92 % 1012,7 hPa 0,0 mm 0,0 km/h (0 Bft) S 184 ° 0 min 0,000 mm 0,6 UV-I 100 W/m² 12,6 °C 13,9 °C 0,0 km/h (0 Bft)
03.08.2019 07:39 13,9 °C 92 % 1012,7 hPa 0,0 mm 0,0 km/h (0 Bft) S 184 ° 0 min 0,000 mm 0,6 UV-I 95 W/m² 12,6 °C 13,9 °C 0,0 km/h (0 Bft)
03.08.2019 07:40 13,9 °C 92 % 1012,7 hPa 0,0 mm 0,0 km/h (0 Bft) S 184 ° 0 min 0,000 mm 0,6 UV-I 79 W/m² 12,6 °C 13,9 °C 0,0 km/h (0 Bft)
03.08.2019 07:41 13,9 °C 92 % 1012,8 hPa 0,0 mm 0,0 km/h (0 Bft) S 184 ° 0 min 0,000 mm 0,6 UV-I 76 W/m² 12,6 °C 13,9 °C 0,0 km/h (0 Bft)
03.08.2019 07:42 13,8 °C 92 % 1012,8 hPa 0,0 mm 0,0 km/h (0 Bft) S 184 ° 0 min 0,000 mm 0,6 UV-I 74 W/m² 12,5 °C 13,8 °C 0,0 km/h (0 Bft)
03.08.2019 07:43 13,8 °C 92 % 1012,7 hPa 0,0 mm 0,0 km/h (0 Bft) S 184 ° 0 min 0,000 mm 0,6 UV-I 76 W/m² 12,5 °C 13,8 °C 0,0 km/h (0 Bft)
03.08.2019 07:44 13,8 °C 92 % 1012,7 hPa 0,0 mm 0,0 km/h (0 Bft) S 184 ° 0 min 0,000 mm 0,6 UV-I 77 W/m² 12,5 °C 13,8 °C 0,0 km/h (0 Bft)
03.08.2019 07:45 13,8 °C 92 % 1012,7 hPa 0,0 mm 0,0 km/h (0 Bft) S 184 ° 0 min 0,000 mm 0,7 UV-I 88 W/m² 12,5 °C 13,8 °C 0,0 km/h (0 Bft)
03.08.2019 07:46 13,8 °C 92 % 1012,8 hPa 0,0 mm 0,0 km/h (0 Bft) S 184 ° 0 min 0,000 mm 0,7 UV-I 84 W/m² 12,5 °C 13,8 °C 0,0 km/h (0 Bft)
03.08.2019 07:47 13,8 °C 92 % 1012,8 hPa 0,0 mm 0,0 km/h (0 Bft) S 184 ° 0 min 0,000 mm 0,7 UV-I 105 W/m² 12,5 °C 13,8 °C 0,0 km/h (0 Bft)
03.08.2019 07:48 13,9 °C 91 % 1012,7 hPa 0,0 mm 0,0 km/h (0 Bft) S 184 ° 0 min 0,000 mm 0,8 UV-I 174 W/m² 12,5 °C 13,9 °C 0,0 km/h (0 Bft)
03.08.2019 07:49 14,1 °C 92 % 1012,7 hPa 0,0 mm 0,0 km/h (0 Bft) S 184 ° 0 min 0,000 mm 0,8 UV-I 178 W/m² 12,8 °C 14,1 °C 0,0 km/h (0 Bft)
03.08.2019 07:50 14,1 °C 92 % 1012,7 hPa 0,0 mm 0,0 km/h (0 Bft) S 184 ° 0 min 0,000 mm 0,8 UV-I 165 W/m² 12,8 °C 14,1 °C 0,0 km/h (0 Bft)
03.08.2019 07:51 14,2 °C 92 % 1012,8 hPa 0,0 mm 0,0 km/h (0 Bft) S 184 ° 0 min 0,000 mm 0,9 UV-I 181 W/m² 12,9 °C 14,2 °C 0,0 km/h (0 Bft)
03.08.2019 07:52 14,2 °C 92 % 1012,7 hPa 0,0 mm 0,0 km/h (0 Bft) S 184 ° 0 min 0,000 mm 0,9 UV-I 214 W/m² 12,9 °C 14,2 °C 0,0 km/h (0 Bft)
03.08.2019 07:53 14,2 °C 92 % 1012,8 hPa 0,0 mm 0,0 km/h (0 Bft) S 184 ° 0 min 0,000 mm 0,9 UV-I 220 W/m² 12,9 °C 14,2 °C 0,0 km/h (0 Bft)
03.08.2019 07:54 14,2 °C 92 % 1012,8 hPa 0,0 mm 0,0 km/h (0 Bft) S 184 ° 0 min 0,000 mm 0,9 UV-I 221 W/m² 12,9 °C 14,2 °C 0,0 km/h (0 Bft)
03.08.2019 07:55 14,3 °C 92 % 1012,8 hPa 0,0 mm 0,0 km/h (0 Bft) S 184 ° 0 min 0,000 mm 0,9 UV-I 221 W/m² 13,0 °C 14,3 °C 0,0 km/h (0 Bft)
03.08.2019 07:56 14,4 °C 91 % 1012,8 hPa 0,0 mm 0,8 km/h (0 Bft) S 185 ° 0 min 0,000 mm 0,9 UV-I 221 W/m² 12,9 °C 14,4 °C 3,2 km/h (1 Bft)
03.08.2019 07:57 14,6 °C 91 % 1012,8 hPa 0,0 mm 1,1 km/h (1 Bft) S 186 ° 0 min 0,000 mm 0,9 UV-I 227 W/m² 13,1 °C 14,6 °C 3,2 km/h (1 Bft)
03.08.2019 07:58 14,8 °C 91 % 1012,8 hPa 0,0 mm 0,0 km/h (0 Bft) S 186 ° 0 min 0,000 mm 1,0 UV-I 232 W/m² 13,3 °C 14,8 °C 0,0 km/h (0 Bft)
03.08.2019 07:59 15,0 °C 91 % 1012,8 hPa 0,0 mm 0,0 km/h (0 Bft) S 186 ° 0 min 0,000 mm 1,0 UV-I 179 W/m² 13,5 °C 15,0 °C 0,0 km/h (0 Bft)
03.08.2019 08:00 15,1 °C 91 % 1012,8 hPa 0,0 mm 0,0 km/h (0 Bft) S 186 ° 0 min 0,000 mm 1,0 UV-I 258 W/m² 13,6 °C 15,1 °C 0,0 km/h (0 Bft)
03.08.2019 08:01 15,2 °C 90 % 1012,8 hPa 0,0 mm 0,0 km/h (0 Bft) S 186 ° 0 min 0,051 mm 0,9 UV-I 195 W/m² 13,6 °C 15,2 °C 0,0 km/h (0 Bft)
03.08.2019 08:02 15,1 °C 89 % 1012,8 hPa 0,0 mm 0,0 km/h (0 Bft) S 186 ° 0 min 0,000 mm 0,9 UV-I 137 W/m² 13,3 °C 15,1 °C 0,0 km/h (0 Bft)
03.08.2019 08:03 15,1 °C 89 % 1012,8 hPa 0,0 mm 0,0 km/h (0 Bft) S 185 ° 0 min 0,000 mm 0,8 UV-I 114 W/m² 13,3 °C 15,1 °C 0,0 km/h (0 Bft)
03.08.2019 08:04 15,0 °C 90 % 1012,8 hPa 0,0 mm 0,0 km/h (0 Bft) S 185 ° 0 min 0,000 mm 0,8 UV-I 102 W/m² 13,4 °C 15,0 °C 0,0 km/h (0 Bft)
03.08.2019 08:05 14,9 °C 90 % 1012,8 hPa 0,0 mm 0,0 km/h (0 Bft) S 185 ° 0 min 0,000 mm 0,9 UV-I 91 W/m² 13,3 °C 14,9 °C 0,0 km/h (0 Bft)
03.08.2019 08:06 14,9 °C 90 % 1012,8 hPa 0,0 mm 0,0 km/h (0 Bft) S 185 ° 0 min 0,000 mm 0,9 UV-I 90 W/m² 13,3 °C 14,9 °C 0,0 km/h (0 Bft)
03.08.2019 08:07 14,9 °C 90 % 1012,8 hPa 0,0 mm 0,0 km/h (0 Bft) S 185 ° 0 min 0,000 mm 0,9 UV-I 88 W/m² 13,3 °C 14,9 °C 0,0 km/h (0 Bft)
03.08.2019 08:08 14,9 °C 89 % 1012,8 hPa 0,0 mm 1,3 km/h (1 Bft) S 185 ° 0 min 0,000 mm 0,9 UV-I 86 W/m² 13,1 °C 14,9 °C 3,2 km/h (1 Bft)
03.08.2019 08:09 15,0 °C 89 % 1012,8 hPa 0,0 mm 2,3 km/h (1 Bft) S 185 ° 0 min 0,000 mm 0,9 UV-I 95 W/m² 13,2 °C 15,0 °C 3,2 km/h (1 Bft)
03.08.2019 08:10 15,0 °C 88 % 1012,8 hPa 0,0 mm 4,2 km/h (1 Bft) S-SW 200 ° 0 min 0,000 mm 1,0 UV-I 107 W/m² 13,0 °C 15,0 °C 6,4 km/h (2 Bft)
03.08.2019 08:11 15,0 °C 87 % 1012,9 hPa 0,0 mm 5,4 km/h (1 Bft) S-SW 201 ° 0 min 0,000 mm 1,1 UV-I 107 W/m² 12,9 °C 15,0 °C 8,0 km/h (2 Bft)
03.08.2019 08:12 15,1 °C 87 % 1012,9 hPa 0,0 mm 3,6 km/h (1 Bft) S-SW 201 ° 0 min 0,000 mm 1,1 UV-I 271 W/m² 13,0 °C 15,1 °C 6,4 km/h (2 Bft)
03.08.2019 08:13 15,1 °C 87 % 1012,9 hPa 0,0 mm 0,0 km/h (0 Bft) S-SW 201 ° 0 min 0,000 mm 1,1 UV-I 267 W/m² 13,0 °C 15,1 °C 0,0 km/h (0 Bft)
03.08.2019 08:14 15,1 °C 87 % 1012,9 hPa 0,0 mm 2,7 km/h (1 Bft) S-SW 196 ° 0 min 0,000 mm 1,2 UV-I 213 W/m² 13,0 °C 15,1 °C 4,8 km/h (1 Bft)
03.08.2019 08:15 15,2 °C 86 % 1012,9 hPa 0,0 mm 1,7 km/h (1 Bft) SW 229 ° 0 min 0,000 mm 1,2 UV-I 262 W/m² 12,9 °C 15,2 °C 4,8 km/h (1 Bft)
03.08.2019 08:16 15,3 °C 86 % 1012,9 hPa 0,0 mm 0,3 km/h (0 Bft) S-SW 210 ° 0 min 0,000 mm 1,2 UV-I 294 W/m² 13,0 °C 15,3 °C 1,6 km/h (1 Bft)
03.08.2019 08:17 15,3 °C 86 % 1012,9 hPa 0,0 mm 4,0 km/h (1 Bft) S-SO 151 ° 0 min 0,000 mm 1,2 UV-I 290 W/m² 13,0 °C 15,3 °C 8,0 km/h (2 Bft)
03.08.2019 08:18 15,4 °C 85 % 1012,8 hPa 0,0 mm 3,0 km/h (1 Bft) S 178 ° 0 min 0,000 mm 1,3 UV-I 288 W/m² 12,9 °C 15,4 °C 6,4 km/h (2 Bft)
03.08.2019 08:19 15,6 °C 85 % 1012,9 hPa 0,0 mm 0,8 km/h (0 Bft) S 178 ° 0 min 0,000 mm 1,3 UV-I 294 W/m² 13,1 °C 15,6 °C 3,2 km/h (1 Bft)
03.08.2019 08:20 15,7 °C 86 % 1012,9 hPa 0,0 mm 0,1 km/h (0 Bft) S 178 ° 0 min 0,000 mm 1,3 UV-I 264 W/m² 13,4 °C 15,7 °C 1,6 km/h (1 Bft)
03.08.2019 08:21 15,7 °C 86 % 1012,9 hPa 0,0 mm 1,3 km/h (1 Bft) W-SW 246 ° 0 min 0,000 mm 1,3 UV-I 338 W/m² 13,4 °C 15,7 °C 4,8 km/h (1 Bft)
03.08.2019 08:22 15,7 °C 86 % 1012,9 hPa 0,0 mm 2,5 km/h (1 Bft) SW 232 ° 0 min 0,000 mm 1,3 UV-I 334 W/m² 13,4 °C 15,7 °C 4,8 km/h (1 Bft)
03.08.2019 08:23 15,9 °C 86 % 1012,9 hPa 0,0 mm 2,1 km/h (1 Bft) W-SW 254 ° 0 min 0,000 mm 1,2 UV-I 292 W/m² 13,6 °C 15,9 °C 4,8 km/h (1 Bft)
03.08.2019 08:24 15,9 °C 88 % 1012,9 hPa 0,0 mm 2,6 km/h (1 Bft) S-SW 200 ° 0 min 0,000 mm 1,2 UV-I 241 W/m² 13,9 °C 15,9 °C 4,8 km/h (1 Bft)
03.08.2019 08:25 16,0 °C 86 % 1012,9 hPa 0,0 mm 4,6 km/h (1 Bft) SW 234 ° 0 min 0,000 mm 1,2 UV-I 181 W/m² 13,7 °C 16,0 °C 8,0 km/h (2 Bft)
03.08.2019 08:26 16,2 °C 85 % 1012,9 hPa 0,0 mm 4,6 km/h (1 Bft) SW 232 ° 0 min 0,000 mm 1,1 UV-I 237 W/m² 13,7 °C 16,2 °C 6,4 km/h (2 Bft)
03.08.2019 08:27 16,3 °C 84 % 1012,9 hPa 0,0 mm 5,7 km/h (1 Bft) SW 234 ° 0 min 0,000 mm 1,1 UV-I 121 W/m² 13,6 °C 16,3 °C 8,0 km/h (2 Bft)
03.08.2019 08:28 16,3 °C 84 % 1012,9 hPa 0,0 mm 3,1 km/h (1 Bft) W-SW 240 ° 0 min 0,000 mm 1,1 UV-I 116 W/m² 13,6 °C 16,3 °C 4,8 km/h (1 Bft)
03.08.2019 08:29 16,3 °C 84 % 1013,0 hPa 0,0 mm 4,1 km/h (1 Bft) W-SW 246 ° 0 min 0,000 mm 1,1 UV-I 114 W/m² 13,6 °C 16,3 °C 4,8 km/h (1 Bft)
03.08.2019 08:30 16,3 °C 84 % 1012,9 hPa 0,0 mm 1,3 km/h (1 Bft) S-SW 211 ° 0 min 0,000 mm 1,1 UV-I 130 W/m² 13,6 °C 16,3 °C 4,8 km/h (1 Bft)
03.08.2019 08:31 16,3 °C 84 % 1012,9 hPa 0,0 mm 1,2 km/h (1 Bft) W 265 ° 0 min 0,000 mm 1,2 UV-I 171 W/m² 13,6 °C 16,3 °C 6,4 km/h (2 Bft)
03.08.2019 08:32 16,3 °C 83 % 1012,9 hPa 0,0 mm 3,8 km/h (1 Bft) S-SW 211 ° 0 min 0,000 mm 1,2 UV-I 178 W/m² 13,4 °C 16,3 °C 8,0 km/h (2 Bft)
03.08.2019 08:33 16,3 °C 82 % 1012,9 hPa 0,0 mm 0,5 km/h (0 Bft) S-SW 210 ° 0 min 0,000 mm 1,3 UV-I 178 W/m² 13,2 °C 16,3 °C 1,6 km/h (1 Bft)
03.08.2019 08:34 16,4 °C 83 % 1012,9 hPa 0,0 mm 0,4 km/h (0 Bft) W-SW 252 ° 0 min 0,000 mm 1,1 UV-I 179 W/m² 13,5 °C 16,4 °C 3,2 km/h (1 Bft)
03.08.2019 08:35 16,4 °C 83 % 1013,0 hPa 0,0 mm 1,8 km/h (1 Bft) W 267 ° 0 min 0,000 mm 1,1 UV-I 179 W/m² 13,5 °C 16,4 °C 4,8 km/h (1 Bft)
03.08.2019 08:36 16,5 °C 83 % 1013,0 hPa 0,0 mm 4,2 km/h (1 Bft) W-SW 242 ° 0 min 0,000 mm 1,0 UV-I 130 W/m² 13,6 °C 16,5 °C 14,5 km/h (3 Bft)
03.08.2019 08:37 16,4 °C 83 % 1013,0 hPa 0,0 mm 7,6 km/h (2 Bft) W 263 ° 0 min 0,000 mm 1,1 UV-I 121 W/m² 13,5 °C 16,4 °C 14,5 km/h (3 Bft)
03.08.2019 08:38 16,4 °C 83 % 1012,9 hPa 0,0 mm 3,0 km/h (1 Bft) W 265 ° 0 min 0,000 mm 1,1 UV-I 156 W/m² 13,5 °C 16,4 °C 8,0 km/h (2 Bft)
03.08.2019 08:39 16,4 °C 83 % 1013,0 hPa 0,0 mm 6,3 km/h (2 Bft) W-SW 242 ° 0 min 0,000 mm 1,1 UV-I 153 W/m² 13,5 °C 16,4 °C 12,9 km/h (3 Bft)
03.08.2019 08:40 16,4 °C 82 % 1013,0 hPa 0,0 mm 0,9 km/h (0 Bft) SW 221 ° 0 min 0,000 mm 1,0 UV-I 141 W/m² 13,3 °C 16,4 °C 4,8 km/h (1 Bft)
03.08.2019 08:41 16,3 °C 82 % 1013,0 hPa 0,0 mm 3,7 km/h (1 Bft) W-SW 246 ° 0 min 0,000 mm 1,0 UV-I 130 W/m² 13,2 °C 16,3 °C 11,3 km/h (2 Bft)
03.08.2019 08:42 16,3 °C 82 % 1013,0 hPa 0,0 mm 3,8 km/h (1 Bft) W-SW 244 ° 0 min 0,000 mm 1,0 UV-I 120 W/m² 13,2 °C 16,3 °C 8,0 km/h (2 Bft)
03.08.2019 08:43 16,3 °C 83 % 1013,0 hPa 0,0 mm 7,5 km/h (2 Bft) W 260 ° 0 min 0,000 mm 1,1 UV-I 113 W/m² 13,4 °C 16,3 °C 9,7 km/h (2 Bft)
03.08.2019 08:44 16,3 °C 83 % 1013,1 hPa 0,0 mm 4,3 km/h (1 Bft) W 263 ° 0 min 0,000 mm 1,1 UV-I 130 W/m² 13,4 °C 16,3 °C 6,4 km/h (2 Bft)
03.08.2019 08:45 16,3 °C 83 % 1013,1 hPa 0,0 mm 3,4 km/h (1 Bft) W 279 ° 0 min 0,000 mm 1,1 UV-I 134 W/m² 13,4 °C 16,3 °C 6,4 km/h (2 Bft)
03.08.2019 08:46 16,3 °C 84 % 1013,1 hPa 0,0 mm 0,0 km/h (0 Bft) W 279 ° 0 min 0,000 mm 1,2 UV-I 137 W/m² 13,6 °C 16,3 °C 0,0 km/h (0 Bft)
03.08.2019 08:47 16,3 °C 83 % 1013,1 hPa 0,0 mm 2,0 km/h (1 Bft) SW 215 ° 0 min 0,000 mm 1,2 UV-I 149 W/m² 13,4 °C 16,3 °C 4,8 km/h (1 Bft)
03.08.2019 08:48 16,3 °C 82 % 1013,1 hPa 0,0 mm 5,8 km/h (2 Bft) W 263 ° 0 min 0,000 mm 1,3 UV-I 169 W/m² 13,2 °C 16,3 °C 9,7 km/h (2 Bft)
03.08.2019 08:49 16,3 °C 83 % 1013,1 hPa 0,0 mm 4,6 km/h (1 Bft) W 267 ° 0 min 0,000 mm 1,3 UV-I 239 W/m² 13,4 °C 16,3 °C 6,4 km/h (2 Bft)
03.08.2019 08:50 16,3 °C 82 % 1013,2 hPa 0,0 mm 7,6 km/h (2 Bft) S-SW 192 ° 0 min 0,000 mm 1,3 UV-I 211 W/m² 13,2 °C 16,3 °C 11,3 km/h (2 Bft)
03.08.2019 08:51 16,4 °C 81 % 1013,1 hPa 0,0 mm 6,0 km/h (2 Bft) W-NW 285 ° 0 min 0,000 mm 1,3 UV-I 223 W/m² 13,1 °C 16,4 °C 12,9 km/h (3 Bft)
03.08.2019 08:52 16,4 °C 82 % 1013,1 hPa 0,0 mm 7,6 km/h (2 Bft) W-NW 282 ° 0 min 0,000 mm 1,2 UV-I 179 W/m² 13,3 °C 16,4 °C 12,9 km/h (3 Bft)
03.08.2019 08:53 16,4 °C 82 % 1013,1 hPa 0,0 mm 7,8 km/h (2 Bft) W-SW 244 ° 0 min 0,000 mm 1,2 UV-I 185 W/m² 13,3 °C 16,4 °C 11,3 km/h (2 Bft)
03.08.2019 08:54 16,5 °C 82 % 1013,2 hPa 0,0 mm 7,9 km/h (2 Bft) W-SW 253 ° 0 min 0,000 mm 1,2 UV-I 186 W/m² 13,4 °C 16,5 °C 11,3 km/h (2 Bft)
03.08.2019 08:55 16,5 °C 81 % 1013,1 hPa 0,0 mm 9,1 km/h (2 Bft) W 270 ° 0 min 0,000 mm 1,2 UV-I 185 W/m² 13,2 °C 16,5 °C 12,9 km/h (3 Bft)
03.08.2019 08:56 16,6 °C 82 % 1013,2 hPa 0,0 mm 2,2 km/h (1 Bft) W 259 ° 0 min 0,000 mm 1,2 UV-I 156 W/m² 13,5 °C 16,6 °C 6,4 km/h (2 Bft)
03.08.2019 08:57 16,5 °C 82 % 1013,2 hPa 0,0 mm 3,5 km/h (1 Bft) W 263 ° 0 min 0,000 mm 1,2 UV-I 148 W/m² 13,4 °C 16,5 °C 6,4 km/h (2 Bft)
03.08.2019 08:58 16,5 °C 81 % 1013,2 hPa 0,0 mm 7,0 km/h (2 Bft) W 263 ° 0 min 0,000 mm 1,3 UV-I 153 W/m² 13,2 °C 16,5 °C 9,7 km/h (2 Bft)
03.08.2019 08:59 16,4 °C 81 % 1013,2 hPa 0,0 mm 4,8 km/h (1 Bft) W 263 ° 0 min 0,000 mm 1,3 UV-I 144 W/m² 13,1 °C 16,4 °C 11,3 km/h (2 Bft)
03.08.2019 09:00 16,4 °C 81 % 1013,2 hPa 0,0 mm 4,4 km/h (1 Bft) W 274 ° 0 min 0,000 mm 1,3 UV-I 127 W/m² 13,1 °C 16,4 °C 6,4 km/h (2 Bft)
03.08.2019 09:01 16,4 °C 81 % 1013,3 hPa 0,0 mm 3,6 km/h (1 Bft) W 261 ° 0 min 0,102 mm 1,3 UV-I 116 W/m² 13,1 °C 16,4 °C 6,4 km/h (2 Bft)
03.08.2019 09:02 16,4 °C 82 % 1013,3 hPa 0,0 mm 6,4 km/h (2 Bft) W 264 ° 0 min 0,000 mm 1,4 UV-I 123 W/m² 13,3 °C 16,4 °C 11,3 km/h (2 Bft)
03.08.2019 09:03 16,4 °C 82 % 1013,3 hPa 0,0 mm 4,7 km/h (1 Bft) W 268 ° 0 min 0,000 mm 2,0 UV-I 123 W/m² 13,3 °C 16,4 °C 11,3 km/h (2 Bft)
03.08.2019 09:04 16,4 °C 82 % 1013,3 hPa 0,0 mm 6,2 km/h (2 Bft) W-SW 254 ° 0 min 0,000 mm 2,0 UV-I 427 W/m² 13,3 °C 16,4 °C 11,3 km/h (2 Bft)
03.08.2019 09:05 16,5 °C 82 % 1013,3 hPa 0,0 mm 9,7 km/h (2 Bft) W 278 ° 0 min 0,000 mm 2,0 UV-I 427 W/m² 13,4 °C 16,5 °C 12,9 km/h (3 Bft)
03.08.2019 09:06 16,6 °C 80 % 1013,3 hPa 0,0 mm 14,0 km/h (3 Bft) W 263 ° 0 min 0,000 mm 2,1 UV-I 403 W/m² 13,1 °C 16,6 °C 20,9 km/h (4 Bft)
03.08.2019 09:07 16,7 °C 80 % 1013,3 hPa 0,0 mm 7,3 km/h (2 Bft) W 269 ° 0 min 0,000 mm 2,2 UV-I 503 W/m² 13,2 °C 16,7 °C 17,7 km/h (3 Bft)
03.08.2019 09:08 16,8 °C 79 % 1013,4 hPa 0,0 mm 12,8 km/h (3 Bft) W-NW 295 ° 0 min 0,000 mm 2,1 UV-I 503 W/m² 13,1 °C 16,8 °C 19,3 km/h (3 Bft)
03.08.2019 09:09 16,9 °C 80 % 1013,3 hPa 0,0 mm 7,3 km/h (2 Bft) W 263 ° 0 min 0,000 mm 1,6 UV-I 503 W/m² 13,4 °C 16,9 °C 11,3 km/h (2 Bft)
03.08.2019 09:10 17,0 °C 81 % 1013,3 hPa 0,0 mm 7,8 km/h (2 Bft) W 265 ° 0 min 0,000 mm 1,9 UV-I 503 W/m² 13,7 °C 17,0 °C 12,9 km/h (3 Bft)
03.08.2019 09:11 17,0 °C 80 % 1013,4 hPa 0,0 mm 12,0 km/h (2 Bft) W 261 ° 0 min 0,000 mm 1,7 UV-I 503 W/m² 13,5 °C 17,0 °C 14,5 km/h (3 Bft)
03.08.2019 09:12 17,1 °C 79 % 1013,3 hPa 0,0 mm 9,5 km/h (2 Bft) W 267 ° 0 min 0,000 mm 2,1 UV-I 503 W/m² 13,4 °C 17,1 °C 17,7 km/h (3 Bft)
03.08.2019 09:13 17,1 °C 79 % 1013,3 hPa 0,0 mm 5,8 km/h (2 Bft) W 276 ° 0 min 0,000 mm 2,2 UV-I 501 W/m² 13,4 °C 17,1 °C 9,7 km/h (2 Bft)
03.08.2019 09:14 17,2 °C 80 % 1013,4 hPa 0,0 mm 6,0 km/h (2 Bft) SW 235 ° 0 min 0,000 mm 1,9 UV-I 336 W/m² 13,7 °C 17,2 °C 11,3 km/h (2 Bft)
03.08.2019 09:15 17,2 °C 80 % 1013,4 hPa 0,0 mm 4,4 km/h (1 Bft) W 275 ° 0 min 0,000 mm 2,3 UV-I 424 W/m² 13,7 °C 17,2 °C 9,7 km/h (2 Bft)
03.08.2019 09:16 17,2 °C 79 % 1013,3 hPa 0,0 mm 7,5 km/h (2 Bft) W-NW 292 ° 0 min 0,000 mm 2,3 UV-I 424 W/m² 13,5 °C 17,2 °C 12,9 km/h (3 Bft)
03.08.2019 09:17 17,2 °C 80 % 1013,3 hPa 0,0 mm 6,2 km/h (2 Bft) W-SW 248 ° 0 min 0,000 mm 1,8 UV-I 424 W/m² 13,7 °C 17,2 °C 8,0 km/h (2 Bft)
03.08.2019 09:18 17,2 °C 80 % 1013,3 hPa 0,0 mm 5,2 km/h (1 Bft) W 261 ° 0 min 0,000 mm 2,2 UV-I 487 W/m² 13,7 °C 17,2 °C 8,0 km/h (2 Bft)
03.08.2019 09:19 17,3 °C 80 % 1013,3 hPa 0,0 mm 4,5 km/h (1 Bft) W-SW 242 ° 0 min 0,000 mm 2,0 UV-I 197 W/m² 13,8 °C 17,3 °C 6,4 km/h (2 Bft)
03.08.2019 09:20 17,3 °C 80 % 1013,3 hPa 0,0 mm 9,5 km/h (2 Bft) W-SW 250 ° 0 min 0,000 mm 2,4 UV-I 197 W/m² 13,8 °C 17,3 °C 19,3 km/h (3 Bft)
03.08.2019 09:21 17,3 °C 79 % 1013,3 hPa 0,0 mm 4,6 km/h (1 Bft) SW 215 ° 0 min 0,000 mm 2,5 UV-I 531 W/m² 13,6 °C 17,3 °C 12,9 km/h (3 Bft)
03.08.2019 09:22 17,3 °C 80 % 1013,3 hPa 0,0 mm 10,9 km/h (2 Bft) NW 306 ° 0 min 0,000 mm 2,0 UV-I 531 W/m² 13,8 °C 17,3 °C 14,5 km/h (3 Bft)
03.08.2019 09:23 17,3 °C 79 % 1013,3 hPa 0,0 mm 11,3 km/h (2 Bft) W 261 ° 0 min 0,000 mm 2,4 UV-I 531 W/m² 13,6 °C 17,3 °C 16,1 km/h (3 Bft)
03.08.2019 09:24 17,3 °C 79 % 1013,3 hPa 0,0 mm 11,5 km/h (2 Bft) SW 234 ° 0 min 0,000 mm 2,5 UV-I 531 W/m² 13,6 °C 17,3 °C 17,7 km/h (3 Bft)
03.08.2019 09:25 17,3 °C 80 % 1013,3 hPa 0,0 mm 7,5 km/h (2 Bft) W-NW 285 ° 0 min 0,000 mm 2,6 UV-I 531 W/m² 13,8 °C 17,3 °C 17,7 km/h (3 Bft)
03.08.2019 09:26 17,3 °C 78 % 1013,3 hPa 0,0 mm 3,2 km/h (1 Bft) W-SW 246 ° 0 min 0,000 mm 2,2 UV-I 531 W/m² 13,4 °C 17,3 °C 9,7 km/h (2 Bft)
03.08.2019 09:27 17,3 °C 78 % 1013,3 hPa 0,0 mm 8,0 km/h (2 Bft) W-SW 249 ° 0 min 0,000 mm 2,7 UV-I 531 W/m² 13,4 °C 17,3 °C 12,9 km/h (3 Bft)
03.08.2019 09:28 17,3 °C 78 % 1013,3 hPa 0,0 mm 12,7 km/h (3 Bft) W 261 ° 0 min 0,000 mm 2,7 UV-I 517 W/m² 13,4 °C 17,3 °C 19,3 km/h (3 Bft)
03.08.2019 09:29 17,3 °C 79 % 1013,3 hPa 0,0 mm 12,3 km/h (3 Bft) W 261 ° 0 min 0,000 mm 2,7 UV-I 517 W/m² 13,6 °C 17,3 °C 17,7 km/h (3 Bft)
03.08.2019 09:30 17,3 °C 79 % 1013,3 hPa 0,0 mm 6,0 km/h (2 Bft) W 270 ° 0 min 0,000 mm 2,7 UV-I 387 W/m² 13,6 °C 17,3 °C 11,3 km/h (2 Bft)
03.08.2019 09:31 17,4 °C 81 % 1013,3 hPa 0,0 mm 7,6 km/h (2 Bft) SW 230 ° 0 min 0,000 mm 2,8 UV-I 515 W/m² 14,1 °C 17,4 °C 11,3 km/h (2 Bft)
03.08.2019 09:32 17,6 °C 81 % 1013,3 hPa 0,0 mm 12,4 km/h (3 Bft) W 269 ° 0 min 0,000 mm 2,9 UV-I 526 W/m² 14,3 °C 17,6 °C 17,7 km/h (3 Bft)
03.08.2019 09:33 17,6 °C 79 % 1013,4 hPa 0,0 mm 11,8 km/h (2 Bft) W 263 ° 0 min 0,000 mm 2,9 UV-I 538 W/m² 13,9 °C 17,6 °C 16,1 km/h (3 Bft)
03.08.2019 09:34 17,6 °C 78 % 1013,3 hPa 0,0 mm 7,6 km/h (2 Bft) S-SW 213 ° 0 min 0,000 mm 3,0 UV-I 550 W/m² 13,7 °C 17,6 °C 17,7 km/h (3 Bft)
03.08.2019 09:35 17,6 °C 78 % 1013,3 hPa 0,0 mm 8,0 km/h (2 Bft) W-SW 256 ° 0 min 0,000 mm 3,0 UV-I 563 W/m² 13,7 °C 17,6 °C 14,5 km/h (3 Bft)
03.08.2019 09:36 17,7 °C 78 % 1013,3 hPa 0,0 mm 8,3 km/h (2 Bft) W 271 ° 0 min 0,000 mm 3,1 UV-I 563 W/m² 13,8 °C 17,7 °C 12,9 km/h (3 Bft)
03.08.2019 09:37 17,7 °C 79 % 1013,3 hPa 0,0 mm 6,6 km/h (2 Bft) SW 235 ° 1 min 0,000 mm 3,1 UV-I 601 W/m² 14,0 °C 17,7 °C 11,3 km/h (2 Bft)
03.08.2019 09:38 17,7 °C 78 % 1013,3 hPa 0,0 mm 6,6 km/h (2 Bft) W 266 ° 0 min 0,000 mm 3,0 UV-I 436 W/m² 13,8 °C 17,7 °C 12,9 km/h (3 Bft)
03.08.2019 09:39 17,7 °C 78 % 1013,3 hPa 0,0 mm 15,7 km/h (3 Bft) W-NW 300 ° 0 min 0,000 mm 2,5 UV-I 533 W/m² 13,8 °C 17,7 °C 20,9 km/h (4 Bft)
03.08.2019 09:40 17,7 °C 78 % 1013,2 hPa 0,0 mm 8,3 km/h (2 Bft) N-NW 334 ° 0 min 0,000 mm 2,2 UV-I 533 W/m² 13,8 °C 17,7 °C 14,5 km/h (3 Bft)
03.08.2019 09:41 17,6 °C 77 % 1013,2 hPa 0,0 mm 9,8 km/h (2 Bft) W-SW 241 ° 0 min 0,000 mm 3,0 UV-I 533 W/m² 13,5 °C 17,6 °C 12,9 km/h (3 Bft)
03.08.2019 09:42 17,6 °C 79 % 1013,3 hPa 0,0 mm 8,3 km/h (2 Bft) W 269 ° 0 min 0,000 mm 3,0 UV-I 533 W/m² 13,9 °C 17,6 °C 14,5 km/h (3 Bft)
03.08.2019 09:43 17,7 °C 81 % 1013,3 hPa 0,0 mm 9,0 km/h (2 Bft) SW 232 ° 1 min 0,000 mm 3,1 UV-I 619 W/m² 14,4 °C 17,7 °C 16,1 km/h (3 Bft)
03.08.2019 09:44 17,8 °C 79 % 1013,2 hPa 0,0 mm 13,1 km/h (3 Bft) W 271 ° 1 min 0,000 mm 3,2 UV-I 619 W/m² 14,1 °C 17,8 °C 16,1 km/h (3 Bft)
03.08.2019 09:45 17,8 °C 77 % 1013,2 hPa 0,0 mm 9,1 km/h (2 Bft) W 259 ° 1 min 0,000 mm 3,2 UV-I 619 W/m² 13,7 °C 17,8 °C 12,9 km/h (3 Bft)
03.08.2019 09:46 17,8 °C 77 % 1013,3 hPa 0,0 mm 11,0 km/h (2 Bft) W-NW 294 ° 1 min 0,000 mm 2,4 UV-I 619 W/m² 13,7 °C 17,8 °C 16,1 km/h (3 Bft)
03.08.2019 09:47 17,8 °C 77 % 1013,2 hPa 0,0 mm 10,3 km/h (2 Bft) W-SW 245 ° 0 min 0,000 mm 2,2 UV-I 366 W/m² 13,7 °C 17,8 °C 14,5 km/h (3 Bft)
03.08.2019 09:48 17,8 °C 80 % 1013,3 hPa 0,0 mm 8,0 km/h (2 Bft) W-SW 254 ° 0 min 0,000 mm 2,2 UV-I 287 W/m² 14,3 °C 17,8 °C 12,9 km/h (3 Bft)
03.08.2019 09:49 17,8 °C 78 % 1013,3 hPa 0,0 mm 4,1 km/h (1 Bft) S 175 ° 0 min 0,000 mm 2,9 UV-I 271 W/m² 13,9 °C 17,8 °C 6,4 km/h (2 Bft)
03.08.2019 09:50 17,7 °C 77 % 1013,3 hPa 0,0 mm 3,0 km/h (1 Bft) W 260 ° 0 min 0,000 mm 2,1 UV-I 264 W/m² 13,6 °C 17,7 °C 4,8 km/h (1 Bft)
03.08.2019 09:51 17,6 °C 77 % 1013,3 hPa 0,0 mm 9,8 km/h (2 Bft) W 266 ° 0 min 0,000 mm 2,0 UV-I 241 W/m² 13,5 °C 17,6 °C 17,7 km/h (3 Bft)
03.08.2019 09:52 17,5 °C 78 % 1013,3 hPa 0,0 mm 10,2 km/h (2 Bft) NW 319 ° 0 min 0,000 mm 2,1 UV-I 236 W/m² 13,6 °C 17,5 °C 16,1 km/h (3 Bft)
03.08.2019 09:53 17,4 °C 78 % 1013,3 hPa 0,0 mm 10,9 km/h (2 Bft) W 264 ° 0 min 0,000 mm 2,3 UV-I 241 W/m² 13,5 °C 17,4 °C 24,1 km/h (4 Bft)
03.08.2019 09:54 17,4 °C 78 % 1013,3 hPa 0,0 mm 15,4 km/h (3 Bft) W 261 ° 0 min 0,000 mm 2,3 UV-I 236 W/m² 13,5 °C 17,4 °C 22,5 km/h (4 Bft)
03.08.2019 09:55 17,3 °C 77 % 1013,3 hPa 0,0 mm 13,2 km/h (3 Bft) W 271 ° 0 min 0,000 mm 2,1 UV-I 214 W/m² 13,2 °C 17,3 °C 20,9 km/h (4 Bft)
03.08.2019 09:56 17,3 °C 77 % 1013,3 hPa 0,0 mm 4,4 km/h (1 Bft) W-NW 284 ° 0 min 0,000 mm 2,2 UV-I 237 W/m² 13,2 °C 17,3 °C 9,7 km/h (2 Bft)
03.08.2019 09:57 17,3 °C 77 % 1013,3 hPa 0,0 mm 8,3 km/h (2 Bft) W-SW 254 ° 0 min 0,000 mm 2,5 UV-I 237 W/m² 13,2 °C 17,3 °C 17,7 km/h (3 Bft)
03.08.2019 09:58 17,2 °C 77 % 1013,3 hPa 0,0 mm 11,7 km/h (2 Bft) W 265 ° 0 min 0,000 mm 2,3 UV-I 237 W/m² 13,1 °C 17,2 °C 17,7 km/h (3 Bft)
03.08.2019 09:59 17,2 °C 77 % 1013,3 hPa 0,0 mm 5,7 km/h (1 Bft) W 272 ° 0 min 0,000 mm 2,2 UV-I 211 W/m² 13,1 °C 17,2 °C 9,7 km/h (2 Bft)
03.08.2019 10:00 17,2 °C 78 % 1013,3 hPa 0,0 mm 2,7 km/h (1 Bft) W 259 ° 0 min 0,228 mm 2,4 UV-I 436 W/m² 13,3 °C 17,2 °C 4,8 km/h (1 Bft)
03.08.2019 10:01 17,2 °C 80 % 1013,3 hPa 0,0 mm 5,3 km/h (1 Bft) W-NW 290 ° 0 min 0,000 mm 2,9 UV-I 436 W/m² 13,7 °C 17,2 °C 8,0 km/h (2 Bft)
03.08.2019 10:02 17,2 °C 79 % 1013,3 hPa 0,0 mm 7,5 km/h (2 Bft) W 273 ° 0 min 0,000 mm 2,7 UV-I 436 W/m² 13,5 °C 17,2 °C 11,3 km/h (2 Bft)
03.08.2019 10:03 17,3 °C 79 % 1013,3 hPa 0,0 mm 6,9 km/h (2 Bft) W 268 ° 0 min 0,000 mm 2,4 UV-I 260 W/m² 13,6 °C 17,3 °C 9,7 km/h (2 Bft)
03.08.2019 10:04 17,3 °C 79 % 1013,3 hPa 0,0 mm 5,3 km/h (1 Bft) W 279 ° 0 min 0,000 mm 2,3 UV-I 251 W/m² 13,6 °C 17,3 °C 9,7 km/h (2 Bft)
03.08.2019 10:05 17,3 °C 79 % 1013,3 hPa 0,0 mm 3,5 km/h (1 Bft) W-NW 292 ° 0 min 0,000 mm 2,7 UV-I 230 W/m² 13,6 °C 17,3 °C 12,9 km/h (3 Bft)
03.08.2019 10:06 17,3 °C 79 % 1013,3 hPa 0,0 mm 7,4 km/h (2 Bft) NW 309 ° 0 min 0,000 mm 3,5 UV-I 346 W/m² 13,6 °C 17,3 °C 11,3 km/h (2 Bft)
03.08.2019 10:07 17,3 °C 79 % 1013,3 hPa 0,0 mm 5,0 km/h (1 Bft) NW 311 ° 0 min 0,000 mm 3,2 UV-I 346 W/m² 13,6 °C 17,3 °C 6,4 km/h (2 Bft)
03.08.2019 10:08 17,4 °C 78 % 1013,3 hPa 0,0 mm 5,3 km/h (1 Bft) W-NW 300 ° 0 min 0,000 mm 2,6 UV-I 346 W/m² 13,5 °C 17,4 °C 8,0 km/h (2 Bft)
03.08.2019 10:09 17,4 °C 79 % 1013,4 hPa 0,0 mm 4,6 km/h (1 Bft) NW 311 ° 0 min 0,000 mm 2,7 UV-I 267 W/m² 13,7 °C 17,4 °C 16,1 km/h (3 Bft)
03.08.2019 10:10 17,5 °C 79 % 1013,3 hPa 0,0 mm 10,6 km/h (2 Bft) W-SW 254 ° 0 min 0,000 mm 2,6 UV-I 267 W/m² 13,8 °C 17,5 °C 19,3 km/h (3 Bft)
03.08.2019 10:11 17,6 °C 79 % 1013,4 hPa 0,0 mm 5,3 km/h (1 Bft) W-SW 246 ° 0 min 0,000 mm 3,6 UV-I 267 W/m² 13,9 °C 17,6 °C 9,7 km/h (2 Bft)
03.08.2019 10:12 17,6 °C 78 % 1013,4 hPa 0,0 mm 6,5 km/h (2 Bft) W 281 ° 0 min 0,000 mm 3,4 UV-I 269 W/m² 13,7 °C 17,6 °C 9,7 km/h (2 Bft)
03.08.2019 10:13 17,6 °C 78 % 1013,4 hPa 0,0 mm 3,2 km/h (1 Bft) S-SW 192 ° 0 min 0,000 mm 3,3 UV-I 269 W/m² 13,7 °C 17,6 °C 4,8 km/h (1 Bft)
03.08.2019 10:14 17,6 °C 78 % 1013,3 hPa 0,0 mm 7,4 km/h (2 Bft) W-SW 257 ° 0 min 0,000 mm 2,8 UV-I 269 W/m² 13,7 °C 17,6 °C 12,9 km/h (3 Bft)
03.08.2019 10:15 17,7 °C 79 % 1013,4 hPa 0,0 mm 6,1 km/h (2 Bft) W-SW 257 ° 0 min 0,000 mm 2,5 UV-I 269 W/m² 14,0 °C 17,7 °C 9,7 km/h (2 Bft)
03.08.2019 10:16 17,7 °C 79 % 1013,3 hPa 0,0 mm 10,7 km/h (2 Bft) W 262 ° 0 min 0,000 mm 2,4 UV-I 309 W/m² 14,0 °C 17,7 °C 12,9 km/h (3 Bft)
03.08.2019 10:17 17,7 °C 77 % 1013,3 hPa 0,0 mm 9,9 km/h (2 Bft) W 268 ° 0 min 0,000 mm 2,4 UV-I 322 W/m² 13,6 °C 17,7 °C 14,5 km/h (3 Bft)
03.08.2019 10:18 17,7 °C 78 % 1013,3 hPa 0,0 mm 8,3 km/h (2 Bft) W 278 ° 0 min 0,000 mm 3,5 UV-I 322 W/m² 13,8 °C 17,7 °C 12,9 km/h (3 Bft)
03.08.2019 10:19 17,8 °C 77 % 1013,3 hPa 0,0 mm 12,0 km/h (2 Bft) W-NW 285 ° 0 min 0,000 mm 1,3 UV-I 334 W/m² 13,7 °C 17,8 °C 17,7 km/h (3 Bft)
03.08.2019 10:20 17,8 °C 78 % 1013,4 hPa 0,0 mm 9,3 km/h (2 Bft) W 281 ° 0 min 0,000 mm 1,0 UV-I 334 W/m² 13,9 °C 17,8 °C 12,9 km/h (3 Bft)
03.08.2019 10:21 17,8 °C 77 % 1013,4 hPa 0,0 mm 8,2 km/h (2 Bft) W-NW 298 ° 0 min 0,000 mm 0,9 UV-I 102 W/m² 13,7 °C 17,8 °C 14,5 km/h (3 Bft)
03.08.2019 10:22 17,8 °C 79 % 1013,4 hPa 0,0 mm 5,0 km/h (1 Bft) W 268 ° 0 min 0,000 mm 0,9 UV-I 90 W/m² 14,1 °C 17,8 °C 9,7 km/h (2 Bft)
03.08.2019 10:23 17,8 °C 78 % 1013,4 hPa 0,0 mm 6,4 km/h (2 Bft) W-SW 254 ° 0 min 0,000 mm 1,0 UV-I 88 W/m² 13,9 °C 17,8 °C 11,3 km/h (2 Bft)
03.08.2019 10:24 17,7 °C 78 % 1013,4 hPa 0,0 mm 0,8 km/h (0 Bft) W-SW 251 ° 0 min 0,000 mm 1,2 UV-I 107 W/m² 13,8 °C 17,7 °C 4,8 km/h (1 Bft)
03.08.2019 10:25 17,6 °C 78 % 1013,4 hPa 0,0 mm 7,2 km/h (2 Bft) W 261 ° 0 min 0,000 mm 1,5 UV-I 120 W/m² 13,7 °C 17,6 °C 16,1 km/h (3 Bft)
03.08.2019 10:26 17,5 °C 78 % 1013,4 hPa 0,0 mm 7,1 km/h (2 Bft) W 264 ° 0 min 0,000 mm 1,6 UV-I 137 W/m² 13,6 °C 17,5 °C 12,9 km/h (3 Bft)
03.08.2019 10:27 17,4 °C 79 % 1013,5 hPa 0,0 mm 10,3 km/h (2 Bft) W-SW 250 ° 0 min 0,000 mm 1,7 UV-I 156 W/m² 13,7 °C 17,4 °C 14,5 km/h (3 Bft)
03.08.2019 10:28 17,3 °C 78 % 1013,4 hPa 0,0 mm 9,9 km/h (2 Bft) W-SW 250 ° 0 min 0,000 mm 1,8 UV-I 179 W/m² 13,4 °C 17,3 °C 14,5 km/h (3 Bft)
03.08.2019 10:29 17,3 °C 79 % 1013,5 hPa 0,0 mm 8,0 km/h (2 Bft) W 264 ° 0 min 0,000 mm 1,8 UV-I 181 W/m² 13,6 °C 17,3 °C 12,9 km/h (3 Bft)
03.08.2019 10:30 17,3 °C 78 % 1013,5 hPa 0,0 mm 8,1 km/h (2 Bft) W 267 ° 0 min 0,000 mm 2,0 UV-I 197 W/m² 13,4 °C 17,3 °C 12,9 km/h (3 Bft)
03.08.2019 10:31 17,2 °C 79 % 1013,5 hPa 0,0 mm 9,7 km/h (2 Bft) W-SW 254 ° 0 min 0,000 mm 2,5 UV-I 230 W/m² 13,5 °C 17,2 °C 17,7 km/h (3 Bft)
03.08.2019 10:32 17,3 °C 79 % 1013,4 hPa 0,0 mm 8,0 km/h (2 Bft) W-NW 291 ° 0 min 0,000 mm 3,7 UV-I 230 W/m² 13,6 °C 17,3 °C 12,9 km/h (3 Bft)
03.08.2019 10:33 17,3 °C 79 % 1013,4 hPa 0,0 mm 7,0 km/h (2 Bft) NW 312 ° 0 min 0,000 mm 3,1 UV-I 230 W/m² 13,6 °C 17,3 °C 11,3 km/h (2 Bft)
03.08.2019 10:34 17,5 °C 80 % 1013,4 hPa 0,0 mm 8,4 km/h (2 Bft) W-SW 249 ° 0 min 0,000 mm 4,1 UV-I 230 W/m² 14,0 °C 17,5 °C 14,5 km/h (3 Bft)
03.08.2019 10:35 17,6 °C 79 % 1013,4 hPa 0,0 mm 8,4 km/h (2 Bft) W-NW 286 ° 0 min 0,000 mm 4,2 UV-I 230 W/m² 13,9 °C 17,6 °C 11,3 km/h (2 Bft)
03.08.2019 10:36 17,7 °C 79 % 1013,5 hPa 0,0 mm 5,8 km/h (2 Bft) W 261 ° 0 min 0,000 mm 4,3 UV-I 230 W/m² 14,0 °C 17,7 °C 9,7 km/h (2 Bft)
03.08.2019 10:37 18,0 °C 80 % 1013,4 hPa 0,0 mm 4,9 km/h (1 Bft) W-SW 254 ° 0 min 0,000 mm 2,4 UV-I 230 W/m² 14,5 °C 18,0 °C 6,4 km/h (2 Bft)
03.08.2019 10:38 18,1 °C 81 % 1013,5 hPa 0,0 mm 8,0 km/h (2 Bft) SW 235 ° 0 min 0,000 mm 4,0 UV-I 230 W/m² 14,8 °C 18,1 °C 12,9 km/h (3 Bft)
03.08.2019 10:39 18,1 °C 76 % 1013,5 hPa 0,0 mm 9,1 km/h (2 Bft) W 259 ° 0 min 0,000 mm 3,4 UV-I 230 W/m² 13,8 °C 18,1 °C 12,9 km/h (3 Bft)
03.08.2019 10:40 18,1 °C 79 % 1013,5 hPa 0,0 mm 2,0 km/h (1 Bft) W-SW 257 ° 0 min 0,000 mm 2,5 UV-I 230 W/m² 14,4 °C 18,1 °C 8,0 km/h (2 Bft)
03.08.2019 10:41 18,1 °C 78 % 1013,4 hPa 0,0 mm 6,1 km/h (2 Bft) W 273 ° 0 min 0,000 mm 2,2 UV-I 230 W/m² 14,2 °C 18,1 °C 11,3 km/h (2 Bft)
03.08.2019 10:42 18,1 °C 77 % 1013,5 hPa 0,0 mm 7,3 km/h (2 Bft) W 274 ° 0 min 0,000 mm 2,2 UV-I 125 W/m² 14,0 °C 18,1 °C 11,3 km/h (2 Bft)
03.08.2019 10:43 17,9 °C 76 % 1013,5 hPa 0,0 mm 6,9 km/h (2 Bft) W 260 ° 0 min 0,000 mm 2,4 UV-I 125 W/m² 13,6 °C 17,9 °C 12,9 km/h (3 Bft)
03.08.2019 10:44 17,8 °C 78 % 1013,5 hPa 0,0 mm 4,8 km/h (1 Bft) W 269 ° 0 min 0,000 mm 3,0 UV-I 139 W/m² 13,9 °C 17,8 °C 11,3 km/h (2 Bft)
03.08.2019 10:45 17,8 °C 79 % 1013,5 hPa 0,0 mm 6,2 km/h (2 Bft) S-SW 194 ° 0 min 0,000 mm 4,6 UV-I 139 W/m² 14,1 °C 17,8 °C 11,3 km/h (2 Bft)
03.08.2019 10:46 17,9 °C 81 % 1013,6 hPa 0,0 mm 3,4 km/h (1 Bft) SW 232 ° 1 min 0,000 mm 4,7 UV-I 754 W/m² 14,6 °C 17,9 °C 9,7 km/h (2 Bft)
03.08.2019 10:47 18,1 °C 79 % 1013,5 hPa 0,0 mm 8,5 km/h (2 Bft) SW 234 ° 1 min 0,000 mm 4,8 UV-I 752 W/m² 14,4 °C 18,1 °C 12,9 km/h (3 Bft)
03.08.2019 10:48 18,2 °C 80 % 1013,5 hPa 0,0 mm 6,4 km/h (2 Bft) SW 219 ° 1 min 0,000 mm 4,8 UV-I 759 W/m² 14,7 °C 18,2 °C 9,7 km/h (2 Bft)
03.08.2019 10:49 18,3 °C 77 % 1013,5 hPa 0,0 mm 8,8 km/h (2 Bft) W-NW 290 ° 1 min 0,000 mm 4,8 UV-I 758 W/m² 14,2 °C 18,3 °C 14,5 km/h (3 Bft)
03.08.2019 10:50 18,4 °C 79 % 1013,4 hPa 0,0 mm 10,5 km/h (2 Bft) W 267 ° 1 min 0,000 mm 4,8 UV-I 756 W/m² 14,7 °C 18,4 °C 20,9 km/h (4 Bft)
03.08.2019 10:51 18,5 °C 77 % 1013,4 hPa 0,0 mm 11,4 km/h (2 Bft) W-SW 257 ° 1 min 0,000 mm 4,8 UV-I 751 W/m² 14,4 °C 18,5 °C 16,1 km/h (3 Bft)
03.08.2019 10:52 18,6 °C 78 % 1013,4 hPa 0,0 mm 9,4 km/h (2 Bft) W-SW 242 ° 1 min 0,000 mm 4,8 UV-I 749 W/m² 14,7 °C 18,6 °C 16,1 km/h (3 Bft)
03.08.2019 10:53 18,7 °C 76 % 1013,4 hPa 0,0 mm 10,2 km/h (2 Bft) S-SW 209 ° 1 min 0,000 mm 5,0 UV-I 766 W/m² 14,4 °C 18,7 °C 16,1 km/h (3 Bft)
03.08.2019 10:54 18,7 °C 76 % 1013,4 hPa 0,0 mm 9,0 km/h (2 Bft) W 278 ° 1 min 0,000 mm 4,9 UV-I 791 W/m² 14,4 °C 18,7 °C 14,5 km/h (3 Bft)
03.08.2019 10:55 18,8 °C 76 % 1013,4 hPa 0,0 mm 6,5 km/h (2 Bft) W-SW 255 ° 1 min 0,000 mm 5,0 UV-I 793 W/m² 14,5 °C 18,8 °C 11,3 km/h (2 Bft)
03.08.2019 10:56 18,9 °C 76 % 1013,4 hPa 0,0 mm 16,6 km/h (3 Bft) W-SW 250 ° 1 min 0,000 mm 4,9 UV-I 773 W/m² 14,6 °C 18,9 °C 22,5 km/h (4 Bft)
03.08.2019 10:57 19,1 °C 75 % 1013,4 hPa 0,0 mm 13,1 km/h (3 Bft) W 269 ° 1 min 0,000 mm 5,1 UV-I 826 W/m² 14,6 °C 19,1 °C 20,9 km/h (4 Bft)
03.08.2019 10:58 19,2 °C 76 % 1013,4 hPa 0,0 mm 11,6 km/h (2 Bft) W 277 ° 1 min 0,000 mm 5,2 UV-I 874 W/m² 14,9 °C 19,2 °C 17,7 km/h (3 Bft)
03.08.2019 10:59 19,3 °C 76 % 1013,4 hPa 0,0 mm 8,2 km/h (2 Bft) W-NW 299 ° 1 min 0,000 mm 5,0 UV-I 865 W/m² 15,0 °C 19,3 °C 14,5 km/h (3 Bft)
03.08.2019 11:00 19,4 °C 75 % 1013,3 hPa 0,0 mm 11,5 km/h (2 Bft) W-SW 245 ° 1 min 0,000 mm 3,0 UV-I 865 W/m² 14,8 °C 19,4 °C 17,7 km/h (3 Bft)
03.08.2019 11:01 19,3 °C 72 % 1013,3 hPa 0,0 mm 11,5 km/h (2 Bft) NW 307 ° 0 min 0,254 mm 2,3 UV-I 288 W/m² 14,1 °C 19,3 °C 17,7 km/h (3 Bft)
03.08.2019 11:02 19,1 °C 72 % 1013,3 hPa 0,0 mm 14,3 km/h (3 Bft) NW 309 ° 0 min 0,000 mm 3,6 UV-I 288 W/m² 13,9 °C 19,1 °C 20,9 km/h (4 Bft)
03.08.2019 11:03 19,1 °C 73 % 1013,3 hPa 0,0 mm 11,5 km/h (2 Bft) W-NW 300 ° 0 min 0,000 mm 4,8 UV-I 288 W/m² 14,1 °C 19,1 °C 20,9 km/h (4 Bft)
03.08.2019 11:04 18,9 °C 73 % 1013,3 hPa 0,0 mm 13,3 km/h (3 Bft) W-NW 300 ° 0 min 0,000 mm 4,0 UV-I 288 W/m² 13,9 °C 18,9 °C 16,1 km/h (3 Bft)
03.08.2019 11:05 18,9 °C 73 % 1013,4 hPa 0,0 mm 10,6 km/h (2 Bft) W-SW 249 ° 0 min 0,000 mm 2,8 UV-I 288 W/m² 13,9 °C 18,9 °C 17,7 km/h (3 Bft)
03.08.2019 11:06 18,9 °C 73 % 1013,3 hPa 0,0 mm 12,6 km/h (3 Bft) W-NW 300 ° 0 min 0,000 mm 2,1 UV-I 216 W/m² 13,9 °C 18,9 °C 16,1 km/h (3 Bft)
03.08.2019 11:07 18,8 °C 73 % 1013,3 hPa 0,0 mm 10,5 km/h (2 Bft) W-NW 296 ° 0 min 0,000 mm 1,9 UV-I 195 W/m² 13,9 °C 18,8 °C 17,7 km/h (3 Bft)
03.08.2019 11:08 18,7 °C 74 % 1013,4 hPa 0,0 mm 10,9 km/h (2 Bft) NW 321 ° 0 min 0,000 mm 1,7 UV-I 171 W/m² 14,0 °C 18,7 °C 16,1 km/h (3 Bft)
03.08.2019 11:09 18,6 °C 75 % 1013,3 hPa 0,0 mm 10,4 km/h (2 Bft) W 277 ° 0 min 0,000 mm 1,6 UV-I 155 W/m² 14,1 °C 18,6 °C 17,7 km/h (3 Bft)
03.08.2019 11:10 18,4 °C 75 % 1013,3 hPa 0,0 mm 8,3 km/h (2 Bft) W 267 ° 0 min 0,000 mm 1,3 UV-I 56 W/m² 13,9 °C 18,4 °C 14,5 km/h (3 Bft)
03.08.2019 11:11 18,3 °C 74 % 1013,4 hPa 0,0 mm 11,8 km/h (2 Bft) W 271 ° 0 min 0,000 mm 1,2 UV-I 74 W/m² 13,6 °C 18,3 °C 22,5 km/h (4 Bft)
03.08.2019 11:12 18,2 °C 74 % 1013,4 hPa 0,0 mm 14,3 km/h (3 Bft) W 264 ° 0 min 0,000 mm 1,1 UV-I 72 W/m² 13,5 °C 18,2 °C 20,9 km/h (4 Bft)
03.08.2019 11:13 18,1 °C 74 % 1013,4 hPa 0,0 mm 10,3 km/h (2 Bft) W 279 ° 0 min 0,000 mm 1,3 UV-I 58 W/m² 13,4 °C 18,1 °C 14,5 km/h (3 Bft)
03.08.2019 11:14 18,0 °C 75 % 1013,4 hPa 0,0 mm 13,6 km/h (3 Bft) W-NW 288 ° 0 min 0,000 mm 1,4 UV-I 58 W/m² 13,5 °C 18,0 °C 19,3 km/h (3 Bft)
03.08.2019 11:15 17,9 °C 75 % 1013,4 hPa 0,0 mm 11,6 km/h (2 Bft) W-SW 251 ° 0 min 0,000 mm 0,0 UV-I 54 W/m² 13,4 °C 17,9 °C 19,3 km/h (3 Bft)
03.08.2019 11:16 17,8 °C 74 % 1013,4 hPa 0,0 mm 13,1 km/h (3 Bft) W-NW 284 ° 0 min 0,000 mm 1,5 UV-I 65 W/m² 13,1 °C 17,8 °C 17,7 km/h (3 Bft)
03.08.2019 11:17 17,8 °C 74 % 1013,4 hPa 0,0 mm 9,7 km/h (2 Bft) W-NW 282 ° 0 min 0,000 mm 1,5 UV-I 65 W/m² 13,1 °C 17,8 °C 14,5 km/h (3 Bft)
03.08.2019 11:18 17,8 °C 75 % 1013,4 hPa 0,0 mm 8,4 km/h (2 Bft) W-NW 292 ° 0 min 0,000 mm 1,3 UV-I 60 W/m² 13,3 °C 17,8 °C 14,5 km/h (3 Bft)
03.08.2019 11:19 17,7 °C 77 % 1013,4 hPa 0,0 mm 6,8 km/h (2 Bft) W 267 ° 0 min 0,000 mm 0,0 UV-I 54 W/m² 13,6 °C 17,7 °C 11,3 km/h (2 Bft)
03.08.2019 11:20 17,7 °C 77 % 1013,4 hPa 0,0 mm 8,4 km/h (2 Bft) NW 311 ° 0 min 0,000 mm 0,0 UV-I 54 W/m² 13,6 °C 17,7 °C 16,1 km/h (3 Bft)
03.08.2019 11:21 17,7 °C 76 % 1013,4 hPa 0,0 mm 11,1 km/h (2 Bft) W 275 ° 0 min 0,000 mm 0,0 UV-I 46 W/m² 13,4 °C 17,7 °C 16,1 km/h (3 Bft)
03.08.2019 11:22 17,6 °C 76 % 1013,4 hPa 0,0 mm 8,0 km/h (2 Bft) W 259 ° 0 min 0,000 mm 0,0 UV-I 39 W/m² 13,3 °C 17,6 °C 12,9 km/h (3 Bft)
03.08.2019 11:23 17,6 °C 76 % 1013,5 hPa 0,0 mm 8,7 km/h (2 Bft) NW 324 ° 0 min 0,000 mm 0,0 UV-I 37 W/m² 13,3 °C 17,6 °C 12,9 km/h (3 Bft)
03.08.2019 11:24 17,6 °C 76 % 1013,5 hPa 0,0 mm 6,6 km/h (2 Bft) W 280 ° 0 min 0,000 mm 0,0 UV-I 35 W/m² 13,3 °C 17,6 °C 12,9 km/h (3 Bft)
03.08.2019 11:25 17,5 °C 76 % 1013,5 hPa 0,0 mm 14,7 km/h (3 Bft) W 263 ° 0 min 0,000 mm 0,0 UV-I 37 W/m² 13,2 °C 17,5 °C 30,6 km/h (5 Bft)
03.08.2019 11:26 17,5 °C 75 % 1013,6 hPa 0,0 mm 14,6 km/h (3 Bft) NW 311 ° 0 min 0,000 mm 0,0 UV-I 39 W/m² 13,0 °C 17,5 °C 20,9 km/h (4 Bft)
03.08.2019 11:27 17,4 °C 75 % 1013,6 hPa 0,0 mm 8,9 km/h (2 Bft) W-NW 300 ° 0 min 0,000 mm 0,0 UV-I 42 W/m² 12,9 °C 17,4 °C 12,9 km/h (3 Bft)
03.08.2019 11:28 17,4 °C 75 % 1013,5 hPa 0,0 mm 11,9 km/h (2 Bft) NW 310 ° 0 min 0,000 mm 0,0 UV-I 44 W/m² 12,9 °C 17,4 °C 16,1 km/h (3 Bft)
03.08.2019 11:29 17,4 °C 75 % 1013,6 hPa 0,0 mm 14,0 km/h (3 Bft) NW 311 ° 0 min 0,000 mm 0,0 UV-I 42 W/m² 12,9 °C 17,4 °C 25,7 km/h (4 Bft)
03.08.2019 11:30 17,4 °C 74 % 1013,5 hPa 0,0 mm 10,4 km/h (2 Bft) W-NW 288 ° 0 min 0,000 mm 0,0 UV-I 53 W/m² 12,7 °C 17,4 °C 17,7 km/h (3 Bft)
03.08.2019 11:31 17,4 °C 74 % 1013,5 hPa 0,0 mm 10,9 km/h (2 Bft) W-NW 292 ° 0 min 0,000 mm 0,0 UV-I 53 W/m² 12,7 °C 17,4 °C 19,3 km/h (3 Bft)
03.08.2019 11:32 17,6 °C 75 % 1013,5 hPa 0,0 mm 12,5 km/h (3 Bft) W-NW 290 ° 0 min 0,000 mm 5,5 UV-I 53 W/m² 13,1 °C 17,6 °C 17,7 km/h (3 Bft)
03.08.2019 11:33 17,7 °C 75 % 1013,5 hPa 0,0 mm 10,3 km/h (2 Bft) NW 309 ° 0 min 0,000 mm 4,4 UV-I 53 W/m² 13,2 °C 17,7 °C 19,3 km/h (3 Bft)
03.08.2019 11:34 17,9 °C 75 % 1013,5 hPa 0,0 mm 12,4 km/h (3 Bft) NW 323 ° 1 min 0,000 mm 5,6 UV-I 823 W/m² 13,4 °C 17,9 °C 17,7 km/h (3 Bft)
03.08.2019 11:35 18,1 °C 75 % 1013,5 hPa 0,0 mm 13,2 km/h (3 Bft) NW 304 ° 1 min 0,000 mm 5,7 UV-I 840 W/m² 13,6 °C 18,1 °C 17,7 km/h (3 Bft)
03.08.2019 11:36 18,4 °C 74 % 1013,5 hPa 0,0 mm 11,0 km/h (2 Bft) W-NW 298 ° 1 min 0,000 mm 5,7 UV-I 812 W/m² 13,7 °C 18,4 °C 16,1 km/h (3 Bft)
03.08.2019 11:37 18,6 °C 74 % 1013,5 hPa 0,0 mm 14,8 km/h (3 Bft) W 279 ° 1 min 0,000 mm 5,8 UV-I 812 W/m² 13,9 °C 18,6 °C 22,5 km/h (4 Bft)
03.08.2019 11:38 18,8 °C 74 % 1013,4 hPa 0,0 mm 9,4 km/h (2 Bft) NW 307 ° 1 min 0,000 mm 5,8 UV-I 821 W/m² 14,1 °C 18,8 °C 17,7 km/h (3 Bft)
03.08.2019 11:39 18,9 °C 74 % 1013,4 hPa 0,0 mm 9,7 km/h (2 Bft) W-NW 291 ° 1 min 0,000 mm 5,9 UV-I 860 W/m² 14,2 °C 18,9 °C 14,5 km/h (3 Bft)
03.08.2019 11:40 19,1 °C 72 % 1013,4 hPa 0,0 mm 10,3 km/h (2 Bft) W 277 ° 1 min 0,000 mm 5,9 UV-I 860 W/m² 13,9 °C 19,1 °C 17,7 km/h (3 Bft)
03.08.2019 11:41 19,2 °C 73 % 1013,3 hPa 0,0 mm 7,3 km/h (2 Bft) W-NW 286 ° 1 min 0,000 mm 5,7 UV-I 896 W/m² 14,2 °C 19,2 °C 12,9 km/h (3 Bft)
03.08.2019 11:42 19,2 °C 72 % 1013,4 hPa 0,0 mm 8,3 km/h (2 Bft) W 280 ° 1 min 0,000 mm 2,5 UV-I 896 W/m² 14,0 °C 19,2 °C 14,5 km/h (3 Bft)
03.08.2019 11:43 19,2 °C 71 % 1013,4 hPa 0,0 mm 14,5 km/h (3 Bft) W 277 ° 0 min 0,000 mm 2,7 UV-I 123 W/m² 13,8 °C 19,2 °C 22,5 km/h (4 Bft)
03.08.2019 11:44 19,2 °C 70 % 1013,4 hPa 0,0 mm 11,5 km/h (2 Bft) NW 306 ° 0 min 0,000 mm 5,9 UV-I 123 W/m² 13,6 °C 19,2 °C 20,9 km/h (4 Bft)
03.08.2019 11:45 19,1 °C 71 % 1013,3 hPa 0,0 mm 15,3 km/h (3 Bft) N-NW 333 ° 0 min 0,000 mm 3,7 UV-I 123 W/m² 13,7 °C 19,1 °C 20,9 km/h (4 Bft)
03.08.2019 11:46 19,1 °C 71 % 1013,3 hPa 0,0 mm 10,7 km/h (2 Bft) W 267 ° 1 min 0,000 mm 6,1 UV-I 891 W/m² 13,7 °C 19,1 °C 14,5 km/h (3 Bft)
03.08.2019 11:47 19,2 °C 71 % 1013,4 hPa 0,0 mm 7,7 km/h (2 Bft) W-NW 293 ° 1 min 0,000 mm 6,0 UV-I 846 W/m² 13,8 °C 19,2 °C 12,9 km/h (3 Bft)
03.08.2019 11:48 19,3 °C 73 % 1013,4 hPa 0,0 mm 11,3 km/h (2 Bft) W 263 ° 1 min 0,000 mm 3,8 UV-I 846 W/m² 14,3 °C 19,3 °C 19,3 km/h (3 Bft)
03.08.2019 11:49 19,4 °C 71 % 1013,3 hPa 0,0 mm 17,0 km/h (3 Bft) W-NW 282 ° 1 min 0,000 mm 6,0 UV-I 846 W/m² 14,0 °C 19,4 °C 22,5 km/h (4 Bft)
03.08.2019 11:50 19,4 °C 71 % 1013,4 hPa 0,0 mm 13,1 km/h (3 Bft) W-SW 253 ° 1 min 0,000 mm 3,2 UV-I 846 W/m² 14,0 °C 19,4 °C 22,5 km/h (4 Bft)
03.08.2019 11:51 19,3 °C 69 % 1013,4 hPa 0,0 mm 18,4 km/h (3 Bft) W-SW 256 ° 1 min 0,000 mm 5,8 UV-I 846 W/m² 13,5 °C 19,3 °C 27,4 km/h (4 Bft)
03.08.2019 11:52 19,3 °C 70 % 1013,4 hPa 0,0 mm 16,7 km/h (3 Bft) W 260 ° 1 min 0,000 mm 6,4 UV-I 846 W/m² 13,7 °C 19,3 °C 20,9 km/h (4 Bft)
03.08.2019 11:53 19,3 °C 73 % 1013,4 hPa 0,0 mm 12,5 km/h (3 Bft) W-SW 255 ° 1 min 0,000 mm 6,4 UV-I 846 W/m² 14,3 °C 19,3 °C 22,5 km/h (4 Bft)
03.08.2019 11:54 19,4 °C 70 % 1013,3 hPa 0,0 mm 8,7 km/h (2 Bft) W-NW 286 ° 1 min 0,000 mm 3,8 UV-I 846 W/m² 13,8 °C 19,4 °C 12,9 km/h (3 Bft)
03.08.2019 11:55 19,5 °C 74 % 1013,3 hPa 0,0 mm 6,2 km/h (2 Bft) W 265 ° 1 min 0,000 mm 6,2 UV-I 846 W/m² 14,7 °C 19,5 °C 11,3 km/h (2 Bft)
03.08.2019 11:56 19,6 °C 71 % 1013,3 hPa 0,0 mm 12,9 km/h (3 Bft) W-NW 300 ° 1 min 0,000 mm 6,1 UV-I 939 W/m² 14,2 °C 19,6 °C 24,1 km/h (4 Bft)
03.08.2019 11:57 19,7 °C 71 % 1013,2 hPa 0,0 mm 16,9 km/h (3 Bft) W-NW 287 ° 0 min 0,000 mm 4,0 UV-I 348 W/m² 14,3 °C 19,7 °C 25,7 km/h (4 Bft)
03.08.2019 11:58 19,7 °C 69 % 1013,3 hPa 0,0 mm 16,7 km/h (3 Bft) W-SW 252 ° 0 min 0,000 mm 5,2 UV-I 299 W/m² 13,8 °C 19,7 °C 22,5 km/h (4 Bft)
03.08.2019 11:59 19,6 °C 69 % 1013,3 hPa 0,0 mm 15,8 km/h (3 Bft) SW 234 ° 0 min 0,000 mm 3,6 UV-I 325 W/m² 13,8 °C 19,6 °C 19,3 km/h (3 Bft)
03.08.2019 12:00 19,4 °C 69 % 1013,3 hPa 0,0 mm 12,5 km/h (3 Bft) W-NW 294 ° 0 min 0,254 mm 4,4 UV-I 325 W/m² 13,6 °C 19,4 °C 19,3 km/h (3 Bft)
03.08.2019 12:01 19,3 °C 70 % 1013,2 hPa 0,0 mm 10,4 km/h (2 Bft) W-SW 250 ° 0 min 0,000 mm 3,4 UV-I 325 W/m² 13,7 °C 19,3 °C 17,7 km/h (3 Bft)
03.08.2019 12:02 19,3 °C 69 % 1013,3 hPa 0,0 mm 19,3 km/h (3 Bft) W-NW 285 ° 0 min 0,000 mm 3,2 UV-I 325 W/m² 13,5 °C 19,3 °C 29,0 km/h (5 Bft)
03.08.2019 12:03 19,2 °C 69 % 1013,3 hPa 0,0 mm 16,9 km/h (3 Bft) W 265 ° 0 min 0,000 mm 3,5 UV-I 348 W/m² 13,4 °C 19,2 °C 22,5 km/h (4 Bft)
03.08.2019 12:04 19,1 °C 70 % 1013,3 hPa 0,0 mm 13,1 km/h (3 Bft) W 259 ° 0 min 0,000 mm 3,8 UV-I 348 W/m² 13,5 °C 19,1 °C 20,9 km/h (4 Bft)
03.08.2019 12:05 19,1 °C 71 % 1013,3 hPa 0,0 mm 11,4 km/h (2 Bft) W-SW 246 ° 0 min 0,000 mm 3,0 UV-I 332 W/m² 13,7 °C 19,1 °C 16,1 km/h (3 Bft)
03.08.2019 12:06 19,1 °C 71 % 1013,3 hPa 0,0 mm 11,8 km/h (2 Bft) NW 304 ° 0 min 0,000 mm 2,6 UV-I 271 W/m² 13,7 °C 19,1 °C 20,9 km/h (4 Bft)
03.08.2019 12:07 19,1 °C 68 % 1013,3 hPa 0,0 mm 10,3 km/h (2 Bft) NW 324 ° 0 min 0,000 mm 2,6 UV-I 241 W/m² 13,1 °C 19,1 °C 19,3 km/h (3 Bft)
03.08.2019 12:08 19,0 °C 69 % 1013,3 hPa 0,0 mm 13,9 km/h (3 Bft) W 273 ° 0 min 0,000 mm 2,9 UV-I 248 W/m² 13,2 °C 19,0 °C 22,5 km/h (4 Bft)
03.08.2019 12:09 18,9 °C 69 % 1013,2 hPa 0,0 mm 21,6 km/h (4 Bft) W-SW 253 ° 0 min 0,000 mm 3,1 UV-I 285 W/m² 13,1 °C 18,9 °C 27,4 km/h (4 Bft)
03.08.2019 12:10 18,9 °C 70 % 1013,2 hPa 0,0 mm 10,5 km/h (2 Bft) W-NW 301 ° 1 min 0,000 mm 6,1 UV-I 1055 W/m² 13,3 °C 18,9 °C 19,3 km/h (3 Bft)
03.08.2019 12:11 19,1 °C 72 % 1013,2 hPa 0,0 mm 14,3 km/h (3 Bft) W-SW 246 ° 1 min 0,000 mm 2,9 UV-I 1055 W/m² 13,9 °C 19,1 °C 20,9 km/h (4 Bft)
03.08.2019 12:12 19,2 °C 72 % 1013,2 hPa 0,0 mm 13,7 km/h (3 Bft) N-NW 327 ° 0 min 0,000 mm 2,5 UV-I 343 W/m² 14,0 °C 19,2 °C 22,5 km/h (4 Bft)
03.08.2019 12:13 19,3 °C 70 % 1013,3 hPa 0,0 mm 10,0 km/h (2 Bft) W 281 ° 0 min 0,000 mm 2,0 UV-I 343 W/m² 13,7 °C 19,3 °C 16,1 km/h (3 Bft)
03.08.2019 12:14 19,3 °C 69 % 1013,2 hPa 0,0 mm 9,1 km/h (2 Bft) W 275 ° 0 min 0,000 mm 1,8 UV-I 209 W/m² 13,5 °C 19,3 °C 16,1 km/h (3 Bft)
03.08.2019 12:15 19,2 °C 72 % 1013,3 hPa 0,0 mm 8,9 km/h (2 Bft) W-SW 247 ° 0 min 0,000 mm 1,7 UV-I 183 W/m² 14,0 °C 19,2 °C 16,1 km/h (3 Bft)
03.08.2019 12:16 19,2 °C 71 % 1013,3 hPa 0,0 mm 8,0 km/h (2 Bft) W 276 ° 0 min 0,000 mm 1,7 UV-I 176 W/m² 13,8 °C 19,2 °C 12,9 km/h (3 Bft)
03.08.2019 12:17 19,1 °C 71 % 1013,3 hPa 0,0 mm 14,2 km/h (3 Bft) NW 311 ° 0 min 0,000 mm 1,7 UV-I 174 W/m² 13,7 °C 19,1 °C 22,5 km/h (4 Bft)
03.08.2019 12:18 18,9 °C 70 % 1013,2 hPa 0,0 mm 16,0 km/h (3 Bft) W 276 ° 0 min 0,000 mm 1,9 UV-I 188 W/m² 13,3 °C 18,9 °C 24,1 km/h (4 Bft)
03.08.2019 12:19 18,9 °C 70 % 1013,2 hPa 0,0 mm 16,9 km/h (3 Bft) W-NW 288 ° 0 min 0,000 mm 2,1 UV-I 207 W/m² 13,3 °C 18,9 °C 27,4 km/h (4 Bft)
03.08.2019 12:20 18,8 °C 70 % 1013,3 hPa 0,0 mm 13,8 km/h (3 Bft) W 264 ° 0 min 0,000 mm 2,0 UV-I 190 W/m² 13,2 °C 18,8 °C 19,3 km/h (3 Bft)
03.08.2019 12:21 18,7 °C 70 % 1013,4 hPa 0,0 mm 20,7 km/h (4 Bft) W-NW 287 ° 0 min 0,000 mm 2,1 UV-I 197 W/m² 13,1 °C 18,7 °C 29,0 km/h (5 Bft)
03.08.2019 12:22 18,7 °C 68 % 1013,3 hPa 0,0 mm 14,1 km/h (3 Bft) W 263 ° 0 min 0,000 mm 2,6 UV-I 239 W/m² 12,7 °C 18,7 °C 22,5 km/h (4 Bft)
03.08.2019 12:23 18,6 °C 69 % 1013,3 hPa 0,0 mm 14,1 km/h (3 Bft) W 276 ° 0 min 0,000 mm 2,5 UV-I 195 W/m² 12,8 °C 18,6 °C 19,3 km/h (3 Bft)
03.08.2019 12:24 18,5 °C 70 % 1013,4 hPa 0,0 mm 13,8 km/h (3 Bft) W-NW 295 ° 0 min 0,000 mm 2,8 UV-I 179 W/m² 12,9 °C 18,5 °C 19,3 km/h (3 Bft)
03.08.2019 12:25 18,5 °C 71 % 1013,4 hPa 0,0 mm 12,5 km/h (3 Bft) W 272 ° 0 min 0,000 mm 6,0 UV-I 179 W/m² 13,1 °C 18,5 °C 16,1 km/h (3 Bft)
03.08.2019 12:26 18,6 °C 70 % 1013,4 hPa 0,0 mm 13,6 km/h (3 Bft) W-SW 249 ° 1 min 0,000 mm 6,3 UV-I 930 W/m² 13,0 °C 18,6 °C 20,9 km/h (4 Bft)
03.08.2019 12:27 18,8 °C 70 % 1013,3 hPa 0,0 mm 10,9 km/h (2 Bft) W-NW 286 ° 1 min 0,000 mm 6,5 UV-I 932 W/m² 13,2 °C 18,8 °C 12,9 km/h (3 Bft)
03.08.2019 12:28 19,0 °C 70 % 1013,3 hPa 0,0 mm 13,3 km/h (3 Bft) W 259 ° 1 min 0,000 mm 6,6 UV-I 925 W/m² 13,4 °C 19,0 °C 20,9 km/h (4 Bft)
03.08.2019 12:29 19,2 °C 69 % 1013,3 hPa 0,0 mm 8,1 km/h (2 Bft) W 264 ° 1 min 0,000 mm 6,7 UV-I 939 W/m² 13,4 °C 19,2 °C 12,9 km/h (3 Bft)
03.08.2019 12:30 19,3 °C 69 % 1013,3 hPa 0,0 mm 7,6 km/h (2 Bft) W-SW 250 ° 1 min 0,000 mm 6,7 UV-I 956 W/m² 13,5 °C 19,3 °C 16,1 km/h (3 Bft)
03.08.2019 12:31 19,5 °C 73 % 1013,3 hPa 0,0 mm 9,1 km/h (2 Bft) W-SW 251 ° 1 min 0,000 mm 5,5 UV-I 1025 W/m² 14,5 °C 19,5 °C 17,7 km/h (3 Bft)
03.08.2019 12:32 19,7 °C 70 % 1013,3 hPa 0,0 mm 15,3 km/h (3 Bft) W 279 ° 1 min 0,000 mm 3,9 UV-I 1025 W/m² 14,1 °C 19,7 °C 19,3 km/h (3 Bft)
03.08.2019 12:33 19,8 °C 69 % 1013,2 hPa 0,0 mm 12,6 km/h (3 Bft) W 268 ° 1 min 0,000 mm 6,5 UV-I 1025 W/m² 13,9 °C 19,8 °C 17,7 km/h (3 Bft)
03.08.2019 12:34 20,0 °C 71 % 1013,2 hPa 0,0 mm 13,0 km/h (3 Bft) W-SW 256 ° 1 min 0,000 mm 5,8 UV-I 863 W/m² 14,6 °C 20,0 °C 16,1 km/h (3 Bft)
03.08.2019 12:35 20,1 °C 69 % 1013,3 hPa 0,0 mm 9,9 km/h (2 Bft) SW 228 ° 1 min 0,000 mm 6,5 UV-I 863 W/m² 14,2 °C 20,1 °C 20,9 km/h (4 Bft)
03.08.2019 12:36 20,2 °C 70 % 1013,3 hPa 0,0 mm 14,3 km/h (3 Bft) NW 309 ° 1 min 0,000 mm 3,9 UV-I 863 W/m² 14,5 °C 20,2 °C 22,5 km/h (4 Bft)
03.08.2019 12:37 20,3 °C 69 % 1013,3 hPa 0,0 mm 10,8 km/h (2 Bft) SW 229 ° 1 min 0,000 mm 5,2 UV-I 863 W/m² 14,4 °C 20,3 °C 19,3 km/h (3 Bft)
03.08.2019 12:38 20,2 °C 69 % 1013,3 hPa 0,0 mm 10,5 km/h (2 Bft) W 280 ° 0 min 0,000 mm 3,4 UV-I 371 W/m² 14,3 °C 20,2 °C 17,7 km/h (3 Bft)
03.08.2019 12:39 20,2 °C 69 % 1013,3 hPa 0,0 mm 9,3 km/h (2 Bft) W 271 ° 0 min 0,000 mm 3,6 UV-I 459 W/m² 14,3 °C 20,2 °C 12,9 km/h (3 Bft)
03.08.2019 12:40 20,1 °C 69 % 1013,2 hPa 0,0 mm 9,9 km/h (2 Bft) W-SW 250 ° 0 min 0,000 mm 4,0 UV-I 519 W/m² 14,2 °C 20,1 °C 17,7 km/h (3 Bft)
03.08.2019 12:41 20,1 °C 71 % 1013,3 hPa 0,0 mm 9,1 km/h (2 Bft) W-NW 303 ° 0 min 0,000 mm 3,1 UV-I 519 W/m² 14,7 °C 20,1 °C 12,9 km/h (3 Bft)
03.08.2019 12:42 19,9 °C 69 % 1013,2 hPa 0,0 mm 12,1 km/h (2 Bft) W-NW 288 ° 0 min 0,000 mm 2,2 UV-I 519 W/m² 14,0 °C 19,9 °C 17,7 km/h (3 Bft)
03.08.2019 12:43 19,8 °C 68 % 1013,3 hPa 0,0 mm 16,4 km/h (3 Bft) W-NW 303 ° 0 min 0,000 mm 1,7 UV-I 199 W/m² 13,7 °C 19,8 °C 25,7 km/h (4 Bft)
03.08.2019 12:44 19,7 °C 68 % 1013,4 hPa 0,0 mm 16,7 km/h (3 Bft) W-NW 296 ° 0 min 0,000 mm 1,2 UV-I 102 W/m² 13,6 °C 19,7 °C 24,1 km/h (4 Bft)
03.08.2019 12:45 19,6 °C 68 % 1013,5 hPa 0,0 mm 12,5 km/h (3 Bft) W 263 ° 0 min 0,000 mm 0,5 UV-I 67 W/m² 13,5 °C 19,6 °C 20,9 km/h (4 Bft)
03.08.2019 12:46 19,4 °C 68 % 1013,5 hPa 0,0 mm 16,9 km/h (3 Bft) W 270 ° 0 min 0,000 mm 0,0 UV-I 58 W/m² 13,3 °C 19,4 °C 24,1 km/h (4 Bft)
03.08.2019 12:47 19,2 °C 68 % 1013,4 hPa 0,0 mm 23,6 km/h (4 Bft) W 277 ° 0 min 0,000 mm 0,6 UV-I 69 W/m² 13,1 °C 19,2 °C 37,0 km/h (5 Bft)
03.08.2019 12:48 18,9 °C 71 % 1013,7 hPa 0,0 mm 16,7 km/h (3 Bft) NW 309 ° 0 min 0,000 mm 0,7 UV-I 86 W/m² 13,5 °C 18,9 °C 29,0 km/h (5 Bft)
03.08.2019 12:49 18,5 °C 72 % 1013,7 hPa 0,0 mm 12,4 km/h (3 Bft) W-NW 299 ° 0 min 0,000 mm 1,0 UV-I 111 W/m² 13,4 °C 18,5 °C 16,1 km/h (3 Bft)
03.08.2019 12:50 18,1 °C 72 % 1013,7 hPa 0,0 mm 11,1 km/h (2 Bft) W-NW 290 ° 0 min 0,000 mm 1,3 UV-I 178 W/m² 13,0 °C 18,1 °C 19,3 km/h (3 Bft)
03.08.2019 12:51 17,7 °C 72 % 1013,7 hPa 0,0 mm 11,5 km/h (2 Bft) W-NW 289 ° 0 min 0,000 mm 1,9 UV-I 218 W/m² 12,6 °C 17,7 °C 17,7 km/h (3 Bft)
03.08.2019 12:52 17,3 °C 73 % 1013,7 hPa 0,0 mm 10,3 km/h (2 Bft) W-NW 290 ° 0 min 0,000 mm 2,3 UV-I 255 W/m² 12,4 °C 17,3 °C 19,3 km/h (3 Bft)
03.08.2019 12:53 17,0 °C 73 % 1013,7 hPa 0,0 mm 7,2 km/h (2 Bft) NW 325 ° 0 min 0,000 mm 3,3 UV-I 297 W/m² 12,1 °C 17,0 °C 14,5 km/h (3 Bft)
03.08.2019 12:54 16,7 °C 76 % 1013,8 hPa 0,0 mm 10,2 km/h (2 Bft) NW 310 ° 0 min 0,000 mm 2,7 UV-I 323 W/m² 12,4 °C 16,7 °C 16,1 km/h (3 Bft)
03.08.2019 12:55 16,6 °C 76 % 1013,8 hPa 0,0 mm 9,3 km/h (2 Bft) W 278 ° 0 min 0,000 mm 2,8 UV-I 320 W/m² 12,3 °C 16,6 °C 12,9 km/h (3 Bft)
03.08.2019 12:56 16,4 °C 78 % 1013,7 hPa 0,0 mm 9,6 km/h (2 Bft) W 275 ° 0 min 0,000 mm 2,8 UV-I 329 W/m² 12,6 °C 16,4 °C 12,9 km/h (3 Bft)
03.08.2019 12:57 16,4 °C 79 % 1013,7 hPa 0,0 mm 12,7 km/h (3 Bft) W-NW 288 ° 0 min 0,000 mm 2,9 UV-I 338 W/m² 12,7 °C 16,4 °C 17,7 km/h (3 Bft)
03.08.2019 12:58 16,3 °C 80 % 1013,7 hPa 0,0 mm 8,9 km/h (2 Bft) W-NW 298 ° 0 min 0,000 mm 3,2 UV-I 392 W/m² 12,8 °C 16,3 °C 14,5 km/h (3 Bft)
03.08.2019 12:59 16,3 °C 80 % 1013,8 hPa 0,0 mm 7,0 km/h (2 Bft) W 275 ° 0 min 0,000 mm 2,6 UV-I 327 W/m² 12,8 °C 16,3 °C 12,9 km/h (3 Bft)
03.08.2019 13:00 16,3 °C 80 % 1013,7 hPa 0,0 mm 13,2 km/h (3 Bft) W-NW 291 ° 0 min 0,000 mm 2,3 UV-I 295 W/m² 12,8 °C 16,3 °C 20,9 km/h (4 Bft)
03.08.2019 13:01 16,3 °C 81 % 1013,8 hPa 0,0 mm 12,7 km/h (3 Bft) W-SW 238 ° 0 min 0,280 mm 2,0 UV-I 237 W/m² 13,0 °C 16,3 °C 20,9 km/h (4 Bft)
03.08.2019 13:02 16,3 °C 80 % 1013,8 hPa 0,0 mm 7,6 km/h (2 Bft) W-NW 294 ° 0 min 0,000 mm 1,8 UV-I 193 W/m² 12,8 °C 16,3 °C 14,5 km/h (3 Bft)
03.08.2019 13:03 16,2 °C 81 % 1013,7 hPa 0,0 mm 5,4 km/h (1 Bft) N-NW 337 ° 0 min 0,000 mm 1,9 UV-I 188 W/m² 12,9 °C 16,2 °C 9,7 km/h (2 Bft)
03.08.2019 13:04 16,2 °C 82 % 1013,7 hPa 0,2 mm 6,1 km/h (2 Bft) W 264 ° 0 min 0,000 mm 1,4 UV-I 158 W/m² 13,1 °C 16,2 °C 9,7 km/h (2 Bft)
03.08.2019 13:05 16,1 °C 83 % 1013,7 hPa 0,0 mm 8,6 km/h (2 Bft) W-NW 288 ° 0 min 0,000 mm 1,3 UV-I 142 W/m² 13,2 °C 16,1 °C 14,5 km/h (3 Bft)
03.08.2019 13:06 16,1 °C 82 % 1013,7 hPa 0,0 mm 8,9 km/h (2 Bft) W-SW 254 ° 0 min 0,000 mm 1,3 UV-I 141 W/m² 13,0 °C 16,1 °C 12,9 km/h (3 Bft)
03.08.2019 13:07 16,0 °C 82 % 1013,7 hPa 0,0 mm 10,7 km/h (2 Bft) W 278 ° 0 min 0,000 mm 1,3 UV-I 142 W/m² 12,9 °C 16,0 °C 19,3 km/h (3 Bft)
03.08.2019 13:08 15,9 °C 82 % 1013,8 hPa 0,0 mm 6,7 km/h (2 Bft) W-NW 283 ° 0 min 0,000 mm 1,3 UV-I 151 W/m² 12,8 °C 15,9 °C 9,7 km/h (2 Bft)
03.08.2019 13:09 15,9 °C 82 % 1013,8 hPa 0,0 mm 9,3 km/h (2 Bft) W 265 ° 0 min 0,000 mm 1,5 UV-I 160 W/m² 12,8 °C 15,9 °C 12,9 km/h (3 Bft)
03.08.2019 13:10 15,9 °C 82 % 1013,8 hPa 0,0 mm 7,8 km/h (2 Bft) W 281 ° 0 min 0,000 mm 1,6 UV-I 165 W/m² 12,8 °C 15,9 °C 14,5 km/h (3 Bft)
03.08.2019 13:11 15,9 °C 84 % 1013,8 hPa 0,0 mm 8,3 km/h (2 Bft) W-SW 239 ° 0 min 0,000 mm 1,6 UV-I 163 W/m² 13,2 °C 15,9 °C 11,3 km/h (2 Bft)
03.08.2019 13:12 15,9 °C 84 % 1013,8 hPa 0,0 mm 10,7 km/h (2 Bft) W 261 ° 0 min 0,000 mm 1,7 UV-I 165 W/m² 13,2 °C 15,9 °C 12,9 km/h (3 Bft)
03.08.2019 13:13 15,9 °C 83 % 1013,8 hPa 0,0 mm 12,6 km/h (3 Bft) W-NW 288 ° 0 min 0,000 mm 1,9 UV-I 178 W/m² 13,0 °C 15,9 °C 14,5 km/h (3 Bft)
03.08.2019 13:14 15,9 °C 82 % 1013,8 hPa 0,0 mm 7,4 km/h (2 Bft) W-SW 250 ° 0 min 0,000 mm 2,2 UV-I 248 W/m² 12,8 °C 15,9 °C 12,9 km/h (3 Bft)
03.08.2019 13:15 15,9 °C 84 % 1013,8 hPa 0,0 mm 10,1 km/h (2 Bft) W 263 ° 0 min 0,000 mm 5,8 UV-I 348 W/m² 13,2 °C 15,9 °C 14,5 km/h (3 Bft)
03.08.2019 13:16 16,1 °C 84 % 1013,8 hPa 0,0 mm 9,5 km/h (2 Bft) W-SW 254 ° 0 min 0,000 mm 3,8 UV-I 348 W/m² 13,4 °C 16,1 °C 14,5 km/h (3 Bft)
03.08.2019 13:17 16,2 °C 84 % 1013,8 hPa 0,0 mm 7,8 km/h (2 Bft) W-SW 246 ° 0 min 0,000 mm 3,7 UV-I 348 W/m² 13,5 °C 16,2 °C 11,3 km/h (2 Bft)
03.08.2019 13:18 16,3 °C 84 % 1013,8 hPa 0,0 mm 9,1 km/h (2 Bft) W 263 ° 0 min 0,000 mm 6,1 UV-I 348 W/m² 13,6 °C 16,3 °C 16,1 km/h (3 Bft)
03.08.2019 13:19 16,4 °C 83 % 1013,9 hPa 0,0 mm 13,7 km/h (3 Bft) W 275 ° 0 min 0,000 mm 4,6 UV-I 478 W/m² 13,5 °C 16,4 °C 16,1 km/h (3 Bft)
03.08.2019 13:20 16,6 °C 84 % 1013,8 hPa 0,0 mm 9,4 km/h (2 Bft) W 264 ° 0 min 0,000 mm 4,0 UV-I 571 W/m² 13,9 °C 16,6 °C 11,3 km/h (2 Bft)
03.08.2019 13:21 16,7 °C 85 % 1013,9 hPa 0,0 mm 9,9 km/h (2 Bft) W 264 ° 0 min 0,000 mm 5,3 UV-I 494 W/m² 14,2 °C 16,7 °C 16,1 km/h (3 Bft)
03.08.2019 13:22 16,9 °C 83 % 1013,7 hPa 0,0 mm 6,0 km/h (2 Bft) W 261 ° 0 min 0,000 mm 3,8 UV-I 512 W/m² 14,0 °C 16,9 °C 12,9 km/h (3 Bft)
03.08.2019 13:23 16,9 °C 82 % 1013,9 hPa 0,0 mm 10,0 km/h (2 Bft) W 265 ° 0 min 0,000 mm 3,7 UV-I 512 W/m² 13,8 °C 16,9 °C 14,5 km/h (3 Bft)
03.08.2019 13:24 17,1 °C 83 % 1013,8 hPa 0,0 mm 4,4 km/h (1 Bft) W 267 ° 0 min 0,000 mm 3,9 UV-I 415 W/m² 14,2 °C 17,1 °C 6,4 km/h (2 Bft)
03.08.2019 13:25 17,2 °C 83 % 1013,9 hPa 0,0 mm 9,9 km/h (2 Bft) W-NW 288 ° 0 min 0,000 mm 4,1 UV-I 501 W/m² 14,3 °C 17,2 °C 14,5 km/h (3 Bft)
03.08.2019 13:26 17,2 °C 82 % 1013,8 hPa 0,0 mm 5,8 km/h (2 Bft) W-SW 252 ° 1 min 0,000 mm 4,9 UV-I 738 W/m² 14,1 °C 17,2 °C 9,7 km/h (2 Bft)
03.08.2019 13:27 17,4 °C 84 % 1013,9 hPa 0,0 mm 8,0 km/h (2 Bft) W-SW 252 ° 1 min 0,000 mm 5,1 UV-I 738 W/m² 14,7 °C 17,4 °C 12,9 km/h (3 Bft)
03.08.2019 13:28 17,6 °C 83 % 1013,8 hPa 0,0 mm 6,0 km/h (2 Bft) NW 307 ° 1 min 0,000 mm 6,3 UV-I 738 W/m² 14,7 °C 17,6 °C 8,0 km/h (2 Bft)
03.08.2019 13:29 17,7 °C 82 % 1013,7 hPa 0,0 mm 9,0 km/h (2 Bft) W 274 ° 0 min 0,000 mm 3,7 UV-I 427 W/m² 14,6 °C 17,7 °C 17,7 km/h (3 Bft)
03.08.2019 13:30 17,7 °C 82 % 1013,8 hPa 0,0 mm 5,7 km/h (1 Bft) W 262 ° 0 min 0,000 mm 3,3 UV-I 345 W/m² 14,6 °C 17,7 °C 14,5 km/h (3 Bft)
03.08.2019 13:31 17,7 °C 80 % 1013,8 hPa 0,0 mm 5,0 km/h (1 Bft) W 273 ° 0 min 0,000 mm 3,1 UV-I 290 W/m² 14,2 °C 17,7 °C 11,3 km/h (2 Bft)
03.08.2019 13:32 17,6 °C 80 % 1013,8 hPa 0,0 mm 9,0 km/h (2 Bft) W-NW 286 ° 0 min 0,000 mm 2,7 UV-I 272 W/m² 14,1 °C 17,6 °C 12,9 km/h (3 Bft)
03.08.2019 13:33 17,6 °C 81 % 1013,8 hPa 0,0 mm 7,2 km/h (2 Bft) W 265 ° 0 min 0,000 mm 2,6 UV-I 265 W/m² 14,3 °C 17,6 °C 11,3 km/h (2 Bft)
03.08.2019 13:34 17,6 °C 81 % 1013,8 hPa 0,0 mm 7,3 km/h (2 Bft) SW 229 ° 0 min 0,000 mm 2,7 UV-I 276 W/m² 14,3 °C 17,6 °C 11,3 km/h (2 Bft)
03.08.2019 13:35 17,6 °C 81 % 1013,8 hPa 0,0 mm 10,6 km/h (2 Bft) W-NW 286 ° 0 min 0,000 mm 3,0 UV-I 332 W/m² 14,3 °C 17,6 °C 16,1 km/h (3 Bft)
03.08.2019 13:36 17,6 °C 80 % 1013,8 hPa 0,0 mm 11,1 km/h (2 Bft) W-NW 302 ° 0 min 0,000 mm 2,9 UV-I 306 W/m² 14,1 °C 17,6 °C 14,5 km/h (3 Bft)
03.08.2019 13:37 17,5 °C 81 % 1013,8 hPa 0,0 mm 4,3 km/h (1 Bft) SW 217 ° 0 min 0,000 mm 3,2 UV-I 306 W/m² 14,2 °C 17,5 °C 12,9 km/h (3 Bft)
03.08.2019 13:38 17,5 °C 81 % 1013,8 hPa 0,0 mm 3,3 km/h (1 Bft) W-NW 286 ° 0 min 0,000 mm 3,0 UV-I 309 W/m² 14,2 °C 17,5 °C 9,7 km/h (2 Bft)
03.08.2019 13:39 17,5 °C 81 % 1013,8 hPa 0,0 mm 7,9 km/h (2 Bft) W-SW 255 ° 0 min 0,000 mm 3,2 UV-I 325 W/m² 14,2 °C 17,5 °C 12,9 km/h (3 Bft)
03.08.2019 13:40 17,6 °C 82 % 1013,8 hPa 0,0 mm 9,1 km/h (2 Bft) W-SW 238 ° 0 min 0,000 mm 3,4 UV-I 371 W/m² 14,5 °C 17,6 °C 14,5 km/h (3 Bft)
03.08.2019 13:41 17,6 °C 81 % 1013,8 hPa 0,0 mm 5,3 km/h (1 Bft) W 271 ° 0 min 0,000 mm 3,4 UV-I 343 W/m² 14,3 °C 17,6 °C 11,3 km/h (2 Bft)
03.08.2019 13:42 17,6 °C 82 % 1013,8 hPa 0,0 mm 5,0 km/h (1 Bft) W-NW 283 ° 0 min 0,000 mm 3,5 UV-I 330 W/m² 14,5 °C 17,6 °C 9,7 km/h (2 Bft)
03.08.2019 13:43 17,6 °C 82 % 1013,8 hPa 0,0 mm 7,4 km/h (2 Bft) W 261 ° 0 min 0,000 mm 3,5 UV-I 311 W/m² 14,5 °C 17,6 °C 12,9 km/h (3 Bft)
03.08.2019 13:44 17,7 °C 81 % 1013,9 hPa 0,0 mm 5,3 km/h (1 Bft) W 279 ° 0 min 0,000 mm 3,4 UV-I 404 W/m² 14,4 °C 17,7 °C 11,3 km/h (2 Bft)
03.08.2019 13:45 17,7 °C 81 % 1013,8 hPa 0,0 mm 4,8 km/h (1 Bft) W 277 ° 0 min 0,000 mm 6,4 UV-I 417 W/m² 14,4 °C 17,7 °C 8,0 km/h (2 Bft)
03.08.2019 13:46 17,8 °C 83 % 1013,8 hPa 0,0 mm 3,8 km/h (1 Bft) W-SW 237 ° 0 min 0,000 mm 6,7 UV-I 417 W/m² 14,9 °C 17,8 °C 9,7 km/h (2 Bft)
03.08.2019 13:47 18,0 °C 82 % 1013,8 hPa 0,0 mm 1,8 km/h (1 Bft) W-SW 240 ° 1 min 0,000 mm 6,7 UV-I 990 W/m² 14,9 °C 18,0 °C 3,2 km/h (1 Bft)
03.08.2019 13:48 18,2 °C 83 % 1013,8 hPa 0,0 mm 6,3 km/h (2 Bft) NW 313 ° 1 min 0,000 mm 6,7 UV-I 970 W/m² 15,3 °C 18,2 °C 9,7 km/h (2 Bft)
03.08.2019 13:49 18,6 °C 85 % 1013,7 hPa 0,0 mm 4,5 km/h (1 Bft) NW 321 ° 1 min 0,000 mm 6,7 UV-I 912 W/m² 16,0 °C 18,6 °C 8,0 km/h (2 Bft)
03.08.2019 13:50 18,7 °C 80 % 1013,7 hPa 0,0 mm 7,7 km/h (2 Bft) NW 309 ° 1 min 0,000 mm 6,6 UV-I 904 W/m² 15,2 °C 18,7 °C 12,9 km/h (3 Bft)
03.08.2019 13:51 18,9 °C 81 % 1013,7 hPa 0,0 mm 7,6 km/h (2 Bft) W-NW 293 ° 1 min 0,000 mm 6,6 UV-I 889 W/m² 15,6 °C 18,9 °C 11,3 km/h (2 Bft)
03.08.2019 13:52 19,1 °C 80 % 1013,7 hPa 0,0 mm 6,7 km/h (2 Bft) W 269 ° 1 min 0,000 mm 6,6 UV-I 879 W/m² 15,6 °C 19,1 °C 17,7 km/h (3 Bft)
03.08.2019 13:53 19,1 °C 76 % 1013,6 hPa 0,0 mm 10,5 km/h (2 Bft) W-NW 289 ° 1 min 0,000 mm 6,5 UV-I 868 W/m² 14,8 °C 19,1 °C 20,9 km/h (4 Bft)
03.08.2019 13:54 18,9 °C 76 % 1013,7 hPa 0,0 mm 6,5 km/h (2 Bft) W 267 ° 1 min 0,000 mm 6,5 UV-I 867 W/m² 14,6 °C 18,9 °C 12,9 km/h (3 Bft)
03.08.2019 13:55 19,0 °C 79 % 1013,7 hPa 0,0 mm 10,7 km/h (2 Bft) W 263 ° 1 min 0,000 mm 6,4 UV-I 861 W/m² 15,3 °C 19,0 °C 14,5 km/h (3 Bft)
03.08.2019 13:56 19,2 °C 80 % 1013,7 hPa 0,0 mm 6,8 km/h (2 Bft) W-NW 285 ° 1 min 0,000 mm 6,4 UV-I 886 W/m² 15,7 °C 19,2 °C 11,3 km/h (2 Bft)
03.08.2019 13:57 19,2 °C 79 % 1013,7 hPa 0,0 mm 9,7 km/h (2 Bft) W 263 ° 1 min 0,000 mm 6,0 UV-I 849 W/m² 15,5 °C 19,2 °C 14,5 km/h (3 Bft)
03.08.2019 13:58 19,3 °C 79 % 1013,7 hPa 0,0 mm 9,2 km/h (2 Bft) W-SW 257 ° 1 min 0,000 mm 6,4 UV-I 868 W/m² 15,6 °C 19,3 °C 12,9 km/h (3 Bft)
03.08.2019 13:59 19,3 °C 79 % 1013,6 hPa 0,0 mm 11,7 km/h (2 Bft) W-SW 251 ° 1 min 0,000 mm 5,8 UV-I 838 W/m² 15,6 °C 19,3 °C 17,7 km/h (3 Bft)
03.08.2019 14:00 19,3 °C 77 % 1013,7 hPa 0,0 mm 11,3 km/h (2 Bft) W 264 ° 1 min 0,279 mm 6,5 UV-I 874 W/m² 15,2 °C 19,3 °C 17,7 km/h (3 Bft)
03.08.2019 14:01 19,2 °C 76 % 1013,6 hPa 0,0 mm 13,1 km/h (3 Bft) NW 306 ° 1 min 0,000 mm 6,5 UV-I 911 W/m² 14,9 °C 19,2 °C 17,7 km/h (3 Bft)
03.08.2019 14:02 19,2 °C 76 % 1013,6 hPa 0,0 mm 10,6 km/h (2 Bft) W 277 ° 1 min 0,000 mm 4,3 UV-I 911 W/m² 14,9 °C 19,2 °C 17,7 km/h (3 Bft)
03.08.2019 14:03 19,2 °C 77 % 1013,6 hPa 0,0 mm 10,0 km/h (2 Bft) SW 232 ° 1 min 0,000 mm 4,6 UV-I 911 W/m² 15,1 °C 19,2 °C 12,9 km/h (3 Bft)
03.08.2019 14:04 19,2 °C 77 % 1013,6 hPa 0,0 mm 12,9 km/h (3 Bft) SW 219 ° 1 min 0,000 mm 3,5 UV-I 911 W/m² 15,1 °C 19,2 °C 17,7 km/h (3 Bft)
03.08.2019 14:05 19,1 °C 77 % 1013,6 hPa 0,0 mm 7,2 km/h (2 Bft) W 271 ° 0 min 0,000 mm 3,2 UV-I 257 W/m² 15,0 °C 19,1 °C 14,5 km/h (3 Bft)
03.08.2019 14:06 19,0 °C 76 % 1013,6 hPa 0,0 mm 12,2 km/h (2 Bft) W-NW 282 ° 0 min 0,000 mm 3,1 UV-I 250 W/m² 14,7 °C 19,0 °C 17,7 km/h (3 Bft)
03.08.2019 14:07 19,0 °C 77 % 1013,6 hPa 0,0 mm 5,4 km/h (1 Bft) S 191 ° 0 min 0,000 mm 5,5 UV-I 306 W/m² 14,9 °C 19,0 °C 9,7 km/h (2 Bft)
03.08.2019 14:08 18,9 °C 76 % 1013,6 hPa 0,0 mm 7,1 km/h (2 Bft) W 269 ° 0 min 0,000 mm 4,7 UV-I 306 W/m² 14,6 °C 18,9 °C 11,3 km/h (2 Bft)
03.08.2019 14:09 19,1 °C 78 % 1013,7 hPa 0,0 mm 7,0 km/h (2 Bft) SW 234 ° 0 min 0,000 mm 6,5 UV-I 306 W/m² 15,2 °C 19,1 °C 11,3 km/h (2 Bft)
03.08.2019 14:10 19,2 °C 75 % 1013,7 hPa 0,0 mm 5,1 km/h (1 Bft) S-SW 196 ° 1 min 0,000 mm 6,4 UV-I 925 W/m² 14,7 °C 19,2 °C 8,0 km/h (2 Bft)
03.08.2019 14:11 19,2 °C 76 % 1013,6 hPa 0,0 mm 5,0 km/h (1 Bft) SW 217 ° 1 min 0,000 mm 5,2 UV-I 1016 W/m² 14,9 °C 19,2 °C 11,3 km/h (2 Bft)
03.08.2019 14:12 19,3 °C 75 % 1013,6 hPa 0,0 mm 7,7 km/h (2 Bft) W 274 ° 1 min 0,000 mm 6,6 UV-I 884 W/m² 14,8 °C 19,3 °C 16,1 km/h (3 Bft)
03.08.2019 14:13 19,4 °C 76 % 1013,6 hPa 0,0 mm 7,5 km/h (2 Bft) W-SW 255 ° 1 min 0,000 mm 6,6 UV-I 905 W/m² 15,1 °C 19,4 °C 12,9 km/h (3 Bft)
03.08.2019 14:14 19,6 °C 78 % 1013,7 hPa 0,0 mm 8,9 km/h (2 Bft) W-NW 298 ° 1 min 0,000 mm 6,6 UV-I 935 W/m² 15,7 °C 19,6 °C 14,5 km/h (3 Bft)
03.08.2019 14:15 19,7 °C 75 % 1013,6 hPa 0,0 mm 11,3 km/h (2 Bft) W-NW 286 ° 1 min 0,000 mm 6,6 UV-I 905 W/m² 15,1 °C 19,7 °C 19,3 km/h (3 Bft)
03.08.2019 14:16 19,9 °C 75 % 1013,7 hPa 0,0 mm 11,9 km/h (2 Bft) W-NW 290 ° 1 min 0,000 mm 6,6 UV-I 896 W/m² 15,3 °C 19,9 °C 17,7 km/h (3 Bft)
03.08.2019 14:17 19,9 °C 73 % 1013,5 hPa 0,0 mm 6,9 km/h (2 Bft) W 270 ° 1 min 0,000 mm 5,2 UV-I 956 W/m² 14,9 °C 19,9 °C 9,7 km/h (2 Bft)
03.08.2019 14:18 20,0 °C 75 % 1013,6 hPa 0,0 mm 7,3 km/h (2 Bft) W 275 ° 1 min 0,000 mm 6,7 UV-I 956 W/m² 15,4 °C 20,0 °C 11,3 km/h (2 Bft)
03.08.2019 14:19 20,1 °C 76 % 1013,6 hPa 0,0 mm 4,1 km/h (1 Bft) NW 324 ° 1 min 0,000 mm 6,6 UV-I 935 W/m² 15,7 °C 20,1 °C 14,5 km/h (3 Bft)
03.08.2019 14:20 20,1 °C 75 % 1013,5 hPa 0,0 mm 11,0 km/h (2 Bft) W-NW 298 ° 1 min 0,000 mm 6,6 UV-I 919 W/m² 15,5 °C 20,1 °C 14,5 km/h (3 Bft)
03.08.2019 14:21 20,2 °C 75 % 1013,6 hPa 0,0 mm 5,8 km/h (2 Bft) N-NW 333 ° 1 min 0,000 mm 6,6 UV-I 919 W/m² 15,6 °C 20,2 °C 11,3 km/h (2 Bft)
03.08.2019 14:22 20,3 °C 73 % 1013,6 hPa 0,0 mm 8,6 km/h (2 Bft) W 264 ° 1 min 0,000 mm 6,7 UV-I 949 W/m² 15,3 °C 20,3 °C 16,1 km/h (3 Bft)
03.08.2019 14:23 20,3 °C 73 % 1013,5 hPa 0,0 mm 7,4 km/h (2 Bft) W-NW 288 ° 1 min 0,000 mm 6,7 UV-I 949 W/m² 15,3 °C 20,3 °C 14,5 km/h (3 Bft)
03.08.2019 14:24 20,4 °C 74 % 1013,5 hPa 0,0 mm 9,1 km/h (2 Bft) SW 235 ° 1 min 0,000 mm 4,7 UV-I 949 W/m² 15,6 °C 20,4 °C 14,5 km/h (3 Bft)
03.08.2019 14:25 20,4 °C 73 % 1013,6 hPa 0,0 mm 12,1 km/h (2 Bft) S-SW 204 ° 1 min 0,000 mm 3,4 UV-I 949 W/m² 15,4 °C 20,4 °C 16,1 km/h (3 Bft)
03.08.2019 14:26 20,3 °C 73 % 1013,5 hPa 0,0 mm 7,1 km/h (2 Bft) W 277 ° 0 min 0,000 mm 4,0 UV-I 297 W/m² 15,3 °C 20,3 °C 12,9 km/h (3 Bft)
03.08.2019 14:27 20,2 °C 73 % 1013,5 hPa 0,0 mm 5,7 km/h (1 Bft) W 277 ° 0 min 0,000 mm 6,2 UV-I 297 W/m² 15,2 °C 20,2 °C 11,3 km/h (2 Bft)
03.08.2019 14:28 20,2 °C 73 % 1013,5 hPa 0,0 mm 11,8 km/h (2 Bft) S-SW 211 ° 1 min 0,000 mm 5,2 UV-I 701 W/m² 15,2 °C 20,2 °C 19,3 km/h (3 Bft)
03.08.2019 14:29 20,2 °C 71 % 1013,5 hPa 0,0 mm 12,0 km/h (2 Bft) W 272 ° 1 min 0,000 mm 2,8 UV-I 731 W/m² 14,8 °C 20,2 °C 20,9 km/h (4 Bft)
03.08.2019 14:30 20,2 °C 69 % 1013,5 hPa 0,0 mm 12,9 km/h (3 Bft) W 275 ° 1 min 0,000 mm 2,8 UV-I 731 W/m² 14,3 °C 20,2 °C 20,9 km/h (4 Bft)
03.08.2019 14:31 20,1 °C 70 % 1013,5 hPa 0,0 mm 7,0 km/h (2 Bft) NW 311 ° 1 min 0,000 mm 6,4 UV-I 731 W/m² 14,5 °C 20,1 °C 12,9 km/h (3 Bft)
03.08.2019 14:32 20,2 °C 71 % 1013,5 hPa 0,0 mm 6,8 km/h (2 Bft) W-NW 300 ° 1 min 0,000 mm 6,7 UV-I 1171 W/m² 14,8 °C 20,2 °C 12,9 km/h (3 Bft)
03.08.2019 14:33 20,4 °C 70 % 1013,5 hPa 0,0 mm 9,7 km/h (2 Bft) W 273 ° 1 min 0,000 mm 6,7 UV-I 1171 W/m² 14,7 °C 20,4 °C 22,5 km/h (4 Bft)
03.08.2019 14:34 20,6 °C 69 % 1013,6 hPa 0,0 mm 12,9 km/h (3 Bft) W 265 ° 1 min 0,000 mm 6,2 UV-I 1171 W/m² 14,7 °C 20,6 °C 20,9 km/h (4 Bft)
03.08.2019 14:35 20,6 °C 62 % 1013,5 hPa 0,0 mm 16,7 km/h (3 Bft) W 280 ° 1 min 0,000 mm 3,7 UV-I 1171 W/m² 13,1 °C 20,6 °C 25,7 km/h (4 Bft)
03.08.2019 14:36 20,5 °C 62 % 1013,6 hPa 0,0 mm 15,0 km/h (3 Bft) NW 304 ° 0 min 0,000 mm 3,6 UV-I 381 W/m² 13,0 °C 20,5 °C 20,9 km/h (4 Bft)
03.08.2019 14:37 20,3 °C 61 % 1013,3 hPa 0,0 mm 17,4 km/h (3 Bft) W 281 ° 0 min 0,000 mm 3,7 UV-I 390 W/m² 12,5 °C 20,3 °C 30,6 km/h (5 Bft)
03.08.2019 14:38 20,1 °C 62 % 1013,3 hPa 0,0 mm 25,6 km/h (4 Bft) W 273 ° 0 min 0,000 mm 4,5 UV-I 464 W/m² 12,6 °C 20,1 °C 46,7 km/h (6 Bft)
03.08.2019 14:39 20,1 °C 63 % 1013,5 hPa 0,0 mm 21,4 km/h (4 Bft) W 259 ° 0 min 0,000 mm 7,0 UV-I 464 W/m² 12,8 °C 20,1 °C 27,4 km/h (4 Bft)
03.08.2019 14:40 20,1 °C 63 % 1013,5 hPa 0,0 mm 16,1 km/h (3 Bft) W-SW 252 ° 1 min 0,000 mm 6,3 UV-I 1072 W/m² 12,8 °C 20,1 °C 22,5 km/h (4 Bft)
03.08.2019 14:41 20,2 °C 63 % 1013,5 hPa 0,0 mm 15,5 km/h (3 Bft) W 263 ° 1 min 0,000 mm 6,5 UV-I 1072 W/m² 12,9 °C 20,2 °C 22,5 km/h (4 Bft)
03.08.2019 14:42 20,3 °C 64 % 1013,6 hPa 0,0 mm 15,2 km/h (3 Bft) W-NW 290 ° 0 min 0,000 mm 3,1 UV-I 322 W/m² 13,3 °C 20,3 °C 22,5 km/h (4 Bft)
03.08.2019 14:43 20,2 °C 63 % 1013,5 hPa 0,0 mm 16,2 km/h (3 Bft) W 261 ° 0 min 0,000 mm 3,0 UV-I 313 W/m² 12,9 °C 20,2 °C 24,1 km/h (4 Bft)
03.08.2019 14:44 20,2 °C 64 % 1013,6 hPa 0,0 mm 18,3 km/h (3 Bft) W-SW 238 ° 0 min 0,000 mm 3,0 UV-I 311 W/m² 13,2 °C 20,2 °C 24,1 km/h (4 Bft)
03.08.2019 14:45 20,0 °C 62 % 1013,6 hPa 0,0 mm 16,7 km/h (3 Bft) W-SW 252 ° 0 min 0,000 mm 3,1 UV-I 318 W/m² 12,5 °C 20,0 °C 25,7 km/h (4 Bft)
03.08.2019 14:46 19,9 °C 62 % 1013,6 hPa 0,0 mm 10,9 km/h (2 Bft) W 270 ° 0 min 0,000 mm 3,2 UV-I 332 W/m² 12,4 °C 19,9 °C 16,1 km/h (3 Bft)
03.08.2019 14:47 19,8 °C 62 % 1013,6 hPa 0,0 mm 15,6 km/h (3 Bft) NW 304 ° 0 min 0,000 mm 3,3 UV-I 353 W/m² 12,3 °C 19,8 °C 20,9 km/h (4 Bft)
03.08.2019 14:48 19,7 °C 64 % 1013,6 hPa 0,0 mm 8,0 km/h (2 Bft) W 281 ° 0 min 0,000 mm 3,3 UV-I 359 W/m² 12,7 °C 19,7 °C 19,3 km/h (3 Bft)
03.08.2019 14:49 19,7 °C 65 % 1013,6 hPa 0,0 mm 11,7 km/h (2 Bft) W 263 ° 0 min 0,000 mm 3,3 UV-I 357 W/m² 12,9 °C 19,7 °C 20,9 km/h (4 Bft)
03.08.2019 14:50 19,7 °C 65 % 1013,6 hPa 0,0 mm 12,3 km/h (3 Bft) W 275 ° 0 min 0,000 mm 3,6 UV-I 357 W/m² 12,9 °C 19,7 °C 22,5 km/h (4 Bft)
03.08.2019 14:51 19,7 °C 63 % 1013,6 hPa 0,0 mm 14,2 km/h (3 Bft) NW 319 ° 0 min 0,000 mm 2,8 UV-I 357 W/m² 12,5 °C 19,7 °C 22,5 km/h (4 Bft)
03.08.2019 14:52 19,6 °C 64 % 1013,6 hPa 0,0 mm 10,6 km/h (2 Bft) W-SW 254 ° 0 min 0,000 mm 2,5 UV-I 274 W/m² 12,6 °C 19,6 °C 14,5 km/h (3 Bft)
03.08.2019 14:53 19,6 °C 65 % 1013,6 hPa 0,0 mm 14,0 km/h (3 Bft) W-NW 295 ° 0 min 0,000 mm 2,7 UV-I 288 W/m² 12,8 °C 19,6 °C 20,9 km/h (4 Bft)
03.08.2019 14:54 19,6 °C 64 % 1013,7 hPa 0,0 mm 17,9 km/h (3 Bft) W-NW 299 ° 0 min 0,000 mm 3,7 UV-I 288 W/m² 12,6 °C 19,6 °C 22,5 km/h (4 Bft)
03.08.2019 14:55 19,6 °C 65 % 1013,6 hPa 0,0 mm 15,4 km/h (3 Bft) W-NW 286 ° 0 min 0,000 mm 6,3 UV-I 288 W/m² 12,8 °C 19,6 °C 19,3 km/h (3 Bft)
03.08.2019 14:56 19,7 °C 65 % 1013,7 hPa 0,0 mm 9,7 km/h (2 Bft) W-NW 295 ° 0 min 0,000 mm 3,9 UV-I 548 W/m² 12,9 °C 19,7 °C 17,7 km/h (3 Bft)
03.08.2019 14:57 19,7 °C 67 % 1013,6 hPa 0,0 mm 17,3 km/h (3 Bft) NW 316 ° 0 min 0,000 mm 4,3 UV-I 548 W/m² 13,4 °C 19,7 °C 27,4 km/h (4 Bft)
03.08.2019 14:58 19,8 °C 66 % 1013,7 hPa 0,0 mm 12,9 km/h (3 Bft) W 280 ° 0 min 0,000 mm 3,6 UV-I 548 W/m² 13,3 °C 19,8 °C 19,3 km/h (3 Bft)
03.08.2019 14:59 19,8 °C 66 % 1013,7 hPa 0,0 mm 12,9 km/h (3 Bft) W-NW 282 ° 0 min 0,000 mm 3,3 UV-I 302 W/m² 13,3 °C 19,8 °C 22,5 km/h (4 Bft)
03.08.2019 15:00 19,8 °C 66 % 1013,7 hPa 0,0 mm 17,4 km/h (3 Bft) W-NW 293 ° 0 min 0,000 mm 2,6 UV-I 302 W/m² 13,3 °C 19,8 °C 22,5 km/h (4 Bft)
03.08.2019 15:01 19,8 °C 64 % 1013,8 hPa 0,0 mm 21,3 km/h (4 Bft) W-SW 248 ° 0 min 0,407 mm 2,5 UV-I 265 W/m² 12,8 °C 19,8 °C 27,4 km/h (4 Bft)
03.08.2019 15:02 19,7 °C 64 % 1013,8 hPa 0,0 mm 14,9 km/h (3 Bft) SW 230 ° 0 min 0,000 mm 2,5 UV-I 272 W/m² 12,7 °C 19,7 °C 20,9 km/h (4 Bft)
03.08.2019 15:03 19,6 °C 64 % 1013,7 hPa 0,0 mm 12,5 km/h (3 Bft) W-NW 292 ° 0 min 0,000 mm 2,4 UV-I 264 W/m² 12,6 °C 19,6 °C 19,3 km/h (3 Bft)
03.08.2019 15:04 19,5 °C 64 % 1013,8 hPa 0,0 mm 12,3 km/h (3 Bft) W-SW 250 ° 0 min 0,000 mm 2,5 UV-I 269 W/m² 12,5 °C 19,5 °C 20,9 km/h (4 Bft)
03.08.2019 15:05 19,4 °C 65 % 1013,8 hPa 0,0 mm 10,0 km/h (2 Bft) W-NW 293 ° 0 min 0,000 mm 2,4 UV-I 285 W/m² 12,6 °C 19,4 °C 14,5 km/h (3 Bft)
03.08.2019 15:06 19,4 °C 66 % 1013,8 hPa 0,0 mm 13,7 km/h (3 Bft) NW 307 ° 0 min 0,000 mm 2,6 UV-I 301 W/m² 12,9 °C 19,4 °C 17,7 km/h (3 Bft)
03.08.2019 15:07 19,3 °C 66 % 1013,8 hPa 0,0 mm 16,2 km/h (3 Bft) W-NW 285 ° 0 min 0,000 mm 2,5 UV-I 295 W/m² 12,8 °C 19,3 °C 20,9 km/h (4 Bft)
03.08.2019 15:08 19,3 °C 65 % 1013,8 hPa 0,0 mm 12,8 km/h (3 Bft) W 280 ° 0 min 0,000 mm 2,4 UV-I 288 W/m² 12,6 °C 19,3 °C 19,3 km/h (3 Bft)
03.08.2019 15:09 19,3 °C 66 % 1013,7 hPa 0,0 mm 9,2 km/h (2 Bft) W-SW 249 ° 0 min 0,000 mm 2,4 UV-I 285 W/m² 12,8 °C 19,3 °C 12,9 km/h (3 Bft)
03.08.2019 15:10 19,3 °C 69 % 1013,7 hPa 0,0 mm 12,6 km/h (3 Bft) W 267 ° 0 min 0,000 mm 2,2 UV-I 322 W/m² 13,5 °C 19,3 °C 22,5 km/h (4 Bft)
03.08.2019 15:11 19,3 °C 67 % 1013,9 hPa 0,0 mm 17,8 km/h (3 Bft) W 275 ° 0 min 0,000 mm 2,1 UV-I 260 W/m² 13,0 °C 19,3 °C 22,5 km/h (4 Bft)
03.08.2019 15:12 19,3 °C 66 % 1013,8 hPa 0,0 mm 19,6 km/h (3 Bft) W-NW 283 ° 0 min 0,000 mm 2,2 UV-I 271 W/m² 12,8 °C 19,3 °C 29,0 km/h (5 Bft)
03.08.2019 15:13 19,3 °C 67 % 1013,8 hPa 0,0 mm 13,8 km/h (3 Bft) W-NW 293 ° 0 min 0,000 mm 2,4 UV-I 299 W/m² 13,0 °C 19,3 °C 17,7 km/h (3 Bft)
03.08.2019 15:14 19,2 °C 67 % 1013,8 hPa 0,0 mm 12,8 km/h (3 Bft) W 267 ° 0 min 0,000 mm 2,4 UV-I 294 W/m² 12,9 °C 19,2 °C 16,1 km/h (3 Bft)
03.08.2019 15:15 19,3 °C 67 % 1013,9 hPa 0,0 mm 14,1 km/h (3 Bft) W 279 ° 0 min 0,000 mm 2,4 UV-I 292 W/m² 13,0 °C 19,3 °C 19,3 km/h (3 Bft)
03.08.2019 15:16 19,3 °C 67 % 1013,8 hPa 0,0 mm 17,2 km/h (3 Bft) W 275 ° 0 min 0,000 mm 2,4 UV-I 287 W/m² 13,0 °C 19,3 °C 25,7 km/h (4 Bft)
03.08.2019 15:17 19,3 °C 67 % 1013,8 hPa 0,0 mm 12,6 km/h (3 Bft) W 279 ° 0 min 0,000 mm 2,5 UV-I 315 W/m² 13,0 °C 19,3 °C 25,7 km/h (4 Bft)
03.08.2019 15:18 19,2 °C 67 % 1013,9 hPa 0,0 mm 16,7 km/h (3 Bft) W-SW 250 ° 0 min 0,000 mm 2,7 UV-I 295 W/m² 12,9 °C 19,2 °C 24,1 km/h (4 Bft)
03.08.2019 15:19 19,2 °C 66 % 1013,9 hPa 0,0 mm 11,4 km/h (2 Bft) SW 218 ° 0 min 0,000 mm 2,9 UV-I 316 W/m² 12,7 °C 19,2 °C 19,3 km/h (3 Bft)
03.08.2019 15:20 19,3 °C 68 % 1013,8 hPa 0,0 mm 14,0 km/h (3 Bft) W 260 ° 0 min 0,000 mm 4,0 UV-I 316 W/m² 13,2 °C 19,3 °C 19,3 km/h (3 Bft)
03.08.2019 15:21 19,3 °C 66 % 1013,9 hPa 0,0 mm 18,0 km/h (3 Bft) W 273 ° 0 min 0,000 mm 4,7 UV-I 316 W/m² 12,8 °C 19,3 °C 29,0 km/h (5 Bft)
03.08.2019 15:22 19,4 °C 66 % 1013,9 hPa 0,0 mm 17,1 km/h (3 Bft) W-NW 302 ° 1 min 0,000 mm 5,8 UV-I 946 W/m² 12,9 °C 19,4 °C 24,1 km/h (4 Bft)
03.08.2019 15:23 19,5 °C 66 % 1013,8 hPa 0,0 mm 13,2 km/h (3 Bft) W-NW 290 ° 1 min 0,000 mm 5,9 UV-I 926 W/m² 13,0 °C 19,5 °C 22,5 km/h (4 Bft)
03.08.2019 15:24 19,7 °C 68 % 1013,7 hPa 0,0 mm 19,1 km/h (3 Bft) NW 312 ° 1 min 0,000 mm 5,8 UV-I 919 W/m² 13,6 °C 19,7 °C 27,4 km/h (4 Bft)
03.08.2019 15:25 19,9 °C 66 % 1013,7 hPa 0,0 mm 19,6 km/h (3 Bft) W 261 ° 1 min 0,000 mm 5,8 UV-I 919 W/m² 13,4 °C 19,9 °C 29,0 km/h (5 Bft)
03.08.2019 15:26 20,1 °C 67 % 1013,8 hPa 0,0 mm 15,4 km/h (3 Bft) NW 320 ° 1 min 0,000 mm 5,7 UV-I 919 W/m² 13,8 °C 20,1 °C 22,5 km/h (4 Bft)
03.08.2019 15:27 20,3 °C 65 % 1013,7 hPa 0,0 mm 9,5 km/h (2 Bft) W 260 ° 1 min 0,000 mm 4,3 UV-I 953 W/m² 13,5 °C 20,3 °C 12,9 km/h (3 Bft)
03.08.2019 15:28 20,3 °C 66 % 1013,8 hPa 0,0 mm 13,9 km/h (3 Bft) SW 223 ° 1 min 0,000 mm 3,1 UV-I 953 W/m² 13,7 °C 20,3 °C 22,5 km/h (4 Bft)
03.08.2019 15:29 20,3 °C 64 % 1013,9 hPa 0,0 mm 18,3 km/h (3 Bft) S 183 ° 0 min 0,000 mm 2,7 UV-I 299 W/m² 13,3 °C 20,3 °C 27,4 km/h (4 Bft)
03.08.2019 15:30 20,2 °C 64 % 1013,9 hPa 0,0 mm 8,7 km/h (2 Bft) W-SW 249 ° 0 min 0,000 mm 3,1 UV-I 327 W/m² 13,2 °C 20,2 °C 16,1 km/h (3 Bft)
03.08.2019 15:31 20,1 °C 64 % 1013,9 hPa 0,0 mm 10,6 km/h (2 Bft) W-SW 250 ° 0 min 0,000 mm 2,8 UV-I 327 W/m² 13,1 °C 20,1 °C 17,7 km/h (3 Bft)
03.08.2019 15:32 20,0 °C 64 % 1013,9 hPa 0,0 mm 15,0 km/h (3 Bft) W 264 ° 0 min 0,000 mm 2,5 UV-I 327 W/m² 13,0 °C 20,0 °C 22,5 km/h (4 Bft)
03.08.2019 15:33 19,9 °C 64 % 1013,9 hPa 0,0 mm 14,3 km/h (3 Bft) SW 234 ° 0 min 0,000 mm 2,6 UV-I 364 W/m² 12,9 °C 19,9 °C 22,5 km/h (4 Bft)
03.08.2019 15:34 19,8 °C 65 % 1014,0 hPa 0,0 mm 13,7 km/h (3 Bft) W-NW 286 ° 0 min 0,000 mm 2,4 UV-I 278 W/m² 13,0 °C 19,8 °C 20,9 km/h (4 Bft)
03.08.2019 15:35 19,7 °C 66 % 1013,9 hPa 0,0 mm 9,7 km/h (2 Bft) SW 233 ° 0 min 0,000 mm 2,3 UV-I 278 W/m² 13,2 °C 19,7 °C 14,5 km/h (3 Bft)
03.08.2019 15:36 19,6 °C 66 % 1013,9 hPa 0,0 mm 8,8 km/h (2 Bft) W-SW 242 ° 0 min 0,000 mm 2,3 UV-I 297 W/m² 13,1 °C 19,6 °C 16,1 km/h (3 Bft)
03.08.2019 15:37 19,4 °C 67 % 1013,9 hPa 0,0 mm 14,4 km/h (3 Bft) W-SW 244 ° 0 min 0,000 mm 2,4 UV-I 301 W/m² 13,1 °C 19,4 °C 22,5 km/h (4 Bft)
03.08.2019 15:38 19,4 °C 67 % 1014,0 hPa 0,0 mm 18,0 km/h (3 Bft) W 269 ° 0 min 0,000 mm 2,7 UV-I 320 W/m² 13,1 °C 19,4 °C 29,0 km/h (5 Bft)
03.08.2019 15:39 19,3 °C 66 % 1014,0 hPa 0,0 mm 7,1 km/h (2 Bft) W-SW 250 ° 0 min 0,000 mm 3,2 UV-I 353 W/m² 12,8 °C 19,3 °C 22,5 km/h (4 Bft)
03.08.2019 15:40 19,4 °C 67 % 1014,0 hPa 0,0 mm 13,2 km/h (3 Bft) W 271 ° 0 min 0,000 mm 4,8 UV-I 353 W/m² 13,1 °C 19,4 °C 19,3 km/h (3 Bft)
03.08.2019 15:41 19,4 °C 67 % 1014,0 hPa 0,0 mm 12,6 km/h (3 Bft) W 264 ° 0 min 0,000 mm 2,7 UV-I 353 W/m² 13,1 °C 19,4 °C 17,7 km/h (3 Bft)
03.08.2019 15:42 19,6 °C 69 % 1013,9 hPa 0,0 mm 11,7 km/h (2 Bft) W-NW 297 ° 0 min 0,000 mm 3,3 UV-I 390 W/m² 13,8 °C 19,6 °C 19,3 km/h (3 Bft)
03.08.2019 15:43 19,7 °C 67 % 1013,9 hPa 0,0 mm 16,4 km/h (3 Bft) W 269 ° 0 min 0,000 mm 3,4 UV-I 390 W/m² 13,4 °C 19,7 °C 22,5 km/h (4 Bft)
03.08.2019 15:44 19,7 °C 66 % 1013,9 hPa 0,0 mm 9,3 km/h (2 Bft) NW 306 ° 0 min 0,000 mm 2,3 UV-I 390 W/m² 13,2 °C 19,7 °C 14,5 km/h (3 Bft)
03.08.2019 15:45 19,7 °C 66 % 1013,9 hPa 0,0 mm 10,4 km/h (2 Bft) W-NW 299 ° 0 min 0,000 mm 2,5 UV-I 352 W/m² 13,2 °C 19,7 °C 17,7 km/h (3 Bft)
03.08.2019 15:46 19,8 °C 66 % 1014,0 hPa 0,0 mm 13,0 km/h (3 Bft) W-NW 293 ° 0 min 0,000 mm 2,3 UV-I 281 W/m² 13,3 °C 19,8 °C 20,9 km/h (4 Bft)
03.08.2019 15:47 19,8 °C 65 % 1014,0 hPa 0,0 mm 13,6 km/h (3 Bft) SW 232 ° 0 min 0,000 mm 2,2 UV-I 294 W/m² 13,0 °C 19,8 °C 20,9 km/h (4 Bft)
03.08.2019 15:48 19,7 °C 67 % 1013,9 hPa 0,0 mm 18,7 km/h (3 Bft) W-NW 292 ° 0 min 0,000 mm 2,2 UV-I 315 W/m² 13,4 °C 19,7 °C 22,5 km/h (4 Bft)
03.08.2019 15:49 19,7 °C 65 % 1014,0 hPa 0,0 mm 17,2 km/h (3 Bft) W 268 ° 0 min 0,000 mm 2,3 UV-I 313 W/m² 12,9 °C 19,7 °C 25,7 km/h (4 Bft)
03.08.2019 15:50 19,6 °C 65 % 1013,9 hPa 0,0 mm 12,2 km/h (2 Bft) W-SW 246 ° 0 min 0,000 mm 2,2 UV-I 308 W/m² 12,8 °C 19,6 °C 19,3 km/h (3 Bft)
03.08.2019 15:51 19,6 °C 67 % 1013,9 hPa 0,0 mm 11,2 km/h (2 Bft) W-SW 258 ° 0 min 0,000 mm 2,1 UV-I 285 W/m² 13,3 °C 19,6 °C 17,7 km/h (3 Bft)
03.08.2019 15:52 19,6 °C 66 % 1013,9 hPa 0,0 mm 12,1 km/h (2 Bft) N-NW 340 ° 0 min 0,000 mm 1,9 UV-I 267 W/m² 13,1 °C 19,6 °C 17,7 km/h (3 Bft)
03.08.2019 15:53 19,6 °C 66 % 1013,9 hPa 0,0 mm 18,2 km/h (3 Bft) W 278 ° 0 min 0,000 mm 2,5 UV-I 336 W/m² 13,1 °C 19,6 °C 30,6 km/h (5 Bft)
03.08.2019 15:54 19,6 °C 66 % 1013,9 hPa 0,0 mm 14,5 km/h (3 Bft) NW 309 ° 0 min 0,000 mm 4,1 UV-I 371 W/m² 13,1 °C 19,6 °C 22,5 km/h (4 Bft)
03.08.2019 15:55 19,6 °C 67 % 1014,0 hPa 0,0 mm 13,4 km/h (3 Bft) W-NW 286 ° 0 min 0,000 mm 2,2 UV-I 299 W/m² 13,3 °C 19,6 °C 24,1 km/h (4 Bft)
03.08.2019 15:56 19,6 °C 66 % 1014,0 hPa 0,0 mm 15,8 km/h (3 Bft) W-SW 250 ° 0 min 0,000 mm 2,2 UV-I 292 W/m² 13,1 °C 19,6 °C 22,5 km/h (4 Bft)
03.08.2019 15:57 19,6 °C 67 % 1014,0 hPa 0,0 mm 15,2 km/h (3 Bft) W-NW 282 ° 0 min 0,000 mm 2,2 UV-I 306 W/m² 13,3 °C 19,6 °C 19,3 km/h (3 Bft)
03.08.2019 15:58 19,6 °C 66 % 1014,0 hPa 0,0 mm 14,6 km/h (3 Bft) W-NW 284 ° 0 min 0,000 mm 2,1 UV-I 248 W/m² 13,1 °C 19,6 °C 25,7 km/h (4 Bft)
03.08.2019 15:59 19,5 °C 66 % 1014,0 hPa 0,0 mm 17,1 km/h (3 Bft) W 267 ° 0 min 0,000 mm 2,4 UV-I 267 W/m² 13,0 °C 19,5 °C 27,4 km/h (4 Bft)
03.08.2019 16:00 19,5 °C 66 % 1014,0 hPa 0,0 mm 15,4 km/h (3 Bft) W 277 ° 0 min 0,000 mm 2,6 UV-I 301 W/m² 13,0 °C 19,5 °C 22,5 km/h (4 Bft)
03.08.2019 16:01 19,5 °C 68 % 1014,0 hPa 0,0 mm 15,0 km/h (3 Bft) W-SW 256 ° 0 min 0,304 mm 2,8 UV-I 301 W/m² 13,4 °C 19,5 °C 22,5 km/h (4 Bft)
03.08.2019 16:02 19,5 °C 66 % 1014,0 hPa 0,0 mm 11,1 km/h (2 Bft) W-NW 287 ° 0 min 0,000 mm 2,4 UV-I 316 W/m² 13,0 °C 19,5 °C 17,7 km/h (3 Bft)
03.08.2019 16:03 19,6 °C 67 % 1014,0 hPa 0,0 mm 12,0 km/h (2 Bft) W-NW 298 ° 0 min 0,000 mm 2,9 UV-I 309 W/m² 13,3 °C 19,6 °C 22,5 km/h (4 Bft)
03.08.2019 16:04 19,6 °C 68 % 1014,0 hPa 0,0 mm 7,7 km/h (2 Bft) NW 317 ° 0 min 0,000 mm 3,0 UV-I 366 W/m² 13,5 °C 19,6 °C 12,9 km/h (3 Bft)
03.08.2019 16:05 19,7 °C 68 % 1014,0 hPa 0,0 mm 5,2 km/h (1 Bft) NW 322 ° 0 min 0,000 mm 3,1 UV-I 436 W/m² 13,6 °C 19,7 °C 8,0 km/h (2 Bft)
03.08.2019 16:06 19,7 °C 68 % 1014,0 hPa 0,0 mm 9,5 km/h (2 Bft) W-NW 294 ° 0 min 0,000 mm 3,1 UV-I 534 W/m² 13,6 °C 19,7 °C 16,1 km/h (3 Bft)
03.08.2019 16:07 19,8 °C 69 % 1014,0 hPa 0,0 mm 15,3 km/h (3 Bft) W-NW 285 ° 0 min 0,000 mm 3,0 UV-I 534 W/m² 13,9 °C 19,8 °C 17,7 km/h (3 Bft)
03.08.2019 16:08 19,8 °C 68 % 1014,0 hPa 0,0 mm 10,3 km/h (2 Bft) W 263 ° 0 min 0,000 mm 3,2 UV-I 404 W/m² 13,7 °C 19,8 °C 20,9 km/h (4 Bft)
03.08.2019 16:09 19,8 °C 67 % 1014,0 hPa 0,0 mm 22,2 km/h (4 Bft) W 265 ° 0 min 0,000 mm 3,2 UV-I 466 W/m² 13,5 °C 19,8 °C 30,6 km/h (5 Bft)
03.08.2019 16:10 19,8 °C 67 % 1014,0 hPa 0,0 mm 17,9 km/h (3 Bft) W 281 ° 0 min 0,000 mm 2,6 UV-I 260 W/m² 13,5 °C 19,8 °C 25,7 km/h (4 Bft)
03.08.2019 16:11 19,8 °C 67 % 1014,0 hPa 0,0 mm 19,9 km/h (4 Bft) W-NW 300 ° 0 min 0,000 mm 2,5 UV-I 288 W/m² 13,5 °C 19,8 °C 27,4 km/h (4 Bft)
03.08.2019 16:12 19,7 °C 67 % 1014,1 hPa 0,0 mm 14,0 km/h (3 Bft) W 266 ° 0 min 0,000 mm 2,4 UV-I 267 W/m² 13,4 °C 19,7 °C 19,3 km/h (3 Bft)
03.08.2019 16:13 19,6 °C 66 % 1014,0 hPa 0,0 mm 15,6 km/h (3 Bft) W-SW 246 ° 0 min 0,000 mm 2,4 UV-I 276 W/m² 13,1 °C 19,6 °C 22,5 km/h (4 Bft)
03.08.2019 16:14 19,6 °C 68 % 1014,0 hPa 0,0 mm 13,9 km/h (3 Bft) W 269 ° 0 min 0,000 mm 2,3 UV-I 264 W/m² 13,5 °C 19,6 °C 20,9 km/h (4 Bft)
03.08.2019 16:15 19,4 °C 67 % 1014,0 hPa 0,0 mm 12,7 km/h (3 Bft) W-NW 300 ° 0 min 0,000 mm 2,2 UV-I 260 W/m² 13,1 °C 19,4 °C 19,3 km/h (3 Bft)
03.08.2019 16:16 19,4 °C 68 % 1014,0 hPa 0,0 mm 16,2 km/h (3 Bft) W 273 ° 0 min 0,000 mm 2,3 UV-I 278 W/m² 13,3 °C 19,4 °C 20,9 km/h (4 Bft)
03.08.2019 16:17 19,4 °C 67 % 1014,0 hPa 0,0 mm 12,4 km/h (3 Bft) W-NW 287 ° 0 min 0,000 mm 2,3 UV-I 292 W/m² 13,1 °C 19,4 °C 24,1 km/h (4 Bft)
03.08.2019 16:18 19,4 °C 67 % 1014,0 hPa 0,0 mm 7,9 km/h (2 Bft) W-SW 245 ° 0 min 0,000 mm 2,3 UV-I 290 W/m² 13,1 °C 19,4 °C 14,5 km/h (3 Bft)
03.08.2019 16:19 19,4 °C 69 % 1014,0 hPa 0,0 mm 9,5 km/h (2 Bft) W 265 ° 0 min 0,000 mm 2,2 UV-I 283 W/m² 13,6 °C 19,4 °C 17,7 km/h (3 Bft)
03.08.2019 16:20 19,4 °C 68 % 1014,0 hPa 0,0 mm 13,9 km/h (3 Bft) W-NW 298 ° 0 min 0,000 mm 2,2 UV-I 267 W/m² 13,3 °C 19,4 °C 22,5 km/h (4 Bft)
03.08.2019 16:21 19,3 °C 67 % 1014,0 hPa 0,0 mm 9,5 km/h (2 Bft) W 268 ° 0 min 0,000 mm 2,0 UV-I 234 W/m² 13,0 °C 19,3 °C 14,5 km/h (3 Bft)
03.08.2019 16:22 19,4 °C 68 % 1013,9 hPa 0,0 mm 6,1 km/h (2 Bft) W 269 ° 0 min 0,000 mm 1,8 UV-I 204 W/m² 13,3 °C 19,4 °C 12,9 km/h (3 Bft)
03.08.2019 16:23 19,3 °C 69 % 1013,9 hPa 0,0 mm 6,9 km/h (2 Bft) W-NW 283 ° 0 min 0,000 mm 1,6 UV-I 169 W/m² 13,5 °C 19,3 °C 14,5 km/h (3 Bft)
03.08.2019 16:24 19,3 °C 69 % 1014,0 hPa 0,0 mm 7,6 km/h (2 Bft) NW 310 ° 0 min 0,000 mm 1,4 UV-I 137 W/m² 13,5 °C 19,3 °C 14,5 km/h (3 Bft)
03.08.2019 16:25 19,3 °C 69 % 1013,9 hPa 0,0 mm 4,0 km/h (1 Bft) W-NW 285 ° 0 min 0,000 mm 1,3 UV-I 113 W/m² 13,5 °C 19,3 °C 8,0 km/h (2 Bft)
03.08.2019 16:26 19,3 °C 69 % 1013,9 hPa 0,0 mm 2,1 km/h (1 Bft) W-NW 285 ° 0 min 0,000 mm 1,3 UV-I 95 W/m² 13,5 °C 19,3 °C 6,4 km/h (2 Bft)
03.08.2019 16:27 19,3 °C 69 % 1014,0 hPa 0,0 mm 9,5 km/h (2 Bft) W 276 ° 0 min 0,000 mm 1,1 UV-I 88 W/m² 13,5 °C 19,3 °C 12,9 km/h (3 Bft)
03.08.2019 16:28 19,2 °C 69 % 1014,0 hPa 0,0 mm 12,0 km/h (2 Bft) NW 324 ° 0 min 0,000 mm 1,2 UV-I 97 W/m² 13,4 °C 19,2 °C 19,3 km/h (3 Bft)
03.08.2019 16:29 19,2 °C 68 % 1013,9 hPa 0,0 mm 12,7 km/h (3 Bft) NW 307 ° 0 min 0,000 mm 1,3 UV-I 114 W/m² 13,1 °C 19,2 °C 20,9 km/h (4 Bft)
03.08.2019 16:30 19,1 °C 68 % 1013,9 hPa 0,0 mm 10,3 km/h (2 Bft) NW 317 ° 0 min 0,000 mm 1,6 UV-I 139 W/m² 13,1 °C 19,1 °C 14,5 km/h (3 Bft)
03.08.2019 16:31 19,1 °C 70 % 1013,9 hPa 0,0 mm 6,6 km/h (2 Bft) NW 311 ° 0 min 0,000 mm 1,7 UV-I 155 W/m² 13,5 °C 19,1 °C 12,9 km/h (3 Bft)
03.08.2019 16:32 19,0 °C 68 % 1013,9 hPa 0,0 mm 4,3 km/h (1 Bft) NW 326 ° 0 min 0,000 mm 1,8 UV-I 172 W/m² 13,0 °C 19,0 °C 9,7 km/h (2 Bft)
03.08.2019 16:33 19,1 °C 69 % 1013,9 hPa 0,0 mm 6,6 km/h (2 Bft) W-NW 287 ° 0 min 0,000 mm 1,9 UV-I 197 W/m² 13,3 °C 19,1 °C 16,1 km/h (3 Bft)
03.08.2019 16:34 19,1 °C 69 % 1013,9 hPa 0,0 mm 4,4 km/h (1 Bft) W 266 ° 0 min 0,000 mm 1,7 UV-I 186 W/m² 13,3 °C 19,1 °C 6,4 km/h (2 Bft)
03.08.2019 16:35 19,2 °C 71 % 1013,9 hPa 0,0 mm 9,9 km/h (2 Bft) W 279 ° 0 min 0,000 mm 1,5 UV-I 174 W/m² 13,8 °C 19,2 °C 16,1 km/h (3 Bft)
03.08.2019 16:36 19,2 °C 69 % 1014,0 hPa 0,0 mm 13,0 km/h (3 Bft) NW 324 ° 0 min 0,000 mm 1,4 UV-I 162 W/m² 13,4 °C 19,2 °C 20,9 km/h (4 Bft)
03.08.2019 16:37 19,3 °C 69 % 1014,0 hPa 0,0 mm 8,4 km/h (2 Bft) W-NW 286 ° 0 min 0,000 mm 1,3 UV-I 155 W/m² 13,5 °C 19,3 °C 16,1 km/h (3 Bft)
03.08.2019 16:38 19,2 °C 69 % 1014,0 hPa 0,0 mm 9,8 km/h (2 Bft) NW 323 ° 0 min 0,000 mm 1,3 UV-I 153 W/m² 13,4 °C 19,2 °C 14,5 km/h (3 Bft)
03.08.2019 16:39 19,3 °C 70 % 1014,0 hPa 0,0 mm 11,1 km/h (2 Bft) NW 318 ° 0 min 0,000 mm 1,2 UV-I 141 W/m² 13,7 °C 19,3 °C 17,7 km/h (3 Bft)
03.08.2019 16:40 19,2 °C 69 % 1014,1 hPa 0,0 mm 8,9 km/h (2 Bft) W 271 ° 0 min 0,000 mm 1,3 UV-I 149 W/m² 13,4 °C 19,2 °C 14,5 km/h (3 Bft)
03.08.2019 16:41 19,2 °C 69 % 1014,1 hPa 0,0 mm 10,5 km/h (2 Bft) W-NW 293 ° 0 min 0,000 mm 1,4 UV-I 163 W/m² 13,4 °C 19,2 °C 16,1 km/h (3 Bft)
03.08.2019 16:42 19,2 °C 69 % 1014,1 hPa 0,0 mm 10,8 km/h (2 Bft) W-NW 289 ° 0 min 0,000 mm 1,4 UV-I 172 W/m² 13,4 °C 19,2 °C 12,9 km/h (3 Bft)
03.08.2019 16:43 19,1 °C 69 % 1014,1 hPa 0,0 mm 7,5 km/h (2 Bft) W 279 ° 0 min 0,000 mm 1,5 UV-I 179 W/m² 13,3 °C 19,1 °C 12,9 km/h (3 Bft)
03.08.2019 16:44 19,1 °C 69 % 1014,1 hPa 0,0 mm 6,0 km/h (2 Bft) NW 325 ° 0 min 0,000 mm 1,5 UV-I 199 W/m² 13,3 °C 19,1 °C 12,9 km/h (3 Bft)
03.08.2019 16:45 19,1 °C 69 % 1014,1 hPa 0,0 mm 7,6 km/h (2 Bft) W 281 ° 0 min 0,000 mm 1,6 UV-I 209 W/m² 13,3 °C 19,1 °C 11,3 km/h (2 Bft)
03.08.2019 16:46 19,1 °C 70 % 1014,1 hPa 0,0 mm 7,1 km/h (2 Bft) W-NW 294 ° 0 min 0,000 mm 1,7 UV-I 216 W/m² 13,5 °C 19,1 °C 12,9 km/h (3 Bft)
03.08.2019 16:47 19,1 °C 70 % 1014,1 hPa 0,0 mm 15,0 km/h (3 Bft) W 266 ° 0 min 0,000 mm 1,8 UV-I 241 W/m² 13,5 °C 19,1 °C 20,9 km/h (4 Bft)
03.08.2019 16:48 19,1 °C 69 % 1014,1 hPa 0,0 mm 14,6 km/h (3 Bft) W-NW 297 ° 0 min 0,000 mm 1,9 UV-I 257 W/m² 13,3 °C 19,1 °C 17,7 km/h (3 Bft)
03.08.2019 16:49 19,1 °C 69 % 1014,1 hPa 0,0 mm 7,4 km/h (2 Bft) W-NW 298 ° 0 min 0,000 mm 2,0 UV-I 265 W/m² 13,3 °C 19,1 °C 11,3 km/h (2 Bft)
03.08.2019 16:50 19,1 °C 69 % 1014,1 hPa 0,0 mm 8,0 km/h (2 Bft) W-NW 285 ° 0 min 0,000 mm 2,1 UV-I 274 W/m² 13,3 °C 19,1 °C 17,7 km/h (3 Bft)
03.08.2019 16:51 19,2 °C 70 % 1014,1 hPa 0,0 mm 15,9 km/h (3 Bft) W 267 ° 0 min 0,000 mm 2,1 UV-I 265 W/m² 13,6 °C 19,2 °C 19,3 km/h (3 Bft)
03.08.2019 16:52 19,2 °C 68 % 1014,1 hPa 0,0 mm 9,9 km/h (2 Bft) W-NW 284 ° 0 min 0,000 mm 2,0 UV-I 243 W/m² 13,1 °C 19,2 °C 14,5 km/h (3 Bft)
03.08.2019 16:53 19,2 °C 69 % 1014,1 hPa 0,0 mm 13,5 km/h (3 Bft) W-NW 300 ° 0 min 0,000 mm 1,8 UV-I 216 W/m² 13,4 °C 19,2 °C 17,7 km/h (3 Bft)
03.08.2019 16:54 19,2 °C 70 % 1014,2 hPa 0,0 mm 7,3 km/h (2 Bft) W 265 ° 0 min 0,000 mm 1,6 UV-I 185 W/m² 13,6 °C 19,2 °C 12,9 km/h (3 Bft)
03.08.2019 16:55 19,2 °C 68 % 1014,2 hPa 0,0 mm 8,7 km/h (2 Bft) NW 317 ° 0 min 0,000 mm 1,5 UV-I 156 W/m² 13,1 °C 19,2 °C 12,9 km/h (3 Bft)
03.08.2019 16:56 19,1 °C 68 % 1014,1 hPa 0,0 mm 10,3 km/h (2 Bft) W 274 ° 0 min 0,000 mm 1,5 UV-I 179 W/m² 13,1 °C 19,1 °C 17,7 km/h (3 Bft)
03.08.2019 16:57 19,1 °C 69 % 1014,1 hPa 0,0 mm 9,1 km/h (2 Bft) W 281 ° 0 min 0,000 mm 1,8 UV-I 213 W/m² 13,3 °C 19,1 °C 12,9 km/h (3 Bft)
03.08.2019 16:58 19,0 °C 69 % 1014,1 hPa 0,0 mm 11,2 km/h (2 Bft) W-NW 292 ° 0 min 0,000 mm 2,0 UV-I 237 W/m² 13,2 °C 19,0 °C 14,5 km/h (3 Bft)
03.08.2019 16:59 19,0 °C 68 % 1014,2 hPa 0,0 mm 6,8 km/h (2 Bft) NW 306 ° 0 min 0,000 mm 2,0 UV-I 237 W/m² 13,0 °C 19,0 °C 12,9 km/h (3 Bft)
03.08.2019 17:00 19,0 °C 70 % 1014,1 hPa 0,0 mm 6,0 km/h (2 Bft) W-NW 283 ° 0 min 0,178 mm 2,2 UV-I 255 W/m² 13,4 °C 19,0 °C 11,3 km/h (2 Bft)
03.08.2019 17:01 19,1 °C 69 % 1014,1 hPa 0,0 mm 5,6 km/h (1 Bft) NW 305 ° 0 min 0,000 mm 2,2 UV-I 262 W/m² 13,3 °C 19,1 °C 9,7 km/h (2 Bft)
03.08.2019 17:02 19,1 °C 69 % 1014,2 hPa 0,0 mm 7,3 km/h (2 Bft) W-NW 302 ° 0 min 0,000 mm 2,2 UV-I 274 W/m² 13,3 °C 19,1 °C 12,9 km/h (3 Bft)
03.08.2019 17:03 19,1 °C 70 % 1014,1 hPa 0,0 mm 7,4 km/h (2 Bft) W 265 ° 0 min 0,000 mm 2,2 UV-I 281 W/m² 13,5 °C 19,1 °C 12,9 km/h (3 Bft)
03.08.2019 17:04 19,2 °C 70 % 1014,2 hPa 0,0 mm 15,4 km/h (3 Bft) W-NW 286 ° 0 min 0,000 mm 2,2 UV-I 269 W/m² 13,6 °C 19,2 °C 22,5 km/h (4 Bft)
03.08.2019 17:05 19,2 °C 69 % 1014,2 hPa 0,0 mm 8,3 km/h (2 Bft) W 274 ° 0 min 0,000 mm 2,0 UV-I 243 W/m² 13,4 °C 19,2 °C 17,7 km/h (3 Bft)
03.08.2019 17:06 19,3 °C 68 % 1014,2 hPa 0,0 mm 11,3 km/h (2 Bft) W-NW 294 ° 0 min 0,000 mm 1,9 UV-I 227 W/m² 13,2 °C 19,3 °C 14,5 km/h (3 Bft)
03.08.2019 17:07 19,3 °C 69 % 1014,2 hPa 0,0 mm 9,4 km/h (2 Bft) N-NW 327 ° 0 min 0,000 mm 1,7 UV-I 209 W/m² 13,5 °C 19,3 °C 16,1 km/h (3 Bft)
03.08.2019 17:08 19,3 °C 69 % 1014,2 hPa 0,0 mm 10,1 km/h (2 Bft) NW 307 ° 0 min 0,000 mm 1,6 UV-I 186 W/m² 13,5 °C 19,3 °C 19,3 km/h (3 Bft)
03.08.2019 17:09 19,3 °C 69 % 1014,2 hPa 0,0 mm 5,0 km/h (1 Bft) W-NW 295 ° 0 min 0,000 mm 1,4 UV-I 195 W/m² 13,5 °C 19,3 °C 9,7 km/h (2 Bft)
03.08.2019 17:10 19,3 °C 69 % 1014,1 hPa 0,0 mm 5,7 km/h (1 Bft) W-NW 301 ° 0 min 0,000 mm 1,5 UV-I 206 W/m² 13,5 °C 19,3 °C 8,0 km/h (2 Bft)
03.08.2019 17:11 19,3 °C 68 % 1014,3 hPa 0,0 mm 12,0 km/h (2 Bft) W-NW 283 ° 0 min 0,000 mm 1,6 UV-I 214 W/m² 13,2 °C 19,3 °C 19,3 km/h (3 Bft)
03.08.2019 17:12 19,3 °C 68 % 1014,1 hPa 0,0 mm 10,3 km/h (2 Bft) W 266 ° 0 min 0,000 mm 1,6 UV-I 218 W/m² 13,2 °C 19,3 °C 16,1 km/h (3 Bft)
03.08.2019 17:13 19,3 °C 69 % 1014,2 hPa 0,0 mm 8,4 km/h (2 Bft) NW 306 ° 0 min 0,000 mm 1,7 UV-I 221 W/m² 13,5 °C 19,3 °C 12,9 km/h (3 Bft)
03.08.2019 17:14 19,3 °C 69 % 1014,2 hPa 0,0 mm 6,9 km/h (2 Bft) W 281 ° 0 min 0,000 mm 1,7 UV-I 206 W/m² 13,5 °C 19,3 °C 11,3 km/h (2 Bft)
03.08.2019 17:15 19,4 °C 70 % 1014,2 hPa 0,0 mm 12,0 km/h (2 Bft) W 270 ° 0 min 0,000 mm 1,5 UV-I 185 W/m² 13,8 °C 19,4 °C 17,7 km/h (3 Bft)
03.08.2019 17:16 19,4 °C 69 % 1014,2 hPa 0,0 mm 6,8 km/h (2 Bft) W-NW 285 ° 0 min 0,000 mm 1,5 UV-I 178 W/m² 13,6 °C 19,4 °C 17,7 km/h (3 Bft)
03.08.2019 17:17 19,3 °C 68 % 1014,2 hPa 0,0 mm 7,5 km/h (2 Bft) W-NW 293 ° 0 min 0,000 mm 1,5 UV-I 183 W/m² 13,2 °C 19,3 °C 11,3 km/h (2 Bft)
03.08.2019 17:18 19,3 °C 69 % 1014,2 hPa 0,0 mm 5,6 km/h (1 Bft) W-NW 294 ° 0 min 0,000 mm 1,5 UV-I 183 W/m² 13,5 °C 19,3 °C 9,7 km/h (2 Bft)
03.08.2019 17:19 19,4 °C 70 % 1014,2 hPa 0,0 mm 7,4 km/h (2 Bft) W-SW 239 ° 0 min 0,000 mm 1,4 UV-I 174 W/m² 13,8 °C 19,4 °C 16,1 km/h (3 Bft)
03.08.2019 17:20 19,3 °C 71 % 1014,2 hPa 0,0 mm 10,9 km/h (2 Bft) W-SW 247 ° 0 min 0,000 mm 1,4 UV-I 156 W/m² 13,9 °C 19,3 °C 19,3 km/h (3 Bft)
03.08.2019 17:21 19,3 °C 69 % 1014,2 hPa 0,0 mm 8,9 km/h (2 Bft) W-SW 257 ° 0 min 0,000 mm 1,2 UV-I 146 W/m² 13,5 °C 19,3 °C 12,9 km/h (3 Bft)
03.08.2019 17:22 19,2 °C 70 % 1014,3 hPa 0,0 mm 9,1 km/h (2 Bft) W-NW 288 ° 0 min 0,000 mm 1,2 UV-I 139 W/m² 13,6 °C 19,2 °C 16,1 km/h (3 Bft)
03.08.2019 17:23 19,1 °C 69 % 1014,3 hPa 0,0 mm 5,6 km/h (1 Bft) W-NW 282 ° 0 min 0,000 mm 1,1 UV-I 132 W/m² 13,3 °C 19,1 °C 11,3 km/h (2 Bft)
03.08.2019 17:24 19,1 °C 70 % 1014,2 hPa 0,0 mm 7,2 km/h (2 Bft) W-SW 249 ° 0 min 0,000 mm 1,0 UV-I 125 W/m² 13,5 °C 19,1 °C 14,5 km/h (3 Bft)
03.08.2019 17:25 19,0 °C 70 % 1014,3 hPa 0,0 mm 9,0 km/h (2 Bft) W-NW 292 ° 0 min 0,000 mm 1,0 UV-I 123 W/m² 13,4 °C 19,0 °C 19,3 km/h (3 Bft)
03.08.2019 17:26 18,9 °C 70 % 1014,2 hPa 0,0 mm 7,8 km/h (2 Bft) NW 306 ° 0 min 0,000 mm 1,0 UV-I 130 W/m² 13,3 °C 18,9 °C 12,9 km/h (3 Bft)
03.08.2019 17:27 18,8 °C 70 % 1014,2 hPa 0,0 mm 4,4 km/h (1 Bft) W 276 ° 0 min 0,000 mm 1,0 UV-I 146 W/m² 13,2 °C 18,8 °C 9,7 km/h (2 Bft)
03.08.2019 17:28 18,8 °C 71 % 1014,2 hPa 0,0 mm 6,2 km/h (2 Bft) W 278 ° 0 min 0,000 mm 1,1 UV-I 144 W/m² 13,4 °C 18,8 °C 11,3 km/h (2 Bft)
03.08.2019 17:29 18,8 °C 71 % 1014,1 hPa 0,0 mm 8,4 km/h (2 Bft) W-SW 241 ° 0 min 0,000 mm 1,1 UV-I 156 W/m² 13,4 °C 18,8 °C 14,5 km/h (3 Bft)
03.08.2019 17:30 18,8 °C 71 % 1014,1 hPa 0,0 mm 9,8 km/h (2 Bft) W 279 ° 0 min 0,000 mm 1,2 UV-I 169 W/m² 13,4 °C 18,8 °C 14,5 km/h (3 Bft)
03.08.2019 17:31 18,8 °C 70 % 1014,1 hPa 0,0 mm 8,9 km/h (2 Bft) W-SW 256 ° 0 min 0,000 mm 1,3 UV-I 193 W/m² 13,2 °C 18,8 °C 12,9 km/h (3 Bft)
03.08.2019 17:32 18,8 °C 72 % 1014,1 hPa 0,0 mm 8,9 km/h (2 Bft) W 281 ° 0 min 0,000 mm 1,4 UV-I 192 W/m² 13,6 °C 18,8 °C 14,5 km/h (3 Bft)
03.08.2019 17:33 18,8 °C 72 % 1014,1 hPa 0,0 mm 3,5 km/h (1 Bft) W-SW 246 ° 0 min 0,000 mm 1,5 UV-I 183 W/m² 13,6 °C 18,8 °C 4,8 km/h (1 Bft)
03.08.2019 17:34 18,8 °C 72 % 1014,1 hPa 0,0 mm 8,9 km/h (2 Bft) W-SW 242 ° 0 min 0,000 mm 1,5 UV-I 163 W/m² 13,6 °C 18,8 °C 14,5 km/h (3 Bft)
03.08.2019 17:35 18,8 °C 71 % 1014,1 hPa 0,0 mm 4,9 km/h (1 Bft) SW 234 ° 0 min 0,000 mm 1,4 UV-I 142 W/m² 13,4 °C 18,8 °C 9,7 km/h (2 Bft)
03.08.2019 17:36 18,8 °C 72 % 1014,1 hPa 0,0 mm 9,0 km/h (2 Bft) W-SW 258 ° 0 min 0,000 mm 1,3 UV-I 130 W/m² 13,6 °C 18,8 °C 14,5 km/h (3 Bft)
03.08.2019 17:37 18,8 °C 72 % 1014,1 hPa 0,0 mm 4,4 km/h (1 Bft) S 181 ° 0 min 0,000 mm 1,2 UV-I 121 W/m² 13,6 °C 18,8 °C 8,0 km/h (2 Bft)
03.08.2019 17:38 18,8 °C 71 % 1014,1 hPa 0,0 mm 2,4 km/h (1 Bft) SW 224 ° 0 min 0,000 mm 1,1 UV-I 116 W/m² 13,4 °C 18,8 °C 4,8 km/h (1 Bft)
03.08.2019 17:39 18,7 °C 72 % 1014,1 hPa 0,0 mm 5,1 km/h (1 Bft) W-NW 284 ° 0 min 0,000 mm 1,0 UV-I 109 W/m² 13,5 °C 18,7 °C 6,4 km/h (2 Bft)
03.08.2019 17:40 18,6 °C 73 % 1014,1 hPa 0,0 mm 8,2 km/h (2 Bft) W 265 ° 0 min 0,000 mm 1,0 UV-I 109 W/m² 13,7 °C 18,6 °C 11,3 km/h (2 Bft)
03.08.2019 17:41 18,6 °C 71 % 1014,1 hPa 0,0 mm 7,1 km/h (2 Bft) W 263 ° 0 min 0,000 mm 1,0 UV-I 113 W/m² 13,2 °C 18,6 °C 12,9 km/h (3 Bft)
03.08.2019 17:42 18,5 °C 71 % 1014,1 hPa 0,0 mm 8,0 km/h (2 Bft) W 271 ° 0 min 0,000 mm 0,9 UV-I 113 W/m² 13,1 °C 18,5 °C 9,7 km/h (2 Bft)
03.08.2019 17:43 18,4 °C 71 % 1014,0 hPa 0,0 mm 2,2 km/h (1 Bft) S-SW 213 ° 0 min 0,000 mm 0,9 UV-I 98 W/m² 13,0 °C 18,4 °C 4,8 km/h (1 Bft)
03.08.2019 17:44 18,3 °C 72 % 1014,1 hPa 0,0 mm 5,5 km/h (1 Bft) W-SW 246 ° 0 min 0,000 mm 0,7 UV-I 88 W/m² 13,2 °C 18,3 °C 12,9 km/h (3 Bft)
03.08.2019 17:45 18,3 °C 72 % 1014,1 hPa 0,0 mm 3,8 km/h (1 Bft) W-NW 284 ° 0 min 0,000 mm 0,6 UV-I 79 W/m² 13,2 °C 18,3 °C 8,0 km/h (2 Bft)
03.08.2019 17:46 18,2 °C 73 % 1014,1 hPa 0,0 mm 5,6 km/h (1 Bft) S 170 ° 0 min 0,000 mm 0,6 UV-I 76 W/m² 13,3 °C 18,2 °C 11,3 km/h (2 Bft)
03.08.2019 17:47 18,2 °C 73 % 1014,1 hPa 0,0 mm 3,3 km/h (1 Bft) S-SW 211 ° 0 min 0,000 mm 0,5 UV-I 72 W/m² 13,3 °C 18,2 °C 8,0 km/h (2 Bft)
03.08.2019 17:48 18,1 °C 73 % 1014,2 hPa 0,0 mm 3,0 km/h (1 Bft) W-NW 295 ° 0 min 0,000 mm 0,5 UV-I 65 W/m² 13,2 °C 18,1 °C 6,4 km/h (2 Bft)
03.08.2019 17:49 18,0 °C 72 % 1014,2 hPa 0,0 mm 5,8 km/h (2 Bft) W-SW 250 ° 0 min 0,000 mm 0,0 UV-I 51 W/m² 12,9 °C 18,0 °C 9,7 km/h (2 Bft)
03.08.2019 17:50 17,9 °C 73 % 1014,2 hPa 0,0 mm 5,6 km/h (1 Bft) W 265 ° 0 min 0,000 mm 0,0 UV-I 49 W/m² 13,0 °C 17,9 °C 9,7 km/h (2 Bft)
03.08.2019 17:51 17,9 °C 73 % 1014,2 hPa 0,0 mm 6,2 km/h (2 Bft) W 272 ° 0 min 0,000 mm 0,0 UV-I 51 W/m² 13,0 °C 17,9 °C 9,7 km/h (2 Bft)
03.08.2019 17:52 17,8 °C 73 % 1014,3 hPa 0,0 mm 8,1 km/h (2 Bft) N-NW 327 ° 0 min 0,000 mm 0,0 UV-I 56 W/m² 12,9 °C 17,8 °C 11,3 km/h (2 Bft)
03.08.2019 17:53 17,8 °C 74 % 1014,4 hPa 0,0 mm 7,6 km/h (2 Bft) N-NW 330 ° 0 min 0,000 mm 0,0 UV-I 54 W/m² 13,1 °C 17,8 °C 11,3 km/h (2 Bft)
03.08.2019 17:54 17,8 °C 73 % 1014,5 hPa 0,0 mm 7,8 km/h (2 Bft) N-NW 334 ° 0 min 0,000 mm 0,0 UV-I 54 W/m² 12,9 °C 17,8 °C 16,1 km/h (3 Bft)
03.08.2019 17:55 17,7 °C 73 % 1014,5 hPa 0,0 mm 8,9 km/h (2 Bft) NO 36 ° 0 min 0,000 mm 0,0 UV-I 44 W/m² 12,8 °C 17,7 °C 14,5 km/h (3 Bft)
03.08.2019 17:56 17,6 °C 73 % 1014,5 hPa 0,0 mm 13,3 km/h (3 Bft) NW 326 ° 0 min 0,000 mm 0,0 UV-I 37 W/m² 12,7 °C 17,6 °C 17,7 km/h (3 Bft)
03.08.2019 17:57 17,4 °C 74 % 1014,5 hPa 0,0 mm 10,5 km/h (2 Bft) N-NO 33 ° 0 min 0,000 mm 0,0 UV-I 32 W/m² 12,7 °C 17,4 °C 12,9 km/h (3 Bft)
03.08.2019 17:58 17,3 °C 75 % 1014,5 hPa 0,0 mm 9,5 km/h (2 Bft) N-NW 342 ° 0 min 0,000 mm 0,0 UV-I 28 W/m² 12,8 °C 17,3 °C 14,5 km/h (3 Bft)
03.08.2019 17:59 17,1 °C 76 % 1014,5 hPa 0,0 mm 6,4 km/h (2 Bft) N-NO 27 ° 0 min 0,000 mm 0,0 UV-I 25 W/m² 12,8 °C 17,1 °C 9,7 km/h (2 Bft)
03.08.2019 18:00 16,8 °C 77 % 1014,5 hPa 0,0 mm 6,0 km/h (2 Bft) N-NW 348 ° 0 min 0,000 mm 0,0 UV-I 23 W/m² 12,7 °C 16,8 °C 8,0 km/h (2 Bft)
03.08.2019 18:01 16,6 °C 78 % 1014,5 hPa 0,0 mm 7,2 km/h (2 Bft) N 351 ° 0 min 0,102 mm 0,0 UV-I 25 W/m² 12,7 °C 16,6 °C 12,9 km/h (3 Bft)
03.08.2019 18:02 16,3 °C 78 % 1014,5 hPa 0,0 mm 3,4 km/h (1 Bft) N-NW 343 ° 0 min 0,000 mm 0,0 UV-I 28 W/m² 12,5 °C 16,3 °C 8,0 km/h (2 Bft)
03.08.2019 18:03 16,2 °C 78 % 1014,5 hPa 0,2 mm 0,5 km/h (0 Bft) N-NW 344 ° 0 min 0,000 mm 0,0 UV-I 32 W/m² 12,4 °C 16,2 °C 3,2 km/h (1 Bft)
03.08.2019 18:04 16,0 °C 79 % 1014,5 hPa 0,0 mm 0,8 km/h (0 Bft) N-NW 344 ° 0 min 0,000 mm 0,0 UV-I 39 W/m² 12,4 °C 16,0 °C 1,6 km/h (1 Bft)
03.08.2019 18:05 15,8 °C 80 % 1014,5 hPa 0,0 mm 0,3 km/h (0 Bft) N-NW 344 ° 0 min 0,000 mm 0,0 UV-I 53 W/m² 12,4 °C 15,8 °C 1,6 km/h (1 Bft)
03.08.2019 18:06 15,6 °C 82 % 1014,5 hPa 0,2 mm 0,7 km/h (0 Bft) N-NW 344 ° 0 min 0,000 mm 0,0 UV-I 81 W/m² 12,5 °C 15,6 °C 3,2 km/h (1 Bft)
03.08.2019 18:07 15,3 °C 83 % 1014,5 hPa 0,0 mm 0,1 km/h (0 Bft) N-NW 344 ° 0 min 0,000 mm 0,5 UV-I 88 W/m² 12,4 °C 15,3 °C 1,6 km/h (1 Bft)
03.08.2019 18:08 15,2 °C 84 % 1014,5 hPa 0,0 mm 2,7 km/h (1 Bft) N-NW 344 ° 0 min 0,000 mm 0,5 UV-I 90 W/m² 12,5 °C 15,2 °C 4,8 km/h (1 Bft)
03.08.2019 18:09 15,0 °C 85 % 1014,5 hPa 0,0 mm 2,3 km/h (1 Bft) N-NW 344 ° 0 min 0,000 mm 0,6 UV-I 93 W/m² 12,5 °C 15,0 °C 3,2 km/h (1 Bft)
03.08.2019 18:10 14,9 °C 87 % 1014,5 hPa 0,0 mm 3,2 km/h (1 Bft) N-NW 344 ° 0 min 0,000 mm 0,6 UV-I 98 W/m² 12,8 °C 14,9 °C 4,8 km/h (1 Bft)
03.08.2019 18:11 14,8 °C 88 % 1014,5 hPa 0,0 mm 0,4 km/h (0 Bft) N-NW 344 ° 0 min 0,000 mm 0,6 UV-I 105 W/m² 12,8 °C 14,8 °C 1,6 km/h (1 Bft)
03.08.2019 18:12 14,7 °C 88 % 1014,5 hPa 0,0 mm 0,0 km/h (0 Bft) N-NW 344 ° 0 min 0,000 mm 0,6 UV-I 113 W/m² 12,7 °C 14,7 °C 0,0 km/h (0 Bft)
03.08.2019 18:13 14,6 °C 89 % 1014,5 hPa 0,0 mm 0,1 km/h (0 Bft) N-NO 15 ° 0 min 0,000 mm 0,7 UV-I 116 W/m² 12,8 °C 14,6 °C 1,6 km/h (1 Bft)
03.08.2019 18:14 14,6 °C 89 % 1014,5 hPa 0,0 mm 0,3 km/h (0 Bft) N-NO 15 ° 0 min 0,000 mm 0,7 UV-I 125 W/m² 12,8 °C 14,6 °C 1,6 km/h (1 Bft)
03.08.2019 18:15 14,6 °C 89 % 1014,5 hPa 0,0 mm 0,0 km/h (0 Bft) N-NO 30 ° 0 min 0,000 mm 0,7 UV-I 135 W/m² 12,8 °C 14,6 °C 0,0 km/h (0 Bft)
03.08.2019 18:16 14,6 °C 90 % 1014,5 hPa 0,0 mm 0,0 km/h (0 Bft) N-NO 30 ° 0 min 0,000 mm 0,8 UV-I 153 W/m² 13,0 °C 14,6 °C 0,0 km/h (0 Bft)
03.08.2019 18:17 14,7 °C 90 % 1014,5 hPa 0,0 mm 0,0 km/h (0 Bft) N-NO 30 ° 0 min 0,000 mm 0,9 UV-I 165 W/m² 13,1 °C 14,7 °C 0,0 km/h (0 Bft)
03.08.2019 18:18 14,7 °C 90 % 1014,5 hPa 0,0 mm 0,0 km/h (0 Bft) N-NO 30 ° 0 min 0,000 mm 1,0 UV-I 165 W/m² 13,1 °C 14,7 °C 0,0 km/h (0 Bft)
03.08.2019 18:19 14,8 °C 91 % 1014,5 hPa 0,0 mm 0,0 km/h (0 Bft) N-NO 30 ° 0 min 0,000 mm 1,0 UV-I 155 W/m² 13,3 °C 14,8 °C 0,0 km/h (0 Bft)
03.08.2019 18:20 14,8 °C 91 % 1014,5 hPa 0,0 mm 0,0 km/h (0 Bft) N-NO 30 ° 0 min 0,000 mm 1,1 UV-I 144 W/m² 13,3 °C 14,8 °C 0,0 km/h (0 Bft)
03.08.2019 18:21 14,9 °C 91 % 1014,4 hPa 0,0 mm 0,0 km/h (0 Bft) N-NO 30 ° 0 min 0,000 mm 1,0 UV-I 141 W/m² 13,4 °C 14,9 °C 0,0 km/h (0 Bft)
03.08.2019 18:22 15,1 °C 91 % 1014,4 hPa 0,0 mm 0,0 km/h (0 Bft) N-NO 30 ° 0 min 0,000 mm 1,0 UV-I 111 W/m² 13,6 °C 15,1 °C 0,0 km/h (0 Bft)
03.08.2019 18:23 15,2 °C 91 % 1014,4 hPa 0,0 mm 0,7 km/h (0 Bft) N-NO 30 ° 0 min 0,000 mm 1,0 UV-I 98 W/m² 13,7 °C 15,2 °C 1,6 km/h (1 Bft)
03.08.2019 18:24 15,2 °C 91 % 1014,5 hPa 0,0 mm 0,3 km/h (0 Bft) N-NO 30 ° 0 min 0,000 mm 1,0 UV-I 98 W/m² 13,7 °C 15,2 °C 1,6 km/h (1 Bft)
03.08.2019 18:25 15,3 °C 91 % 1014,4 hPa 0,0 mm 0,0 km/h (0 Bft) N-NO 30 ° 0 min 0,000 mm 0,9 UV-I 93 W/m² 13,8 °C 15,3 °C 0,0 km/h (0 Bft)
03.08.2019 18:26 15,3 °C 91 % 1014,4 hPa 0,0 mm 0,0 km/h (0 Bft) N-NO 30 ° 0 min 0,000 mm 0,9 UV-I 102 W/m² 13,8 °C 15,3 °C 0,0 km/h (0 Bft)
03.08.2019 18:27 15,3 °C 91 % 1014,4 hPa 0,0 mm 0,0 km/h (0 Bft) N-NO 30 ° 0 min 0,000 mm 0,9 UV-I 113 W/m² 13,8 °C 15,3 °C 0,0 km/h (0 Bft)
03.08.2019 18:28 15,4 °C 91 % 1014,4 hPa 0,0 mm 0,0 km/h (0 Bft) N-NO 30 ° 0 min 0,000 mm 0,9 UV-I 130 W/m² 13,9 °C 15,4 °C 0,0 km/h (0 Bft)
03.08.2019 18:29 15,5 °C 91 % 1014,4 hPa 0,0 mm 0,0 km/h (0 Bft) N-NO 30 ° 0 min 0,000 mm 1,0 UV-I 141 W/m² 14,0 °C 15,5 °C 0,0 km/h (0 Bft)
03.08.2019 18:30 15,7 °C 91 % 1014,4 hPa 0,0 mm 0,0 km/h (0 Bft) N-NO 30 ° 0 min 0,000 mm 1,0 UV-I 153 W/m² 14,2 °C 15,7 °C 0,0 km/h (0 Bft)
03.08.2019 18:31 15,8 °C 92 % 1014,4 hPa 0,0 mm 0,0 km/h (0 Bft) N-NO 30 ° 0 min 0,000 mm 1,0 UV-I 149 W/m² 14,5 °C 15,8 °C 0,0 km/h (0 Bft)
03.08.2019 18:32 16,0 °C 92 % 1014,4 hPa 0,0 mm 0,0 km/h (0 Bft) N-NO 30 ° 0 min 0,000 mm 0,9 UV-I 144 W/m² 14,7 °C 16,0 °C 0,0 km/h (0 Bft)
03.08.2019 18:33 16,1 °C 91 % 1014,4 hPa 0,0 mm 0,0 km/h (0 Bft) N-NO 30 ° 0 min 0,000 mm 0,9 UV-I 135 W/m² 14,6 °C 16,1 °C 0,0 km/h (0 Bft)
03.08.2019 18:34 16,2 °C 91 % 1014,4 hPa 0,0 mm 0,0 km/h (0 Bft) N-NO 30 ° 0 min 0,000 mm 0,9 UV-I 125 W/m² 14,7 °C 16,2 °C 0,0 km/h (0 Bft)
03.08.2019 18:35 16,4 °C 91 % 1014,4 hPa 0,0 mm 0,0 km/h (0 Bft) N-NO 30 ° 0 min 0,000 mm 0,8 UV-I 109 W/m² 14,9 °C 16,4 °C 0,0 km/h (0 Bft)
03.08.2019 18:36 16,5 °C 91 % 1014,4 hPa 0,0 mm 0,7 km/h (0 Bft) SW 236 ° 0 min 0,000 mm 0,8 UV-I 91 W/m² 15,0 °C 16,5 °C 3,2 km/h (1 Bft)
03.08.2019 18:37 16,6 °C 91 % 1014,4 hPa 0,0 mm 0,1 km/h (0 Bft) W-SW 237 ° 0 min 0,000 mm 0,8 UV-I 84 W/m² 15,1 °C 16,6 °C 1,6 km/h (1 Bft)
03.08.2019 18:38 16,6 °C 90 % 1014,4 hPa 0,0 mm 0,1 km/h (0 Bft) W-SW 237 ° 0 min 0,000 mm 0,7 UV-I 74 W/m² 15,0 °C 16,6 °C 1,6 km/h (1 Bft)
03.08.2019 18:39 16,6 °C 89 % 1014,4 hPa 0,0 mm 0,1 km/h (0 Bft) W-SW 237 ° 0 min 0,000 mm 0,7 UV-I 70 W/m² 14,8 °C 16,6 °C 1,6 km/h (1 Bft)
03.08.2019 18:40 16,6 °C 90 % 1014,4 hPa 0,0 mm 0,0 km/h (0 Bft) W-SW 237 ° 0 min 0,000 mm 0,6 UV-I 72 W/m² 15,0 °C 16,6 °C 0,0 km/h (0 Bft)
03.08.2019 18:41 16,6 °C 90 % 1014,4 hPa 0,0 mm 0,0 km/h (0 Bft) W-SW 237 ° 0 min 0,000 mm 0,6 UV-I 90 W/m² 15,0 °C 16,6 °C 0,0 km/h (0 Bft)
03.08.2019 18:42 16,5 °C 90 % 1014,4 hPa 0,0 mm 0,0 km/h (0 Bft) W-SW 237 ° 0 min 0,000 mm 0,6 UV-I 104 W/m² 14,9 °C 16,5 °C 0,0 km/h (0 Bft)
03.08.2019 18:43 16,5 °C 89 % 1014,4 hPa 0,0 mm 0,0 km/h (0 Bft) W-SW 237 ° 0 min 0,000 mm 0,7 UV-I 114 W/m² 14,7 °C 16,5 °C 0,0 km/h (0 Bft)
03.08.2019 18:44 16,6 °C 89 % 1014,4 hPa 0,0 mm 0,0 km/h (0 Bft) W-SW 237 ° 0 min 0,000 mm 0,7 UV-I 114 W/m² 14,8 °C 16,6 °C 0,0 km/h (0 Bft)
03.08.2019 18:45 16,6 °C 87 % 1014,4 hPa 0,0 mm 0,0 km/h (0 Bft) W-SW 237 ° 0 min 0,000 mm 0,8 UV-I 111 W/m² 14,4 °C 16,6 °C 0,0 km/h (0 Bft)
03.08.2019 18:46 16,6 °C 86 % 1014,4 hPa 0,0 mm 0,0 km/h (0 Bft) W-SW 237 ° 0 min 0,000 mm 0,8 UV-I 116 W/m² 14,2 °C 16,6 °C 0,0 km/h (0 Bft)
03.08.2019 18:47 16,5 °C 86 % 1014,4 hPa 0,0 mm 0,0 km/h (0 Bft) W-SW 237 ° 0 min 0,000 mm 0,8 UV-I 93 W/m² 14,1 °C 16,5 °C 0,0 km/h (0 Bft)
03.08.2019 18:48 16,6 °C 88 % 1014,3 hPa 0,0 mm 3,4 km/h (1 Bft) W 275 ° 0 min 0,000 mm 0,8 UV-I 81 W/m² 14,6 °C 16,6 °C 9,7 km/h (2 Bft)
03.08.2019 18:49 16,7 °C 88 % 1014,4 hPa 0,0 mm 0,5 km/h (0 Bft) W 275 ° 0 min 0,000 mm 0,8 UV-I 76 W/m² 14,7 °C 16,7 °C 4,8 km/h (1 Bft)
03.08.2019 18:50 16,8 °C 87 % 1014,4 hPa 0,0 mm 0,0 km/h (0 Bft) W 275 ° 0 min 0,000 mm 0,8 UV-I 63 W/m² 14,6 °C 16,8 °C 0,0 km/h (0 Bft)
03.08.2019 18:51 16,8 °C 85 % 1014,4 hPa 0,0 mm 0,0 km/h (0 Bft) W 275 ° 0 min 0,000 mm 0,8 UV-I 56 W/m² 14,3 °C 16,8 °C 0,0 km/h (0 Bft)
03.08.2019 18:52 16,8 °C 85 % 1014,4 hPa 0,0 mm 0,0 km/h (0 Bft) W 275 ° 0 min 0,000 mm 0,0 UV-I 51 W/m² 14,3 °C 16,8 °C 0,0 km/h (0 Bft)
03.08.2019 18:53 16,9 °C 84 % 1014,3 hPa 0,0 mm 0,1 km/h (0 Bft) W 275 ° 0 min 0,000 mm 0,0 UV-I 46 W/m² 14,2 °C 16,9 °C 1,6 km/h (1 Bft)
03.08.2019 18:54 17,0 °C 83 % 1014,3 hPa 0,0 mm 0,1 km/h (0 Bft) W 275 ° 0 min 0,000 mm 0,0 UV-I 46 W/m² 14,1 °C 17,0 °C 1,6 km/h (1 Bft)
03.08.2019 18:55 17,0 °C 83 % 1014,3 hPa 0,0 mm 0,1 km/h (0 Bft) W 275 ° 0 min 0,000 mm 0,0 UV-I 46 W/m² 14,1 °C 17,0 °C 1,6 km/h (1 Bft)
03.08.2019 18:56 17,0 °C 84 % 1014,3 hPa 0,0 mm 0,0 km/h (0 Bft) W 275 ° 0 min 0,000 mm 0,0 UV-I 46 W/m² 14,3 °C 17,0 °C 0,0 km/h (0 Bft)
03.08.2019 18:57 16,9 °C 83 % 1014,4 hPa 0,0 mm 0,0 km/h (0 Bft) W 275 ° 0 min 0,000 mm 0,0 UV-I 46 W/m² 14,0 °C 16,9 °C 0,0 km/h (0 Bft)
03.08.2019 18:58 16,9 °C 84 % 1014,4 hPa 0,0 mm 0,0 km/h (0 Bft) W 275 ° 0 min 0,000 mm 0,0 UV-I 47 W/m² 14,2 °C 16,9 °C 0,0 km/h (0 Bft)
03.08.2019 18:59 16,8 °C 85 % 1014,4 hPa 0,0 mm 0,0 km/h (0 Bft) W 275 ° 0 min 0,000 mm 0,0 UV-I 54 W/m² 14,3 °C 16,8 °C 0,0 km/h (0 Bft)
03.08.2019 19:00 16,7 °C 86 % 1014,4 hPa 0,0 mm 0,1 km/h (0 Bft) W 275 ° 0 min 0,000 mm 0,0 UV-I 58 W/m² 14,3 °C 16,7 °C 1,6 km/h (1 Bft)
03.08.2019 19:01 16,6 °C 86 % 1014,4 hPa 0,0 mm 0,0 km/h (0 Bft) W 275 ° 0 min 0,051 mm 0,6 UV-I 60 W/m² 14,2 °C 16,6 °C 0,0 km/h (0 Bft)
03.08.2019 19:02 16,6 °C 86 % 1014,4 hPa 0,0 mm 0,0 km/h (0 Bft) W 275 ° 0 min 0,000 mm 0,6 UV-I 63 W/m² 14,2 °C 16,6 °C 0,0 km/h (0 Bft)
03.08.2019 19:03 16,4 °C 87 % 1014,4 hPa 0,0 mm 0,0 km/h (0 Bft) W 275 ° 0 min 0,000 mm 0,6 UV-I 72 W/m² 14,2 °C 16,4 °C 0,0 km/h (0 Bft)
03.08.2019 19:04 16,4 °C 87 % 1014,4 hPa 0,0 mm 0,0 km/h (0 Bft) W 275 ° 0 min 0,000 mm 0,6 UV-I 118 W/m² 14,2 °C 16,4 °C 0,0 km/h (0 Bft)
03.08.2019 19:05 16,3 °C 87 % 1014,4 hPa 0,0 mm 0,0 km/h (0 Bft) W 275 ° 0 min 0,000 mm 0,6 UV-I 169 W/m² 14,1 °C 16,3 °C 0,0 km/h (0 Bft)
03.08.2019 19:06 16,4 °C 88 % 1014,4 hPa 0,0 mm 0,0 km/h (0 Bft) W 275 ° 0 min 0,000 mm 0,6 UV-I 109 W/m² 14,4 °C 16,4 °C 0,0 km/h (0 Bft)
03.08.2019 19:07 16,6 °C 89 % 1014,5 hPa 0,0 mm 0,0 km/h (0 Bft) W 275 ° 0 min 0,000 mm 0,6 UV-I 114 W/m² 14,8 °C 16,6 °C 0,0 km/h (0 Bft)
03.08.2019 19:08 16,6 °C 88 % 1014,4 hPa 0,0 mm 0,0 km/h (0 Bft) W 275 ° 0 min 0,000 mm 0,6 UV-I 111 W/m² 14,6 °C 16,6 °C 0,0 km/h (0 Bft)
03.08.2019 19:09 16,5 °C 88 % 1014,4 hPa 0,0 mm 0,0 km/h (0 Bft) W 275 ° 0 min 0,000 mm 0,6 UV-I 104 W/m² 14,5 °C 16,5 °C 0,0 km/h (0 Bft)
03.08.2019 19:10 16,6 °C 87 % 1014,4 hPa 0,0 mm 0,0 km/h (0 Bft) W 275 ° 0 min 0,000 mm 0,6 UV-I 104 W/m² 14,4 °C 16,6 °C 0,0 km/h (0 Bft)
03.08.2019 19:11 16,7 °C 87 % 1014,5 hPa 0,0 mm 0,0 km/h (0 Bft) W 275 ° 0 min 0,000 mm 0,6 UV-I 91 W/m² 14,5 °C 16,7 °C 0,0 km/h (0 Bft)
03.08.2019 19:12 16,7 °C 88 % 1014,5 hPa 0,0 mm 0,0 km/h (0 Bft) W 275 ° 0 min 0,000 mm 0,5 UV-I 90 W/m² 14,7 °C 16,7 °C 0,0 km/h (0 Bft)
03.08.2019 19:13 16,8 °C 88 % 1014,5 hPa 0,0 mm 2,9 km/h (1 Bft) NW 312 ° 0 min 0,000 mm 0,5 UV-I 91 W/m² 14,8 °C 16,8 °C 6,4 km/h (2 Bft)
03.08.2019 19:14 16,9 °C 86 % 1014,5 hPa 0,0 mm 4,2 km/h (1 Bft) NW 315 ° 0 min 0,000 mm 0,5 UV-I 95 W/m² 14,5 °C 16,9 °C 6,4 km/h (2 Bft)
03.08.2019 19:15 17,0 °C 86 % 1014,5 hPa 0,0 mm 1,1 km/h (1 Bft) NW 315 ° 0 min 0,000 mm 0,5 UV-I 97 W/m² 14,6 °C 17,0 °C 3,2 km/h (1 Bft)
03.08.2019 19:16 17,1 °C 86 % 1014,5 hPa 0,0 mm 0,0 km/h (0 Bft) NW 315 ° 0 min 0,000 mm 0,5 UV-I 113 W/m² 14,7 °C 17,1 °C 0,0 km/h (0 Bft)
03.08.2019 19:17 17,1 °C 85 % 1014,5 hPa 0,0 mm 0,1 km/h (0 Bft) NW 315 ° 0 min 0,000 mm 0,5 UV-I 100 W/m² 14,6 °C 17,1 °C 1,6 km/h (1 Bft)
03.08.2019 19:18 17,2 °C 85 % 1014,5 hPa 0,0 mm 2,0 km/h (1 Bft) NW 315 ° 0 min 0,000 mm 0,5 UV-I 98 W/m² 14,7 °C 17,2 °C 4,8 km/h (1 Bft)
03.08.2019 19:19 17,2 °C 84 % 1014,5 hPa 0,0 mm 0,9 km/h (0 Bft) W-NW 298 ° 0 min 0,000 mm 0,5 UV-I 97 W/m² 14,5 °C 17,2 °C 3,2 km/h (1 Bft)
03.08.2019 19:20 17,2 °C 83 % 1014,5 hPa 0,0 mm 0,8 km/h (0 Bft) W-NW 299 ° 0 min 0,000 mm 0,5 UV-I 93 W/m² 14,3 °C 17,2 °C 3,2 km/h (1 Bft)
03.08.2019 19:21 17,2 °C 83 % 1014,5 hPa 0,0 mm 0,0 km/h (0 Bft) W-NW 299 ° 0 min 0,000 mm 0,5 UV-I 93 W/m² 14,3 °C 17,2 °C 0,0 km/h (0 Bft)
03.08.2019 19:22 17,2 °C 82 % 1014,5 hPa 0,0 mm 3,6 km/h (1 Bft) W-NW 299 ° 0 min 0,000 mm 0,5 UV-I 93 W/m² 14,1 °C 17,2 °C 4,8 km/h (1 Bft)
03.08.2019 19:23 17,2 °C 82 % 1014,5 hPa 0,0 mm 2,8 km/h (1 Bft) W-NW 299 ° 0 min 0,000 mm 0,5 UV-I 81 W/m² 14,1 °C 17,2 °C 4,8 km/h (1 Bft)
03.08.2019 19:24 17,3 °C 83 % 1014,5 hPa 0,0 mm 0,4 km/h (0 Bft) W-NW 299 ° 0 min 0,000 mm 0,5 UV-I 83 W/m² 14,4 °C 17,3 °C 1,6 km/h (1 Bft)
03.08.2019 19:25 17,3 °C 83 % 1014,4 hPa 0,0 mm 0,0 km/h (0 Bft) W-NW 299 ° 0 min 0,000 mm 0,0 UV-I 83 W/m² 14,4 °C 17,3 °C 0,0 km/h (0 Bft)
03.08.2019 19:26 17,3 °C 82 % 1014,5 hPa 0,0 mm 0,0 km/h (0 Bft) W-NW 299 ° 0 min 0,000 mm 0,0 UV-I 86 W/m² 14,2 °C 17,3 °C 0,0 km/h (0 Bft)
03.08.2019 19:27 17,3 °C 82 % 1014,5 hPa 0,0 mm 0,0 km/h (0 Bft) W-NW 299 ° 0 min 0,000 mm 0,5 UV-I 95 W/m² 14,2 °C 17,3 °C 0,0 km/h (0 Bft)
03.08.2019 19:28 17,3 °C 82 % 1014,5 hPa 0,0 mm 0,0 km/h (0 Bft) W-NW 299 ° 0 min 0,000 mm 0,0 UV-I 90 W/m² 14,2 °C 17,3 °C 0,0 km/h (0 Bft)
03.08.2019 19:29 17,3 °C 82 % 1014,5 hPa 0,0 mm 0,0 km/h (0 Bft) W-NW 299 ° 0 min 0,000 mm 0,0 UV-I 102 W/m² 14,2 °C 17,3 °C 0,0 km/h (0 Bft)
03.08.2019 19:30 17,3 °C 82 % 1014,5 hPa 0,0 mm 0,0 km/h (0 Bft) W-NW 299 ° 0 min 0,000 mm 0,0 UV-I 77 W/m² 14,2 °C 17,3 °C 0,0 km/h (0 Bft)
03.08.2019 19:31 17,3 °C 82 % 1014,5 hPa 0,0 mm 0,0 km/h (0 Bft) W-NW 299 ° 0 min 0,000 mm 0,0 UV-I 104 W/m² 14,2 °C 17,3 °C 0,0 km/h (0 Bft)
03.08.2019 19:32 17,3 °C 82 % 1014,5 hPa 0,0 mm 0,0 km/h (0 Bft) W-NW 299 ° 0 min 0,000 mm 0,0 UV-I 90 W/m² 14,2 °C 17,3 °C 0,0 km/h (0 Bft)
03.08.2019 19:33 17,3 °C 82 % 1014,5 hPa 0,0 mm 0,0 km/h (0 Bft) W-NW 299 ° 0 min 0,000 mm 0,0 UV-I 81 W/m² 14,2 °C 17,3 °C 0,0 km/h (0 Bft)
03.08.2019 19:34 17,3 °C 82 % 1014,5 hPa 0,0 mm 0,0 km/h (0 Bft) W-NW 299 ° 0 min 0,000 mm 0,0 UV-I 69 W/m² 14,2 °C 17,3 °C 0,0 km/h (0 Bft)
03.08.2019 19:35 17,3 °C 83 % 1014,5 hPa 0,0 mm 0,0 km/h (0 Bft) W-NW 299 ° 0 min 0,000 mm 0,0 UV-I 65 W/m² 14,4 °C 17,3 °C 0,0 km/h (0 Bft)
03.08.2019 19:36 17,3 °C 83 % 1014,5 hPa 0,0 mm 0,5 km/h (0 Bft) W-NW 299 ° 0 min 0,000 mm 0,0 UV-I 67 W/m² 14,4 °C 17,3 °C 3,2 km/h (1 Bft)
03.08.2019 19:37 17,3 °C 83 % 1014,5 hPa 0,0 mm 1,5 km/h (1 Bft) W-NW 299 ° 0 min 0,000 mm 0,0 UV-I 76 W/m² 14,4 °C 17,3 °C 3,2 km/h (1 Bft)
03.08.2019 19:38 17,3 °C 81 % 1014,5 hPa 0,0 mm 3,7 km/h (1 Bft) W 268 ° 0 min 0,000 mm 0,0 UV-I 91 W/m² 14,0 °C 17,3 °C 9,7 km/h (2 Bft)
03.08.2019 19:39 17,2 °C 80 % 1014,5 hPa 0,0 mm 3,3 km/h (1 Bft) W 271 ° 0 min 0,000 mm 0,0 UV-I 109 W/m² 13,7 °C 17,2 °C 9,7 km/h (2 Bft)
03.08.2019 19:40 17,3 °C 79 % 1014,5 hPa 0,0 mm 3,1 km/h (1 Bft) W 279 ° 0 min 0,000 mm 0,0 UV-I 116 W/m² 13,6 °C 17,3 °C 4,8 km/h (1 Bft)
03.08.2019 19:41 17,3 °C 79 % 1014,5 hPa 0,0 mm 2,7 km/h (1 Bft) W-NW 285 ° 0 min 0,000 mm 0,0 UV-I 111 W/m² 13,6 °C 17,3 °C 4,8 km/h (1 Bft)
03.08.2019 19:42 17,3 °C 78 % 1014,5 hPa 0,0 mm 1,9 km/h (1 Bft) W-NW 286 ° 0 min 0,000 mm 0,0 UV-I 105 W/m² 13,4 °C 17,3 °C 4,8 km/h (1 Bft)
03.08.2019 19:43 17,3 °C 78 % 1014,5 hPa 0,0 mm 1,5 km/h (1 Bft) NW 308 ° 0 min 0,000 mm 0,0 UV-I 98 W/m² 13,4 °C 17,3 °C 3,2 km/h (1 Bft)
03.08.2019 19:44 17,3 °C 79 % 1014,5 hPa 0,0 mm 2,7 km/h (1 Bft) NW 313 ° 0 min 0,000 mm 0,0 UV-I 93 W/m² 13,6 °C 17,3 °C 4,8 km/h (1 Bft)
03.08.2019 19:45 17,4 °C 79 % 1014,5 hPa 0,0 mm 0,1 km/h (0 Bft) NW 313 ° 0 min 0,000 mm 0,0 UV-I 90 W/m² 13,7 °C 17,4 °C 1,6 km/h (1 Bft)
03.08.2019 19:46 17,4 °C 80 % 1014,5 hPa 0,0 mm 0,2 km/h (0 Bft) NW 313 ° 0 min 0,000 mm 0,0 UV-I 84 W/m² 13,9 °C 17,4 °C 1,6 km/h (1 Bft)
03.08.2019 19:47 17,3 °C 79 % 1014,5 hPa 0,0 mm 2,1 km/h (1 Bft) NW 311 ° 0 min 0,000 mm 0,0 UV-I 81 W/m² 13,6 °C 17,3 °C 4,8 km/h (1 Bft)
03.08.2019 19:48 17,3 °C 79 % 1014,5 hPa 0,0 mm 1,3 km/h (1 Bft) NW 317 ° 0 min 0,000 mm 0,0 UV-I 79 W/m² 13,6 °C 17,3 °C 3,2 km/h (1 Bft)
03.08.2019 19:49 17,3 °C 78 % 1014,5 hPa 0,0 mm 1,3 km/h (1 Bft) NW 316 ° 0 min 0,000 mm 0,0 UV-I 79 W/m² 13,4 °C 17,3 °C 3,2 km/h (1 Bft)
03.08.2019 19:50 17,3 °C 78 % 1014,5 hPa 0,0 mm 0,7 km/h (0 Bft) NW 316 ° 0 min 0,000 mm 0,0 UV-I 79 W/m² 13,4 °C 17,3 °C 3,2 km/h (1 Bft)
03.08.2019 19:51 17,3 °C 78 % 1014,5 hPa 0,0 mm 0,7 km/h (0 Bft) NW 316 ° 0 min 0,000 mm 0,0 UV-I 76 W/m² 13,4 °C 17,3 °C 3,2 km/h (1 Bft)
03.08.2019 19:52 17,2 °C 78 % 1014,5 hPa 0,0 mm 0,0 km/h (0 Bft) NW 316 ° 0 min 0,000 mm 0,0 UV-I 47 W/m² 13,3 °C 17,2 °C 0,0 km/h (0 Bft)
03.08.2019 19:53 17,2 °C 79 % 1014,6 hPa 0,0 mm 0,0 km/h (0 Bft) NW 316 ° 0 min 0,000 mm 0,0 UV-I 51 W/m² 13,5 °C 17,2 °C 0,0 km/h (0 Bft)
03.08.2019 19:54 17,1 °C 79 % 1014,6 hPa 0,0 mm 1,6 km/h (1 Bft) NW 316 ° 0 min 0,000 mm 0,0 UV-I 60 W/m² 13,4 °C 17,1 °C 3,2 km/h (1 Bft)
03.08.2019 19:55 17,1 °C 79 % 1014,6 hPa 0,0 mm 1,1 km/h (1 Bft) NW 316 ° 0 min 0,000 mm 0,0 UV-I 63 W/m² 13,4 °C 17,1 °C 3,2 km/h (1 Bft)
03.08.2019 19:56 16,9 °C 79 % 1014,6 hPa 0,0 mm 0,0 km/h (0 Bft) NW 316 ° 0 min 0,000 mm 0,0 UV-I 62 W/m² 13,2 °C 16,9 °C 0,0 km/h (0 Bft)
03.08.2019 19:57 16,9 °C 79 % 1014,6 hPa 0,0 mm 0,0 km/h (0 Bft) NW 316 ° 0 min 0,000 mm 0,0 UV-I 60 W/m² 13,2 °C 16,9 °C 0,0 km/h (0 Bft)
03.08.2019 19:58 16,9 °C 79 % 1014,6 hPa 0,0 mm 0,0 km/h (0 Bft) NW 316 ° 0 min 0,000 mm 0,0 UV-I 56 W/m² 13,2 °C 16,9 °C 0,0 km/h (0 Bft)
03.08.2019 19:59 16,8 °C 79 % 1014,6 hPa 0,0 mm 0,0 km/h (0 Bft) NW 316 ° 0 min 0,000 mm 0,0 UV-I 53 W/m² 13,1 °C 16,8 °C 0,0 km/h (0 Bft)
03.08.2019 20:00 16,8 °C 79 % 1014,6 hPa 0,0 mm 0,3 km/h (0 Bft) NW 316 ° 0 min 0,000 mm 0,0 UV-I 51 W/m² 13,1 °C 16,8 °C 1,6 km/h (1 Bft)
03.08.2019 20:01 16,8 °C 78 % 1014,6 hPa 0,0 mm 0,7 km/h (0 Bft) NW 316 ° 0 min 0,050 mm 0,0 UV-I 49 W/m² 12,9 °C 16,8 °C 1,6 km/h (1 Bft)
03.08.2019 20:02 16,8 °C 78 % 1014,6 hPa 0,0 mm 0,0 km/h (0 Bft) NW 316 ° 0 min 0,000 mm 0,0 UV-I 47 W/m² 12,9 °C 16,8 °C 0,0 km/h (0 Bft)
03.08.2019 20:03 16,9 °C 78 % 1014,6 hPa 0,0 mm 0,0 km/h (0 Bft) NW 316 ° 0 min 0,000 mm 0,0 UV-I 46 W/m² 13,0 °C 16,9 °C 0,0 km/h (0 Bft)
03.08.2019 20:04 16,9 °C 78 % 1014,7 hPa 0,0 mm 0,0 km/h (0 Bft) NW 316 ° 0 min 0,000 mm 0,0 UV-I 42 W/m² 13,0 °C 16,9 °C 0,0 km/h (0 Bft)
03.08.2019 20:05 16,8 °C 78 % 1014,7 hPa 0,0 mm 0,0 km/h (0 Bft) NW 316 ° 0 min 0,000 mm 0,0 UV-I 40 W/m² 12,9 °C 16,8 °C 0,0 km/h (0 Bft)
03.08.2019 20:06 16,8 °C 79 % 1014,7 hPa 0,0 mm 1,1 km/h (1 Bft) NW 316 ° 0 min 0,000 mm 0,0 UV-I 37 W/m² 13,1 °C 16,8 °C 3,2 km/h (1 Bft)
03.08.2019 20:07 16,7 °C 79 % 1014,7 hPa 0,0 mm 0,4 km/h (0 Bft) NW 316 ° 0 min 0,000 mm 0,0 UV-I 35 W/m² 13,0 °C 16,7 °C 3,2 km/h (1 Bft)
03.08.2019 20:08 16,7 °C 79 % 1014,7 hPa 0,0 mm 0,0 km/h (0 Bft) NW 316 ° 0 min 0,000 mm 0,0 UV-I 32 W/m² 13,0 °C 16,7 °C 0,0 km/h (0 Bft)
03.08.2019 20:09 16,6 °C 79 % 1014,7 hPa 0,0 mm 0,0 km/h (0 Bft) NW 316 ° 0 min 0,000 mm 0,0 UV-I 26 W/m² 12,9 °C 16,6 °C 0,0 km/h (0 Bft)
03.08.2019 20:10 16,5 °C 79 % 1014,7 hPa 0,0 mm 0,0 km/h (0 Bft) NW 316 ° 0 min 0,000 mm 0,0 UV-I 23 W/m² 12,8 °C 16,5 °C 0,0 km/h (0 Bft)
03.08.2019 20:11 16,4 °C 79 % 1014,7 hPa 0,0 mm 0,0 km/h (0 Bft) NW 316 ° 0 min 0,000 mm 0,0 UV-I 21 W/m² 12,7 °C 16,4 °C 0,0 km/h (0 Bft)
03.08.2019 20:12 16,4 °C 79 % 1014,8 hPa 0,0 mm 0,0 km/h (0 Bft) NW 316 ° 0 min 0,000 mm 0,0 UV-I 21 W/m² 12,7 °C 16,4 °C 0,0 km/h (0 Bft)
03.08.2019 20:13 16,3 °C 80 % 1014,8 hPa 0,0 mm 0,0 km/h (0 Bft) NW 316 ° 0 min 0,000 mm 0,0 UV-I 19 W/m² 12,8 °C 16,3 °C 0,0 km/h (0 Bft)
03.08.2019 20:14 16,3 °C 80 % 1014,7 hPa 0,0 mm 0,0 km/h (0 Bft) NW 316 ° 0 min 0,000 mm 0,0 UV-I 19 W/m² 12,8 °C 16,3 °C 0,0 km/h (0 Bft)
03.08.2019 20:15 16,3 °C 80 % 1014,8 hPa 0,0 mm 0,0 km/h (0 Bft) NW 316 ° 0 min 0,000 mm 0,0 UV-I 19 W/m² 12,8 °C 16,3 °C 0,0 km/h (0 Bft)
03.08.2019 20:16 16,2 °C 80 % 1014,8 hPa 0,0 mm 0,0 km/h (0 Bft) NW 316 ° 0 min 0,000 mm 0,0 UV-I 18 W/m² 12,7 °C 16,2 °C 0,0 km/h (0 Bft)
03.08.2019 20:17 16,1 °C 80 % 1014,8 hPa 0,0 mm 0,0 km/h (0 Bft) NW 316 ° 0 min 0,000 mm 0,0 UV-I 18 W/m² 12,6 °C 16,1 °C 0,0 km/h (0 Bft)
03.08.2019 20:18 16,1 °C 80 % 1014,8 hPa 0,0 mm 0,0 km/h (0 Bft) NW 316 ° 0 min 0,000 mm 0,0 UV-I 18 W/m² 12,6 °C 16,1 °C 0,0 km/h (0 Bft)
03.08.2019 20:19 16,0 °C 81 % 1014,8 hPa 0,0 mm 0,0 km/h (0 Bft) NW 316 ° 0 min 0,000 mm 0,0 UV-I 19 W/m² 12,7 °C 16,0 °C 0,0 km/h (0 Bft)
03.08.2019 20:20 15,9 °C 81 % 1014,8 hPa 0,0 mm 0,0 km/h (0 Bft) NW 316 ° 0 min 0,000 mm 0,0 UV-I 19 W/m² 12,6 °C 15,9 °C 0,0 km/h (0 Bft)
03.08.2019 20:21 15,9 °C 81 % 1014,8 hPa 0,0 mm 0,0 km/h (0 Bft) NW 316 ° 0 min 0,000 mm 0,0 UV-I 18 W/m² 12,6 °C 15,9 °C 0,0 km/h (0 Bft)
03.08.2019 20:22 15,8 °C 82 % 1014,8 hPa 0,0 mm 0,0 km/h (0 Bft) NW 316 ° 0 min 0,000 mm 0,0 UV-I 18 W/m² 12,7 °C 15,8 °C 0,0 km/h (0 Bft)
03.08.2019 20:23 15,8 °C 83 % 1014,8 hPa 0,0 mm 0,0 km/h (0 Bft) NW 316 ° 0 min 0,000 mm 0,0 UV-I 18 W/m² 12,9 °C 15,8 °C 0,0 km/h (0 Bft)
03.08.2019 20:24 15,7 °C 83 % 1014,8 hPa 0,0 mm 0,0 km/h (0 Bft) NW 316 ° 0 min 0,000 mm 0,0 UV-I 18 W/m² 12,8 °C 15,7 °C 0,0 km/h (0 Bft)
03.08.2019 20:25 15,7 °C 83 % 1014,8 hPa 0,0 mm 0,0 km/h (0 Bft) NW 316 ° 0 min 0,000 mm 0,0 UV-I 16 W/m² 12,8 °C 15,7 °C 0,0 km/h (0 Bft)
03.08.2019 20:26 15,6 °C 83 % 1014,8 hPa 0,0 mm 0,0 km/h (0 Bft) NW 316 ° 0 min 0,000 mm 0,0 UV-I 16 W/m² 12,7 °C 15,6 °C 0,0 km/h (0 Bft)
03.08.2019 20:27 15,6 °C 83 % 1014,8 hPa 0,0 mm 0,0 km/h (0 Bft) NW 316 ° 0 min 0,000 mm 0,0 UV-I 12 W/m² 12,7 °C 15,6 °C 0,0 km/h (0 Bft)
03.08.2019 20:28 15,6 °C 82 % 1014,8 hPa 0,0 mm 0,0 km/h (0 Bft) NW 316 ° 0 min 0,000 mm 0,0 UV-I 12 W/m² 12,5 °C 15,6 °C 0,0 km/h (0 Bft)
03.08.2019 20:29 15,6 °C 82 % 1014,8 hPa 0,0 mm 0,0 km/h (0 Bft) NW 316 ° 0 min 0,000 mm 0,0 UV-I 12 W/m² 12,5 °C 15,6 °C 0,0 km/h (0 Bft)
03.08.2019 20:30 15,7 °C 82 % 1014,8 hPa 0,0 mm 0,0 km/h (0 Bft) NW 316 ° 0 min 0,000 mm 0,0 UV-I 12 W/m² 12,6 °C 15,7 °C 0,0 km/h (0 Bft)
03.08.2019 20:31 15,7 °C 82 % 1014,8 hPa 0,0 mm 0,0 km/h (0 Bft) NW 316 ° 0 min 0,000 mm 0,0 UV-I 12 W/m² 12,6 °C 15,7 °C 0,0 km/h (0 Bft)
03.08.2019 20:32 15,7 °C 83 % 1014,8 hPa 0,0 mm 0,0 km/h (0 Bft) NW 316 ° 0 min 0,000 mm 0,0 UV-I 14 W/m² 12,8 °C 15,7 °C 0,0 km/h (0 Bft)
03.08.2019 20:33 15,7 °C 82 % 1014,8 hPa 0,0 mm 0,0 km/h (0 Bft) NW 316 ° 0 min 0,000 mm 0,0 UV-I 14 W/m² 12,6 °C 15,7 °C 0,0 km/h (0 Bft)
03.08.2019 20:34 15,7 °C 82 % 1014,8 hPa 0,0 mm 0,1 km/h (0 Bft) NW 316 ° 0 min 0,000 mm 0,0 UV-I 12 W/m² 12,6 °C 15,7 °C 1,6 km/h (1 Bft)
03.08.2019 20:35 15,7 °C 82 % 1014,8 hPa 0,0 mm 1,7 km/h (1 Bft) NW 316 ° 0 min 0,000 mm 0,0 UV-I 12 W/m² 12,6 °C 15,7 °C 3,2 km/h (1 Bft)
03.08.2019 20:36 15,6 °C 82 % 1014,9 hPa 0,0 mm 0,8 km/h (0 Bft) NW 316 ° 0 min 0,000 mm 0,0 UV-I 11 W/m² 12,5 °C 15,6 °C 3,2 km/h (1 Bft)
03.08.2019 20:37 15,7 °C 82 % 1014,8 hPa 0,0 mm 0,0 km/h (0 Bft) NW 316 ° 0 min 0,000 mm 0,0 UV-I 9 W/m² 12,6 °C 15,7 °C 0,0 km/h (0 Bft)
03.08.2019 20:38 15,6 °C 82 % 1014,9 hPa 0,0 mm 0,0 km/h (0 Bft) NW 316 ° 0 min 0,000 mm 0,0 UV-I 9 W/m² 12,5 °C 15,6 °C 0,0 km/h (0 Bft)
03.08.2019 20:39 15,6 °C 82 % 1014,8 hPa 0,0 mm 0,0 km/h (0 Bft) NW 316 ° 0 min 0,000 mm 0,0 UV-I 7 W/m² 12,5 °C 15,6 °C 0,0 km/h (0 Bft)
03.08.2019 20:40 15,5 °C 82 % 1014,8 hPa 0,0 mm 0,0 km/h (0 Bft) NW 316 ° 0 min 0,000 mm 0,0 UV-I 7 W/m² 12,4 °C 15,5 °C 0,0 km/h (0 Bft)
03.08.2019 20:41 15,4 °C 82 % 1014,8 hPa 0,0 mm 0,0 km/h (0 Bft) NW 316 ° 0 min 0,000 mm 0,0 UV-I 5 W/m² 12,3 °C 15,4 °C 0,0 km/h (0 Bft)
03.08.2019 20:42 15,4 °C 82 % 1014,8 hPa 0,0 mm 0,0 km/h (0 Bft) NW 316 ° 0 min 0,000 mm 0,0 UV-I 5 W/m² 12,3 °C 15,4 °C 0,0 km/h (0 Bft)
03.08.2019 20:43 15,4 °C 82 % 1014,8 hPa 0,0 mm 0,0 km/h (0 Bft) NW 316 ° 0 min 0,000 mm 0,0 UV-I 5 W/m² 12,3 °C 15,4 °C 0,0 km/h (0 Bft)
03.08.2019 20:44 15,4 °C 82 % 1014,8 hPa 0,0 mm 0,0 km/h (0 Bft) NW 316 ° 0 min 0,000 mm 0,0 UV-I 5 W/m² 12,3 °C 15,4 °C 0,0 km/h (0 Bft)
03.08.2019 20:45 15,4 °C 82 % 1014,8 hPa 0,0 mm 0,0 km/h (0 Bft) NW 316 ° 0 min 0,000 mm 0,0 UV-I 0 W/m² 12,3 °C 15,4 °C 0,0 km/h (0 Bft)
03.08.2019 20:46 15,4 °C 82 % 1014,8 hPa 0,0 mm 0,0 km/h (0 Bft) NW 316 ° 0 min 0,000 mm 0,0 UV-I 0 W/m² 12,3 °C 15,4 °C 0,0 km/h (0 Bft)
03.08.2019 20:47 15,3 °C 82 % 1014,8 hPa 0,0 mm 0,0 km/h (0 Bft) NW 316 ° 0 min 0,000 mm 0,0 UV-I 0 W/m² 12,2 °C 15,3 °C 0,0 km/h (0 Bft)
03.08.2019 20:48 15,3 °C 83 % 1014,8 hPa 0,0 mm 0,0 km/h (0 Bft) NW 316 ° 0 min 0,000 mm 0,0 UV-I 0 W/m² 12,4 °C 15,3 °C 0,0 km/h (0 Bft)
03.08.2019 20:49 15,2 °C 83 % 1014,8 hPa 0,0 mm 0,0 km/h (0 Bft) NW 316 ° 0 min 0,000 mm 0,0 UV-I 0 W/m² 12,3 °C 15,2 °C 0,0 km/h (0 Bft)
03.08.2019 20:50 15,1 °C 84 % 1014,9 hPa 0,0 mm 0,0 km/h (0 Bft) NW 316 ° 0 min 0,000 mm 0,0 UV-I 0 W/m² 12,4 °C 15,1 °C 0,0 km/h (0 Bft)
03.08.2019 20:51 14,9 °C 84 % 1014,9 hPa 0,0 mm 0,0 km/h (0 Bft) NW 316 ° 0 min 0,000 mm 0,0 UV-I 0 W/m² 12,2 °C 14,9 °C 0,0 km/h (0 Bft)
03.08.2019 20:52 14,8 °C 85 % 1014,9 hPa 0,0 mm 0,0 km/h (0 Bft) NW 316 ° 0 min 0,000 mm 0,0 UV-I 0 W/m² 12,3 °C 14,8 °C 0,0 km/h (0 Bft)
03.08.2019 20:53 14,7 °C 86 % 1014,9 hPa 0,0 mm 0,0 km/h (0 Bft) NW 316 ° 0 min 0,000 mm 0,0 UV-I 0 W/m² 12,4 °C 14,7 °C 0,0 km/h (0 Bft)
03.08.2019 20:54 14,6 °C 87 % 1014,9 hPa 0,0 mm 0,0 km/h (0 Bft) NW 316 ° 0 min 0,000 mm 0,0 UV-I 0 W/m² 12,5 °C 14,6 °C 0,0 km/h (0 Bft)
03.08.2019 20:55 14,6 °C 87 % 1014,9 hPa 0,0 mm 0,0 km/h (0 Bft) NW 316 ° 0 min 0,000 mm 0,0 UV-I 0 W/m² 12,5 °C 14,6 °C 0,0 km/h (0 Bft)
03.08.2019 20:56 14,4 °C 87 % 1014,9 hPa 0,0 mm 0,0 km/h (0 Bft) NW 316 ° 0 min 0,000 mm 0,0 UV-I 0 W/m² 12,3 °C 14,4 °C 0,0 km/h (0 Bft)
03.08.2019 20:57 14,3 °C 87 % 1014,9 hPa 0,0 mm 0,0 km/h (0 Bft) NW 316 ° 0 min 0,000 mm 0,0 UV-I 0 W/m² 12,2 °C 14,3 °C 0,0 km/h (0 Bft)
03.08.2019 20:58 14,3 °C 87 % 1014,9 hPa 0,0 mm 0,0 km/h (0 Bft) NW 316 ° 0 min 0,000 mm 0,0 UV-I 0 W/m² 12,2 °C 14,3 °C 0,0 km/h (0 Bft)
03.08.2019 20:59 14,3 °C 87 % 1015,0 hPa 0,0 mm 0,0 km/h (0 Bft) NW 316 ° 0 min 0,000 mm 0,0 UV-I 0 W/m² 12,2 °C 14,3 °C 0,0 km/h (0 Bft)
03.08.2019 21:00 14,4 °C 87 % 1015,0 hPa 0,0 mm 0,0 km/h (0 Bft) NW 316 ° 0 min 0,000 mm 0,0 UV-I 0 W/m² 12,3 °C 14,4 °C 0,0 km/h (0 Bft)
03.08.2019 21:01 14,4 °C 87 % 1015,0 hPa 0,0 mm 0,0 km/h (0 Bft) NW 316 ° 0 min 0,000 mm 0,0 UV-I 0 W/m² 12,3 °C 14,4 °C 0,0 km/h (0 Bft)
03.08.2019 21:02 14,3 °C 87 % 1015,0 hPa 0,0 mm 0,0 km/h (0 Bft) NW 316 ° 0 min 0,000 mm 0,0 UV-I 0 W/m² 12,2 °C 14,3 °C 0,0 km/h (0 Bft)
03.08.2019 21:03 14,3 °C 87 % 1014,9 hPa 0,0 mm 0,0 km/h (0 Bft) NW 316 ° 0 min 0,000 mm 0,0 UV-I 0 W/m² 12,2 °C 14,3 °C 0,0 km/h (0 Bft)
03.08.2019 21:04 14,3 °C 87 % 1015,0 hPa 0,0 mm 0,0 km/h (0 Bft) NW 316 ° 0 min 0,000 mm 0,0 UV-I 0 W/m² 12,2 °C 14,3 °C 0,0 km/h (0 Bft)
03.08.2019 21:05 14,2 °C 87 % 1015,0 hPa 0,0 mm 0,0 km/h (0 Bft) NW 316 ° 0 min 0,000 mm 0,0 UV-I 0 W/m² 12,1 °C 14,2 °C 0,0 km/h (0 Bft)
03.08.2019 21:06 14,2 °C 87 % 1015,0 hPa 0,0 mm 0,0 km/h (0 Bft) NW 316 ° 0 min 0,000 mm 0,0 UV-I 0 W/m² 12,1 °C 14,2 °C 0,0 km/h (0 Bft)
03.08.2019 21:07 14,2 °C 87 % 1015,0 hPa 0,0 mm 0,0 km/h (0 Bft) NW 316 ° 0 min 0,000 mm 0,0 UV-I 0 W/m² 12,1 °C 14,2 °C 0,0 km/h (0 Bft)
03.08.2019 21:08 14,1 °C 87 % 1015,0 hPa 0,0 mm 0,0 km/h (0 Bft) NW 316 ° 0 min 0,000 mm 0,0 UV-I 0 W/m² 12,0 °C 14,1 °C 0,0 km/h (0 Bft)
03.08.2019 21:09 14,1 °C 88 % 1015,1 hPa 0,0 mm 0,0 km/h (0 Bft) NW 316 ° 0 min 0,000 mm 0,0 UV-I 0 W/m² 12,1 °C 14,1 °C 0,0 km/h (0 Bft)
03.08.2019 21:10 14,0 °C 88 % 1015,1 hPa 0,0 mm 0,0 km/h (0 Bft) NW 316 ° 0 min 0,000 mm 0,0 UV-I 0 W/m² 12,0 °C 14,0 °C 0,0 km/h (0 Bft)
03.08.2019 21:11 14,0 °C 88 % 1015,1 hPa 0,0 mm 0,4 km/h (0 Bft) NW 316 ° 0 min 0,000 mm 0,0 UV-I 0 W/m² 12,0 °C 14,0 °C 1,6 km/h (1 Bft)
03.08.2019 21:12 13,9 °C 88 % 1015,1 hPa 0,0 mm 0,0 km/h (0 Bft) NW 316 ° 0 min 0,000 mm 0,0 UV-I 0 W/m² 11,9 °C 13,9 °C 0,0 km/h (0 Bft)
03.08.2019 21:13 13,9 °C 88 % 1015,1 hPa 0,0 mm 0,0 km/h (0 Bft) NW 316 ° 0 min 0,000 mm 0,0 UV-I 0 W/m² 11,9 °C 13,9 °C 0,0 km/h (0 Bft)
03.08.2019 21:14 13,8 °C 88 % 1015,1 hPa 0,0 mm 0,0 km/h (0 Bft) NW 316 ° 0 min 0,000 mm 0,0 UV-I 0 W/m² 11,8 °C 13,8 °C 0,0 km/h (0 Bft)
03.08.2019 21:15 13,8 °C 88 % 1015,1 hPa 0,0 mm 0,0 km/h (0 Bft) NW 316 ° 0 min 0,000 mm 0,0 UV-I 0 W/m² 11,8 °C 13,8 °C 0,0 km/h (0 Bft)
03.08.2019 21:16 13,8 °C 89 % 1015,1 hPa 0,0 mm 0,4 km/h (0 Bft) NW 316 ° 0 min 0,000 mm 0,0 UV-I 0 W/m² 12,0 °C 13,8 °C 1,6 km/h (1 Bft)
03.08.2019 21:17 13,8 °C 89 % 1015,1 hPa 0,0 mm 0,0 km/h (0 Bft) NW 316 ° 0 min 0,000 mm 0,0 UV-I 0 W/m² 12,0 °C 13,8 °C 0,0 km/h (0 Bft)
03.08.2019 21:18 13,8 °C 89 % 1015,1 hPa 0,0 mm 0,0 km/h (0 Bft) NW 316 ° 0 min 0,000 mm 0,0 UV-I 0 W/m² 12,0 °C 13,8 °C 0,0 km/h (0 Bft)
03.08.2019 21:19 13,8 °C 89 % 1015,1 hPa 0,0 mm 0,0 km/h (0 Bft) NW 316 ° 0 min 0,000 mm 0,0 UV-I 0 W/m² 12,0 °C 13,8 °C 0,0 km/h (0 Bft)
03.08.2019 21:20 13,8 °C 89 % 1015,1 hPa 0,0 mm 0,0 km/h (0 Bft) NW 316 ° 0 min 0,000 mm 0,0 UV-I 0 W/m² 12,0 °C 13,8 °C 0,0 km/h (0 Bft)
03.08.2019 21:21 13,8 °C 89 % 1015,1 hPa 0,0 mm 0,0 km/h (0 Bft) NW 316 ° 0 min 0,000 mm 0,0 UV-I 0 W/m² 12,0 °C 13,8 °C 0,0 km/h (0 Bft)
03.08.2019 21:22 13,8 °C 89 % 1015,1 hPa 0,0 mm 0,0 km/h (0 Bft) NW 316 ° 0 min 0,000 mm 0,0 UV-I 0 W/m² 12,0 °C 13,8 °C 0,0 km/h (0 Bft)
03.08.2019 21:23 13,8 °C 89 % 1015,2 hPa 0,0 mm 0,0 km/h (0 Bft) NW 316 ° 0 min 0,000 mm 0,0 UV-I 0 W/m² 12,0 °C 13,8 °C 0,0 km/h (0 Bft)
03.08.2019 21:24 13,8 °C 89 % 1015,2 hPa 0,0 mm 0,0 km/h (0 Bft) NW 316 ° 0 min 0,000 mm 0,0 UV-I 0 W/m² 12,0 °C 13,8 °C 0,0 km/h (0 Bft)
03.08.2019 21:25 13,8 °C 89 % 1015,2 hPa 0,0 mm 0,0 km/h (0 Bft) NW 316 ° 0 min 0,000 mm 0,0 UV-I 0 W/m² 12,0 °C 13,8 °C 0,0 km/h (0 Bft)
03.08.2019 21:26 13,7 °C 89 % 1015,2 hPa 0,0 mm 0,0 km/h (0 Bft) NW 316 ° 0 min 0,000 mm 0,0 UV-I 0 W/m² 11,9 °C 13,7 °C 0,0 km/h (0 Bft)
03.08.2019 21:27 13,7 °C 88 % 1015,2 hPa 0,0 mm 0,0 km/h (0 Bft) NW 316 ° 0 min 0,000 mm 0,0 UV-I 0 W/m² 11,7 °C 13,7 °C 0,0 km/h (0 Bft)
03.08.2019 21:28 13,7 °C 89 % 1015,2 hPa 0,0 mm 0,0 km/h (0 Bft) NW 316 ° 0 min 0,000 mm 0,0 UV-I 0 W/m² 11,9 °C 13,7 °C 0,0 km/h (0 Bft)
03.08.2019 21:29 13,6 °C 89 % 1015,2 hPa 0,0 mm 0,0 km/h (0 Bft) NW 316 ° 0 min 0,000 mm 0,0 UV-I 0 W/m² 11,8 °C 13,6 °C 0,0 km/h (0 Bft)
03.08.2019 21:30 13,6 °C 89 % 1015,2 hPa 0,0 mm 0,0 km/h (0 Bft) NW 316 ° 0 min 0,000 mm 0,0 UV-I 0 W/m² 11,8 °C 13,6 °C 0,0 km/h (0 Bft)
03.08.2019 21:31 13,5 °C 89 % 1015,2 hPa 0,0 mm 0,0 km/h (0 Bft) NW 316 ° 0 min 0,000 mm 0,0 UV-I 0 W/m² 11,7 °C 13,5 °C 0,0 km/h (0 Bft)
03.08.2019 21:32 13,4 °C 89 % 1015,3 hPa 0,0 mm 0,0 km/h (0 Bft) NW 316 ° 0 min 0,000 mm 0,0 UV-I 0 W/m² 11,6 °C 13,4 °C 0,0 km/h (0 Bft)
03.08.2019 21:33 13,4 °C 89 % 1015,3 hPa 0,0 mm 0,0 km/h (0 Bft) NW 316 ° 0 min 0,000 mm 0,0 UV-I 0 W/m² 11,6 °C 13,4 °C 0,0 km/h (0 Bft)
03.08.2019 21:34 13,4 °C 90 % 1015,3 hPa 0,0 mm 0,0 km/h (0 Bft) NW 316 ° 0 min 0,000 mm 0,0 UV-I 0 W/m² 11,8 °C 13,4 °C 0,0 km/h (0 Bft)
03.08.2019 21:35 13,4 °C 89 % 1015,3 hPa 0,0 mm 0,0 km/h (0 Bft) NW 316 ° 0 min 0,000 mm 0,0 UV-I 0 W/m² 11,6 °C 13,4 °C 0,0 km/h (0 Bft)
03.08.2019 21:36 13,4 °C 89 % 1015,3 hPa 0,0 mm 0,0 km/h (0 Bft) NW 316 ° 0 min 0,000 mm 0,0 UV-I 0 W/m² 11,6 °C 13,4 °C 0,0 km/h (0 Bft)
03.08.2019 21:37 13,4 °C 89 % 1015,3 hPa 0,0 mm 0,0 km/h (0 Bft) NW 316 ° 0 min 0,000 mm 0,0 UV-I 0 W/m² 11,6 °C 13,4 °C 0,0 km/h (0 Bft)
03.08.2019 21:38 13,4 °C 89 % 1015,3 hPa 0,0 mm 0,0 km/h (0 Bft) NW 316 ° 0 min 0,000 mm 0,0 UV-I 0 W/m² 11,6 °C 13,4 °C 0,0 km/h (0 Bft)
03.08.2019 21:39 13,3 °C 89 % 1015,3 hPa 0,0 mm 0,0 km/h (0 Bft) NW 316 ° 0 min 0,000 mm 0,0 UV-I 0 W/m² 11,5 °C 13,3 °C 0,0 km/h (0 Bft)
03.08.2019 21:40 13,3 °C 89 % 1015,4 hPa 0,0 mm 0,0 km/h (0 Bft) NW 316 ° 0 min 0,000 mm 0,0 UV-I 0 W/m² 11,5 °C 13,3 °C 0,0 km/h (0 Bft)
03.08.2019 21:41 13,3 °C 89 % 1015,4 hPa 0,0 mm 0,0 km/h (0 Bft) NW 316 ° 0 min 0,000 mm 0,0 UV-I 0 W/m² 11,5 °C 13,3 °C 0,0 km/h (0 Bft)
03.08.2019 21:42 13,3 °C 90 % 1015,4 hPa 0,0 mm 0,0 km/h (0 Bft) NW 316 ° 0 min 0,000 mm 0,0 UV-I 0 W/m² 11,7 °C 13,3 °C 0,0 km/h (0 Bft)
03.08.2019 21:43 13,3 °C 90 % 1015,4 hPa 0,0 mm 0,0 km/h (0 Bft) NW 316 ° 0 min 0,000 mm 0,0 UV-I 0 W/m² 11,7 °C 13,3 °C 0,0 km/h (0 Bft)
03.08.2019 21:44 13,3 °C 90 % 1015,4 hPa 0,0 mm 0,0 km/h (0 Bft) NW 316 ° 0 min 0,000 mm 0,0 UV-I 0 W/m² 11,7 °C 13,3 °C 0,0 km/h (0 Bft)
03.08.2019 21:45 13,2 °C 89 % 1015,4 hPa 0,0 mm 0,0 km/h (0 Bft) NW 316 ° 0 min 0,000 mm 0,0 UV-I 0 W/m² 11,4 °C 13,2 °C 0,0 km/h (0 Bft)
03.08.2019 21:46 13,1 °C 89 % 1015,4 hPa 0,0 mm 0,0 km/h (0 Bft) NW 316 ° 0 min 0,000 mm 0,0 UV-I 0 W/m² 11,3 °C 13,1 °C 0,0 km/h (0 Bft)
03.08.2019 21:47 13,0 °C 90 % 1015,3 hPa 0,0 mm 0,0 km/h (0 Bft) NW 316 ° 0 min 0,000 mm 0,0 UV-I 0 W/m² 11,4 °C 13,0 °C 0,0 km/h (0 Bft)
03.08.2019 21:48 12,9 °C 90 % 1015,5 hPa 0,0 mm 0,0 km/h (0 Bft) NW 316 ° 0 min 0,000 mm 0,0 UV-I 0 W/m² 11,3 °C 12,9 °C 0,0 km/h (0 Bft)
03.08.2019 21:49 12,9 °C 90 % 1015,4 hPa 0,0 mm 0,0 km/h (0 Bft) NW 316 ° 0 min 0,000 mm 0,0 UV-I 0 W/m² 11,3 °C 12,9 °C 0,0 km/h (0 Bft)
03.08.2019 21:50 12,9 °C 90 % 1015,5 hPa 0,0 mm 0,0 km/h (0 Bft) NW 316 ° 0 min 0,000 mm 0,0 UV-I 0 W/m² 11,3 °C 12,9 °C 0,0 km/h (0 Bft)
03.08.2019 21:51 12,9 °C 90 % 1015,4 hPa 0,0 mm 0,0 km/h (0 Bft) NW 316 ° 0 min 0,000 mm 0,0 UV-I 0 W/m² 11,3 °C 12,9 °C 0,0 km/h (0 Bft)
03.08.2019 21:52 12,8 °C 91 % 1015,5 hPa 0,0 mm 0,0 km/h (0 Bft) NW 316 ° 0 min 0,000 mm 0,0 UV-I 0 W/m² 11,4 °C 12,8 °C 0,0 km/h (0 Bft)
03.08.2019 21:53 12,8 °C 90 % 1015,5 hPa 0,0 mm 0,0 km/h (0 Bft) NW 316 ° 0 min 0,000 mm 0,0 UV-I 0 W/m² 11,2 °C 12,8 °C 0,0 km/h (0 Bft)
03.08.2019 21:54 12,8 °C 91 % 1015,5 hPa 0,0 mm 0,0 km/h (0 Bft) NW 316 ° 0 min 0,000 mm 0,0 UV-I 0 W/m² 11,4 °C 12,8 °C 0,0 km/h (0 Bft)
03.08.2019 21:55 12,8 °C 91 % 1015,5 hPa 0,0 mm 0,0 km/h (0 Bft) NW 316 ° 0 min 0,000 mm 0,0 UV-I 0 W/m² 11,4 °C 12,8 °C 0,0 km/h (0 Bft)
03.08.2019 21:56 12,8 °C 90 % 1015,5 hPa 0,0 mm 0,0 km/h (0 Bft) NW 316 ° 0 min 0,000 mm 0,0 UV-I 0 W/m² 11,2 °C 12,8 °C 0,0 km/h (0 Bft)
03.08.2019 21:57 12,7 °C 91 % 1015,5 hPa 0,0 mm 0,0 km/h (0 Bft) NW 316 ° 0 min 0,000 mm 0,0 UV-I 0 W/m² 11,3 °C 12,7 °C 0,0 km/h (0 Bft)
03.08.2019 21:58 12,7 °C 91 % 1015,5 hPa 0,0 mm 0,0 km/h (0 Bft) NW 316 ° 0 min 0,000 mm 0,0 UV-I 0 W/m² 11,3 °C 12,7 °C 0,0 km/h (0 Bft)
03.08.2019 21:59 12,7 °C 91 % 1015,5 hPa 0,0 mm 0,0 km/h (0 Bft) NW 316 ° 0 min 0,000 mm 0,0 UV-I 0 W/m² 11,3 °C 12,7 °C 0,0 km/h (0 Bft)
03.08.2019 22:00 12,6 °C 91 % 1015,5 hPa 0,0 mm 0,0 km/h (0 Bft) NW 316 ° 0 min 0,000 mm 0,0 UV-I 0 W/m² 11,2 °C 12,6 °C 0,0 km/h (0 Bft)
03.08.2019 22:01 12,6 °C 91 % 1015,5 hPa 0,0 mm 0,0 km/h (0 Bft) NW 316 ° 0 min 0,000 mm 0,0 UV-I 0 W/m² 11,2 °C 12,6 °C 0,0 km/h (0 Bft)
03.08.2019 22:02 12,6 °C 91 % 1015,5 hPa 0,0 mm 0,0 km/h (0 Bft) NW 316 ° 0 min 0,000 mm 0,0 UV-I 0 W/m² 11,2 °C 12,6 °C 0,0 km/h (0 Bft)
03.08.2019 22:03 12,6 °C 91 % 1015,5 hPa 0,0 mm 0,0 km/h (0 Bft) NW 316 ° 0 min 0,000 mm 0,0 UV-I 0 W/m² 11,2 °C 12,6 °C 0,0 km/h (0 Bft)
03.08.2019 22:04 12,5 °C 91 % 1015,5 hPa 0,0 mm 0,0 km/h (0 Bft) NW 316 ° 0 min 0,000 mm 0,0 UV-I 0 W/m² 11,1 °C 12,5 °C 0,0 km/h (0 Bft)
03.08.2019 22:05 12,5 °C 91 % 1015,5 hPa 0,0 mm 0,0 km/h (0 Bft) NW 316 ° 0 min 0,000 mm 0,0 UV-I 0 W/m² 11,1 °C 12,5 °C 0,0 km/h (0 Bft)
03.08.2019 22:06 12,5 °C 91 % 1015,5 hPa 0,0 mm 0,0 km/h (0 Bft) NW 316 ° 0 min 0,000 mm 0,0 UV-I 0 W/m² 11,1 °C 12,5 °C 0,0 km/h (0 Bft)
03.08.2019 22:07 12,5 °C 91 % 1015,5 hPa 0,0 mm 0,0 km/h (0 Bft) NW 316 ° 0 min 0,000 mm 0,0 UV-I 0 W/m² 11,1 °C 12,5 °C 0,0 km/h (0 Bft)
03.08.2019 22:08 12,5 °C 91 % 1015,5 hPa 0,0 mm 0,0 km/h (0 Bft) NW 316 ° 0 min 0,000 mm 0,0 UV-I 0 W/m² 11,1 °C 12,5 °C 0,0 km/h (0 Bft)
03.08.2019 22:09 12,5 °C 92 % 1015,5 hPa 0,0 mm 0,0 km/h (0 Bft) NW 316 ° 0 min 0,000 mm 0,0 UV-I 0 W/m² 11,2 °C 12,5 °C 0,0 km/h (0 Bft)
03.08.2019 22:10 12,5 °C 91 % 1015,5 hPa 0,0 mm 0,0 km/h (0 Bft) NW 316 ° 0 min 0,000 mm 0,0 UV-I 0 W/m² 11,1 °C 12,5 °C 0,0 km/h (0 Bft)
03.08.2019 22:11 12,5 °C 91 % 1015,5 hPa 0,0 mm 0,0 km/h (0 Bft) NW 316 ° 0 min 0,000 mm 0,0 UV-I 0 W/m² 11,1 °C 12,5 °C 0,0 km/h (0 Bft)
03.08.2019 22:12 12,5 °C 91 % 1015,4 hPa 0,0 mm 0,0 km/h (0 Bft) NW 316 ° 0 min 0,000 mm 0,0 UV-I 0 W/m² 11,1 °C 12,5 °C 0,0 km/h (0 Bft)
03.08.2019 22:13 12,6 °C 91 % 1015,5 hPa 0,0 mm 0,0 km/h (0 Bft) NW 316 ° 0 min 0,000 mm 0,0 UV-I 0 W/m² 11,2 °C 12,6 °C 0,0 km/h (0 Bft)
03.08.2019 22:14 12,6 °C 92 % 1015,4 hPa 0,0 mm 0,0 km/h (0 Bft) NW 316 ° 0 min 0,000 mm 0,0 UV-I 0 W/m² 11,3 °C 12,6 °C 0,0 km/h (0 Bft)
03.08.2019 22:15 12,6 °C 92 % 1015,5 hPa 0,0 mm 0,0 km/h (0 Bft) NW 316 ° 0 min 0,000 mm 0,0 UV-I 0 W/m² 11,3 °C 12,6 °C 0,0 km/h (0 Bft)
03.08.2019 22:16 12,6 °C 91 % 1015,5 hPa 0,0 mm 0,0 km/h (0 Bft) NW 316 ° 0 min 0,000 mm 0,0 UV-I 0 W/m² 11,2 °C 12,6 °C 0,0 km/h (0 Bft)
03.08.2019 22:17 12,6 °C 91 % 1015,5 hPa 0,0 mm 0,0 km/h (0 Bft) NW 316 ° 0 min 0,000 mm 0,0 UV-I 0 W/m² 11,2 °C 12,6 °C 0,0 km/h (0 Bft)
03.08.2019 22:18 12,6 °C 91 % 1015,5 hPa 0,0 mm 0,0 km/h (0 Bft) NW 316 ° 0 min 0,000 mm 0,0 UV-I 0 W/m² 11,2 °C 12,6 °C 0,0 km/h (0 Bft)
03.08.2019 22:19 12,6 °C 91 % 1015,5 hPa 0,0 mm 0,0 km/h (0 Bft) NW 316 ° 0 min 0,000 mm 0,0 UV-I 0 W/m² 11,2 °C 12,6 °C 0,0 km/h (0 Bft)
03.08.2019 22:20 12,7 °C 92 % 1015,5 hPa 0,0 mm 0,0 km/h (0 Bft) NW 316 ° 0 min 0,000 mm 0,0 UV-I 0 W/m² 11,4 °C 12,7 °C 0,0 km/h (0 Bft)
03.08.2019 22:21 12,7 °C 92 % 1015,4 hPa 0,0 mm 0,0 km/h (0 Bft) NW 316 ° 0 min 0,000 mm 0,0 UV-I 0 W/m² 11,4 °C 12,7 °C 0,0 km/h (0 Bft)
03.08.2019 22:22 12,6 °C 91 % 1015,5 hPa 0,0 mm 0,0 km/h (0 Bft) NW 316 ° 0 min 0,000 mm 0,0 UV-I 0 W/m² 11,2 °C 12,6 °C 0,0 km/h (0 Bft)
03.08.2019 22:23 12,4 °C 91 % 1015,5 hPa 0,0 mm 0,0 km/h (0 Bft) NW 316 ° 0 min 0,000 mm 0,0 UV-I 0 W/m² 11,0 °C 12,4 °C 0,0 km/h (0 Bft)
03.08.2019 22:24 12,3 °C 91 % 1015,5 hPa 0,0 mm 0,0 km/h (0 Bft) NW 316 ° 0 min 0,000 mm 0,0 UV-I 0 W/m² 10,9 °C 12,3 °C 0,0 km/h (0 Bft)
03.08.2019 22:25 12,3 °C 91 % 1015,5 hPa 0,0 mm 0,0 km/h (0 Bft) NW 316 ° 0 min 0,000 mm 0,0 UV-I 0 W/m² 10,9 °C 12,3 °C 0,0 km/h (0 Bft)
03.08.2019 22:26 12,2 °C 91 % 1015,5 hPa 0,0 mm 0,0 km/h (0 Bft) NW 316 ° 0 min 0,000 mm 0,0 UV-I 0 W/m² 10,8 °C 12,2 °C 0,0 km/h (0 Bft)
03.08.2019 22:27 12,1 °C 91 % 1015,5 hPa 0,0 mm 0,0 km/h (0 Bft) NW 316 ° 0 min 0,000 mm 0,0 UV-I 0 W/m² 10,7 °C 12,1 °C 0,0 km/h (0 Bft)
03.08.2019 22:28 12,1 °C 91 % 1015,5 hPa 0,0 mm 0,0 km/h (0 Bft) NW 316 ° 0 min 0,000 mm 0,0 UV-I 0 W/m² 10,7 °C 12,1 °C 0,0 km/h (0 Bft)
03.08.2019 22:29 12,1 °C 91 % 1015,6 hPa 0,0 mm 0,0 km/h (0 Bft) NW 316 ° 0 min 0,000 mm 0,0 UV-I 0 W/m² 10,7 °C 12,1 °C 0,0 km/h (0 Bft)
03.08.2019 22:30 12,1 °C 92 % 1015,6 hPa 0,0 mm 0,0 km/h (0 Bft) NW 316 ° 0 min 0,000 mm 0,0 UV-I 0 W/m² 10,8 °C 12,1 °C 0,0 km/h (0 Bft)
03.08.2019 22:31 12,1 °C 92 % 1015,6 hPa 0,0 mm 0,0 km/h (0 Bft) NW 316 ° 0 min 0,000 mm 0,0 UV-I 0 W/m² 10,8 °C 12,1 °C 0,0 km/h (0 Bft)
03.08.2019 22:32 12,1 °C 92 % 1015,7 hPa 0,0 mm 0,0 km/h (0 Bft) NW 316 ° 0 min 0,000 mm 0,0 UV-I 0 W/m² 10,8 °C 12,1 °C 0,0 km/h (0 Bft)
03.08.2019 22:33 12,1 °C 92 % 1015,6 hPa 0,0 mm 0,0 km/h (0 Bft) NW 316 ° 0 min 0,000 mm 0,0 UV-I 0 W/m² 10,8 °C 12,1 °C 0,0 km/h (0 Bft)
03.08.2019 22:34 12,1 °C 92 % 1015,7 hPa 0,0 mm 0,0 km/h (0 Bft) NW 316 ° 0 min 0,000 mm 0,0 UV-I 0 W/m² 10,8 °C 12,1 °C 0,0 km/h (0 Bft)
03.08.2019 22:35 12,1 °C 92 % 1015,7 hPa 0,0 mm 0,0 km/h (0 Bft) NW 316 ° 0 min 0,000 mm 0,0 UV-I 0 W/m² 10,8 °C 12,1 °C 0,0 km/h (0 Bft)
03.08.2019 22:36 12,1 °C 92 % 1015,7 hPa 0,0 mm 0,0 km/h (0 Bft) NW 316 ° 0 min 0,000 mm 0,0 UV-I 0 W/m² 10,8 °C 12,1 °C 0,0 km/h (0 Bft)
03.08.2019 22:37 12,1 °C 92 % 1015,7 hPa 0,0 mm 0,0 km/h (0 Bft) NW 316 ° 0 min 0,000 mm 0,0 UV-I 0 W/m² 10,8 °C 12,1 °C 0,0 km/h (0 Bft)
03.08.2019 22:38 11,9 °C 92 % 1015,7 hPa 0,0 mm 0,0 km/h (0 Bft) NW 316 ° 0 min 0,000 mm 0,0 UV-I 0 W/m² 10,6 °C 11,9 °C 0,0 km/h (0 Bft)
03.08.2019 22:39 11,9 °C 92 % 1015,6 hPa 0,0 mm 0,0 km/h (0 Bft) NW 316 ° 0 min 0,000 mm 0,0 UV-I 0 W/m² 10,6 °C 11,9 °C 0,0 km/h (0 Bft)
03.08.2019 22:40 11,9 °C 92 % 1015,6 hPa 0,0 mm 0,0 km/h (0 Bft) NW 316 ° 0 min 0,000 mm 0,0 UV-I 0 W/m² 10,6 °C 11,9 °C 0,0 km/h (0 Bft)
03.08.2019 22:41 12,0 °C 92 % 1015,7 hPa 0,0 mm 0,0 km/h (0 Bft) NW 316 ° 0 min 0,000 mm 0,0 UV-I 0 W/m² 10,7 °C 12,0 °C 0,0 km/h (0 Bft)
03.08.2019 22:42 12,1 °C 92 % 1015,7 hPa 0,0 mm 0,0 km/h (0 Bft) NW 316 ° 0 min 0,000 mm 0,0 UV-I 0 W/m² 10,8 °C 12,1 °C 0,0 km/h (0 Bft)
03.08.2019 22:43 12,1 °C 93 % 1015,6 hPa 0,0 mm 0,0 km/h (0 Bft) NW 316 ° 0 min 0,000 mm 0,0 UV-I 0 W/m² 11,0 °C 12,1 °C 0,0 km/h (0 Bft)
03.08.2019 22:44 12,1 °C 93 % 1015,7 hPa 0,0 mm 0,0 km/h (0 Bft) NW 316 ° 0 min 0,000 mm 0,0 UV-I 0 W/m² 11,0 °C 12,1 °C 0,0 km/h (0 Bft)
03.08.2019 22:45 12,1 °C 92 % 1015,7 hPa 0,0 mm 0,0 km/h (0 Bft) NW 316 ° 0 min 0,000 mm 0,0 UV-I 0 W/m² 10,8 °C 12,1 °C 0,0 km/h (0 Bft)
03.08.2019 22:46 12,0 °C 92 % 1015,7 hPa 0,0 mm 0,0 km/h (0 Bft) NW 316 ° 0 min 0,000 mm 0,0 UV-I 0 W/m² 10,7 °C 12,0 °C 0,0 km/h (0 Bft)
03.08.2019 22:47 11,9 °C 92 % 1015,7 hPa 0,0 mm 0,0 km/h (0 Bft) NW 316 ° 0 min 0,000 mm 0,0 UV-I 0 W/m² 10,6 °C 11,9 °C 0,0 km/h (0 Bft)
03.08.2019 22:48 12,0 °C 92 % 1015,7 hPa 0,0 mm 0,0 km/h (0 Bft) NW 316 ° 0 min 0,000 mm 0,0 UV-I 0 W/m² 10,7 °C 12,0 °C 0,0 km/h (0 Bft)
03.08.2019 22:49 11,9 °C 92 % 1015,7 hPa 0,0 mm 0,0 km/h (0 Bft) NW 316 ° 0 min 0,000 mm 0,0 UV-I 0 W/m² 10,6 °C 11,9 °C 0,0 km/h (0 Bft)
03.08.2019 22:50 11,9 °C 92 % 1015,7 hPa 0,0 mm 0,0 km/h (0 Bft) NW 316 ° 0 min 0,000 mm 0,0 UV-I 0 W/m² 10,6 °C 11,9 °C 0,0 km/h (0 Bft)
03.08.2019 22:51 11,9 °C 92 % 1015,7 hPa 0,0 mm 0,0 km/h (0 Bft) NW 316 ° 0 min 0,000 mm 0,0 UV-I 0 W/m² 10,6 °C 11,9 °C 0,0 km/h (0 Bft)
03.08.2019 22:52 12,0 °C 93 % 1015,7 hPa 0,0 mm 0,0 km/h (0 Bft) NW 316 ° 0 min 0,000 mm 0,0 UV-I 0 W/m² 10,9 °C 12,0 °C 0,0 km/h (0 Bft)
03.08.2019 22:53 12,1 °C 93 % 1015,7 hPa 0,0 mm 0,0 km/h (0 Bft) NW 316 ° 0 min 0,000 mm 0,0 UV-I 0 W/m² 11,0 °C 12,1 °C 0,0 km/h (0 Bft)
03.08.2019 22:54 12,0 °C 93 % 1015,7 hPa 0,0 mm 0,0 km/h (0 Bft) NW 316 ° 0 min 0,000 mm 0,0 UV-I 0 W/m² 10,9 °C 12,0 °C 0,0 km/h (0 Bft)
03.08.2019 22:55 12,0 °C 92 % 1015,6 hPa 0,0 mm 0,0 km/h (0 Bft) NW 316 ° 0 min 0,000 mm 0,0 UV-I 0 W/m² 10,7 °C 12,0 °C 0,0 km/h (0 Bft)
03.08.2019 22:56 11,9 °C 92 % 1015,6 hPa 0,0 mm 0,0 km/h (0 Bft) NW 316 ° 0 min 0,000 mm 0,0 UV-I 0 W/m² 10,6 °C 11,9 °C 0,0 km/h (0 Bft)
03.08.2019 22:57 12,0 °C 92 % 1015,7 hPa 0,0 mm 0,0 km/h (0 Bft) NW 316 ° 0 min 0,000 mm 0,0 UV-I 0 W/m² 10,7 °C 12,0 °C 0,0 km/h (0 Bft)
03.08.2019 22:58 11,9 °C 92 % 1015,6 hPa 0,0 mm 0,0 km/h (0 Bft) NW 316 ° 0 min 0,000 mm 0,0 UV-I 0 W/m² 10,6 °C 11,9 °C 0,0 km/h (0 Bft)
03.08.2019 22:59 11,9 °C 93 % 1015,7 hPa 0,0 mm 0,0 km/h (0 Bft) NW 316 ° 0 min 0,000 mm 0,0 UV-I 0 W/m² 10,8 °C 11,9 °C 0,0 km/h (0 Bft)
03.08.2019 23:00 11,9 °C 93 % 1015,7 hPa 0,0 mm 0,0 km/h (0 Bft) NW 316 ° 0 min 0,000 mm 0,0 UV-I 0 W/m² 10,8 °C 11,9 °C 0,0 km/h (0 Bft)
03.08.2019 23:01 11,9 °C 92 % 1015,6 hPa 0,0 mm 0,0 km/h (0 Bft) NW 316 ° 0 min 0,000 mm 0,0 UV-I 0 W/m² 10,6 °C 11,9 °C 0,0 km/h (0 Bft)
03.08.2019 23:02 11,8 °C 92 % 1015,7 hPa 0,0 mm 0,0 km/h (0 Bft) NW 316 ° 0 min 0,000 mm 0,0 UV-I 0 W/m² 10,5 °C 11,8 °C 0,0 km/h (0 Bft)
03.08.2019 23:03 11,8 °C 93 % 1015,6 hPa 0,0 mm 0,0 km/h (0 Bft) NW 316 ° 0 min 0,000 mm 0,0 UV-I 0 W/m² 10,7 °C 11,8 °C 0,0 km/h (0 Bft)
03.08.2019 23:04 11,7 °C 92 % 1015,6 hPa 0,0 mm 0,0 km/h (0 Bft) NW 316 ° 0 min 0,000 mm 0,0 UV-I 0 W/m² 10,4 °C 11,7 °C 0,0 km/h (0 Bft)
03.08.2019 23:05 11,7 °C 92 % 1015,7 hPa 0,0 mm 0,0 km/h (0 Bft) NW 316 ° 0 min 0,000 mm 0,0 UV-I 0 W/m² 10,4 °C 11,7 °C 0,0 km/h (0 Bft)
03.08.2019 23:06 11,6 °C 92 % 1015,6 hPa 0,0 mm 0,0 km/h (0 Bft) NW 316 ° 0 min 0,000 mm 0,0 UV-I 0 W/m² 10,3 °C 11,6 °C 0,0 km/h (0 Bft)
03.08.2019 23:07 11,6 °C 92 % 1015,6 hPa 0,0 mm 0,0 km/h (0 Bft) NW 316 ° 0 min 0,000 mm 0,0 UV-I 0 W/m² 10,3 °C 11,6 °C 0,0 km/h (0 Bft)
03.08.2019 23:08 11,7 °C 93 % 1015,6 hPa 0,0 mm 0,0 km/h (0 Bft) NW 316 ° 0 min 0,000 mm 0,0 UV-I 0 W/m² 10,6 °C 11,7 °C 0,0 km/h (0 Bft)
03.08.2019 23:09 11,7 °C 93 % 1015,7 hPa 0,0 mm 0,0 km/h (0 Bft) NW 316 ° 0 min 0,000 mm 0,0 UV-I 0 W/m² 10,6 °C 11,7 °C 0,0 km/h (0 Bft)
03.08.2019 23:10 11,8 °C 93 % 1015,6 hPa 0,0 mm 0,0 km/h (0 Bft) NW 316 ° 0 min 0,000 mm 0,0 UV-I 0 W/m² 10,7 °C 11,8 °C 0,0 km/h (0 Bft)
03.08.2019 23:11 11,9 °C 93 % 1015,6 hPa 0,0 mm 0,0 km/h (0 Bft) NW 316 ° 0 min 0,000 mm 0,0 UV-I 0 W/m² 10,8 °C 11,9 °C 0,0 km/h (0 Bft)
03.08.2019 23:12 11,9 °C 93 % 1015,6 hPa 0,0 mm 0,0 km/h (0 Bft) NW 316 ° 0 min 0,000 mm 0,0 UV-I 0 W/m² 10,8 °C 11,9 °C 0,0 km/h (0 Bft)
03.08.2019 23:13 11,9 °C 93 % 1015,5 hPa 0,0 mm 0,0 km/h (0 Bft) NW 316 ° 0 min 0,000 mm 0,0 UV-I 0 W/m² 10,8 °C 11,9 °C 0,0 km/h (0 Bft)
03.08.2019 23:14 12,0 °C 93 % 1015,5 hPa 0,0 mm 0,0 km/h (0 Bft) NW 316 ° 0 min 0,000 mm 0,0 UV-I 0 W/m² 10,9 °C 12,0 °C 0,0 km/h (0 Bft)
03.08.2019 23:15 12,0 °C 93 % 1015,5 hPa 0,0 mm 0,0 km/h (0 Bft) NW 316 ° 0 min 0,000 mm 0,0 UV-I 0 W/m² 10,9 °C 12,0 °C 0,0 km/h (0 Bft)
03.08.2019 23:16 11,9 °C 93 % 1015,5 hPa 0,0 mm 0,0 km/h (0 Bft) SW 235 ° 0 min 0,000 mm 0,0 UV-I 0 W/m² 10,8 °C 11,9 °C 0,0 km/h (0 Bft)
03.08.2019 23:17 11,8 °C 92 % 1015,5 hPa 0,0 mm 0,0 km/h (0 Bft) SW 235 ° 0 min 0,000 mm 0,0 UV-I 0 W/m² 10,5 °C 11,8 °C 0,0 km/h (0 Bft)
03.08.2019 23:18 11,8 °C 93 % 1015,5 hPa 0,0 mm 0,0 km/h (0 Bft) SW 235 ° 0 min 0,000 mm 0,0 UV-I 0 W/m² 10,7 °C 11,8 °C 0,0 km/h (0 Bft)
03.08.2019 23:19 11,8 °C 93 % 1015,5 hPa 0,0 mm 0,0 km/h (0 Bft) SW 235 ° 0 min 0,000 mm 0,0 UV-I 0 W/m² 10,7 °C 11,8 °C 0,0 km/h (0 Bft)
03.08.2019 23:20 11,8 °C 93 % 1015,5 hPa 0,0 mm 0,0 km/h (0 Bft) SW 235 ° 0 min 0,000 mm 0,0 UV-I 0 W/m² 10,7 °C 11,8 °C 0,0 km/h (0 Bft)
03.08.2019 23:21 11,8 °C 93 % 1015,5 hPa 0,0 mm 0,0 km/h (0 Bft) SW 235 ° 0 min 0,000 mm 0,0 UV-I 0 W/m² 10,7 °C 11,8 °C 0,0 km/h (0 Bft)
03.08.2019 23:22 11,8 °C 93 % 1015,5 hPa 0,0 mm 0,0 km/h (0 Bft) SW 235 ° 0 min 0,000 mm 0,0 UV-I 0 W/m² 10,7 °C 11,8 °C 0,0 km/h (0 Bft)
03.08.2019 23:23 11,8 °C 93 % 1015,5 hPa 0,0 mm 0,0 km/h (0 Bft) SW 235 ° 0 min 0,000 mm 0,0 UV-I 0 W/m² 10,7 °C 11,8 °C 0,0 km/h (0 Bft)
03.08.2019 23:24 11,8 °C 93 % 1015,6 hPa 0,0 mm 0,0 km/h (0 Bft) SW 235 ° 0 min 0,000 mm 0,0 UV-I 0 W/m² 10,7 °C 11,8 °C 0,0 km/h (0 Bft)
03.08.2019 23:25 11,9 °C 93 % 1015,5 hPa 0,0 mm 0,0 km/h (0 Bft) SW 235 ° 0 min 0,000 mm 0,0 UV-I 0 W/m² 10,8 °C 11,9 °C 0,0 km/h (0 Bft)
03.08.2019 23:26 11,9 °C 93 % 1015,6 hPa 0,0 mm 0,0 km/h (0 Bft) SW 235 ° 0 min 0,000 mm 0,0 UV-I 0 W/m² 10,8 °C 11,9 °C 0,0 km/h (0 Bft)
03.08.2019 23:27 11,9 °C 93 % 1015,6 hPa 0,0 mm 0,0 km/h (0 Bft) SW 235 ° 0 min 0,000 mm 0,0 UV-I 0 W/m² 10,8 °C 11,9 °C 0,0 km/h (0 Bft)
03.08.2019 23:28 11,9 °C 93 % 1015,5 hPa 0,0 mm 0,0 km/h (0 Bft) SW 235 ° 0 min 0,000 mm 0,0 UV-I 0 W/m² 10,8 °C 11,9 °C 0,0 km/h (0 Bft)
03.08.2019 23:29 11,8 °C 92 % 1015,5 hPa 0,0 mm 0,0 km/h (0 Bft) SW 235 ° 0 min 0,000 mm 0,0 UV-I 0 W/m² 10,5 °C 11,8 °C 0,0 km/h (0 Bft)
03.08.2019 23:30 11,8 °C 93 % 1015,6 hPa 0,0 mm 0,0 km/h (0 Bft) SW 235 ° 0 min 0,000 mm 0,0 UV-I 0 W/m² 10,7 °C 11,8 °C 0,0 km/h (0 Bft)
03.08.2019 23:31 11,7 °C 93 % 1015,5 hPa 0,0 mm 0,0 km/h (0 Bft) SW 235 ° 0 min 0,000 mm 0,0 UV-I 0 W/m² 10,6 °C 11,7 °C 0,0 km/h (0 Bft)
03.08.2019 23:32 11,7 °C 93 % 1015,6 hPa 0,0 mm 0,0 km/h (0 Bft) SW 235 ° 0 min 0,000 mm 0,0 UV-I 0 W/m² 10,6 °C 11,7 °C 0,0 km/h (0 Bft)
03.08.2019 23:33 11,7 °C 93 % 1015,6 hPa 0,0 mm 0,0 km/h (0 Bft) SW 235 ° 0 min 0,000 mm 0,0 UV-I 0 W/m² 10,6 °C 11,7 °C 0,0 km/h (0 Bft)
03.08.2019 23:34 11,8 °C 93 % 1015,5 hPa 0,0 mm 0,0 km/h (0 Bft) SW 235 ° 0 min 0,000 mm 0,0 UV-I 0 W/m² 10,7 °C 11,8 °C 0,0 km/h (0 Bft)
03.08.2019 23:35 11,8 °C 93 % 1015,5 hPa 0,0 mm 0,0 km/h (0 Bft) SW 235 ° 0 min 0,000 mm 0,0 UV-I 0 W/m² 10,7 °C 11,8 °C 0,0 km/h (0 Bft)
03.08.2019 23:36 11,8 °C 93 % 1015,5 hPa 0,0 mm 0,0 km/h (0 Bft) SW 235 ° 0 min 0,000 mm 0,0 UV-I 0 W/m² 10,7 °C 11,8 °C 0,0 km/h (0 Bft)
03.08.2019 23:37 11,7 °C 93 % 1015,5 hPa 0,0 mm 0,0 km/h (0 Bft) SW 235 ° 0 min 0,000 mm 0,0 UV-I 0 W/m² 10,6 °C 11,7 °C 0,0 km/h (0 Bft)
03.08.2019 23:38 11,8 °C 93 % 1015,5 hPa 0,0 mm 0,0 km/h (0 Bft) SW 235 ° 0 min 0,000 mm 0,0 UV-I 0 W/m² 10,7 °C 11,8 °C 0,0 km/h (0 Bft)
03.08.2019 23:39 11,8 °C 93 % 1015,4 hPa 0,0 mm 0,0 km/h (0 Bft) SW 235 ° 0 min 0,000 mm 0,0 UV-I 0 W/m² 10,7 °C 11,8 °C 0,0 km/h (0 Bft)
03.08.2019 23:40 11,7 °C 93 % 1015,5 hPa 0,0 mm 0,0 km/h (0 Bft) SW 235 ° 0 min 0,000 mm 0,0 UV-I 0 W/m² 10,6 °C 11,7 °C 0,0 km/h (0 Bft)
03.08.2019 23:41 11,7 °C 93 % 1015,5 hPa 0,0 mm 0,0 km/h (0 Bft) SW 235 ° 0 min 0,000 mm 0,0 UV-I 0 W/m² 10,6 °C 11,7 °C 0,0 km/h (0 Bft)
03.08.2019 23:42 11,6 °C 93 % 1015,5 hPa 0,0 mm 0,0 km/h (0 Bft) SW 235 ° 0 min 0,000 mm 0,0 UV-I 0 W/m² 10,5 °C 11,6 °C 0,0 km/h (0 Bft)
03.08.2019 23:43 11,6 °C 93 % 1015,4 hPa 0,0 mm 0,0 km/h (0 Bft) SW 235 ° 0 min 0,000 mm 0,0 UV-I 0 W/m² 10,5 °C 11,6 °C 0,0 km/h (0 Bft)
03.08.2019 23:44 11,5 °C 93 % 1015,5 hPa 0,0 mm 0,0 km/h (0 Bft) SW 235 ° 0 min 0,000 mm 0,0 UV-I 0 W/m² 10,4 °C 11,5 °C 0,0 km/h (0 Bft)
03.08.2019 23:45 11,5 °C 93 % 1015,5 hPa 0,0 mm 0,0 km/h (0 Bft) SW 235 ° 0 min 0,000 mm 0,0 UV-I 0 W/m² 10,4 °C 11,5 °C 0,0 km/h (0 Bft)
03.08.2019 23:46 11,5 °C 93 % 1015,5 hPa 0,0 mm 0,0 km/h (0 Bft) SW 235 ° 0 min 0,000 mm 0,0 UV-I 0 W/m² 10,4 °C 11,5 °C 0,0 km/h (0 Bft)
03.08.2019 23:47 11,5 °C 93 % 1015,5 hPa 0,0 mm 0,0 km/h (0 Bft) SW 235 ° 0 min 0,000 mm 0,0 UV-I 0 W/m² 10,4 °C 11,5 °C 0,0 km/h (0 Bft)
03.08.2019 23:48 11,5 °C 93 % 1015,5 hPa 0,0 mm 0,0 km/h (0 Bft) SW 235 ° 0 min 0,000 mm 0,0 UV-I 0 W/m² 10,4 °C 11,5 °C 0,0 km/h (0 Bft)
03.08.2019 23:49 11,5 °C 93 % 1015,5 hPa 0,0 mm 0,0 km/h (0 Bft) SW 235 ° 0 min 0,000 mm 0,0 UV-I 0 W/m² 10,4 °C 11,5 °C 0,0 km/h (0 Bft)
03.08.2019 23:50 11,6 °C 93 % 1015,5 hPa 0,0 mm 0,0 km/h (0 Bft) SW 235 ° 0 min 0,000 mm 0,0 UV-I 0 W/m² 10,5 °C 11,6 °C 0,0 km/h (0 Bft)
03.08.2019 23:51 11,6 °C 93 % 1015,5 hPa 0,0 mm 0,0 km/h (0 Bft) SW 235 ° 0 min 0,000 mm 0,0 UV-I 0 W/m² 10,5 °C 11,6 °C 0,0 km/h (0 Bft)
03.08.2019 23:52 11,7 °C 93 % 1015,5 hPa 0,0 mm 0,0 km/h (0 Bft) SW 235 ° 0 min 0,000 mm 0,0 UV-I 0 W/m² 10,6 °C 11,7 °C 0,0 km/h (0 Bft)
03.08.2019 23:53 11,7 °C 93 % 1015,5 hPa 0,0 mm 0,0 km/h (0 Bft) SW 235 ° 0 min 0,000 mm 0,0 UV-I 0 W/m² 10,6 °C 11,7 °C 0,0 km/h (0 Bft)
03.08.2019 23:54 11,7 °C 93 % 1015,5 hPa 0,0 mm 0,0 km/h (0 Bft) SW 235 ° 0 min 0,000 mm 0,0 UV-I 0 W/m² 10,6 °C 11,7 °C 0,0 km/h (0 Bft)
03.08.2019 23:55 11,7 °C 93 % 1015,5 hPa 0,0 mm 0,0 km/h (0 Bft) SW 235 ° 0 min 0,000 mm 0,0 UV-I 0 W/m² 10,6 °C 11,7 °C 0,0 km/h (0 Bft)
03.08.2019 23:56 11,7 °C 93 % 1015,5 hPa 0,0 mm 0,0 km/h (0 Bft) SW 235 ° 0 min 0,000 mm 0,0 UV-I 0 W/m² 10,6 °C 11,7 °C 0,0 km/h (0 Bft)
03.08.2019 23:57 11,7 °C 93 % 1015,5 hPa 0,0 mm 0,0 km/h (0 Bft) SW 235 ° 0 min 0,000 mm 0,0 UV-I 0 W/m² 10,6 °C 11,7 °C 0,0 km/h (0 Bft)
03.08.2019 23:58 11,7 °C 93 % 1015,5 hPa 0,0 mm 0,0 km/h (0 Bft) SW 235 ° 0 min 0,000 mm 0,0 UV-I 0 W/m² 10,6 °C 11,7 °C 0,0 km/h (0 Bft)
03.08.2019 23:59 11,7 °C 93 % 1015,5 hPa 0,0 mm 0,0 km/h (0 Bft) SW 235 ° 0 min 0,000 mm 0,0 UV-I 0 W/m² 10,6 °C 11,7 °C 0,0 km/h (0 Bft)
_ Min-Zeit 23:49 14:37 06:50 - 23:59 - - - - - - 23:07 23:49 23:59
Minimum _ 11,5 °C 61 % 1012,5 hPa - 0,0 km/h (0 Bft) - - - - - - 10,3 °C 11,5 °C 0,0 km/h (0 Bft)
_ Max-Zeit 14:35 04:40 23:09 18:06 14:38 - - 15:28 15:01 14:39 14:35 13:49 14:35 14:38
Maximum _ 20,6 °C 95 % 1015,7 hPa 0,2 mm 25,6 km/h
W (4 Bft)
- - 1 min 0,407 mm 7,0 UV-I 1171 W/m² 16,0 °C 20,6 °C 46,7 km/h
W-SW (6 Bft)
Durchschnitt _ 15,4 °C 84 % 1013,7 hPa #0,6 mm 4,2 km/h (1 Bft) W - #1:48 h #2,565 mm 2,5 UV-I 165 W/m² 12,6 °C 15,4 °C 6,9 km/h (2 Bft)